[[{"header":{"parameterUnit":"m.s-1","parameterCategory":1,"la1":31.0,"la2":29.5877,"lo1":-88.7671,"lo2":-86.6584,"dy":0.0162,"dx":0.0185,"nx":115,"ny":88,"refTime":"2024-10-15T18:00:00:Z","depth":0,"parameterNumber":2,"parameterNumberName":"U-component_of_WINDS"},"data":[0.0,0.0,0.0,0.0,0.0,0.0,0.0,0.0,0.0,0.0,0.0,0.0,0.0,0.0,0.0,0.0,0.0,0.0,0.0,0.0,0.0,0.0,0.0,0.0,0.0,0.0,0.0,0.0,0.0,0.0,0.0,0.0,0.0,0.0,0.0,0.0,0.0,0.0,0.0,0.0,0.0,0.0,0.0,0.0,0.0,0.0,0.0,0.0,0.0,0.0,0.0,0.0,0.0,0.0,0.0,0.0,0.0,0.0,0.0,0.0,0.0,0.0,0.0,0.0,0.0,0.0,0.0,0.0,0.0,0.0,0.0,0.0,0.0,0.0,0.0,0.0,0.0,0.0,0.0,0.0,0.0,0.0,0.0,0.0,0.0,0.0,0.0,0.0,0.0,0.0,0.0,0.0,0.0,0.0,0.0,0.0,0.0,0.0,0.0,0.0,0.0,0.0,0.0,0.0,0.0,0.0,0.0,0.0,0.0,0.0,0.0,0.0,0.0,0.0,0.0,0.0,0.0,0.0,0.0,0.0,0.0,0.0,0.0,0.0,0.0,0.0,0.0,0.0,0.0,0.0,0.0,0.0,0.0,0.0,0.0,0.0,0.0,0.0,0.0,0.0,0.0,0.0,0.0,0.0,0.0,0.0,0.0,0.0,0.0,0.0,0.0,0.0,0.0,0.0,0.0,0.0,0.0,0.0,0.0,0.0,0.0,0.0,0.0,0.0,0.0,0.0,0.0,0.0,0.0,0.0,0.0,0.0,0.0,0.0,0.0,0.0,0.0,0.0,0.0,0.0,0.0,0.0,0.0,0.0,0.0,0.0,0.0,0.0,0.0,0.0,0.0,0.0,0.0,0.0,0.0,0.0,0.0,0.0,0.0,0.0,0.0,0.0,0.0,0.0,0.0,0.0,0.0,0.0,0.0,0.0,0.0,0.0,0.0,0.0,0.0,0.0,0.0,0.0,0.0,0.0,0.0,0.0,0.0,0.0,0.0,0.0,0.0,0.0,0.0,0.0,0.0,0.0,0.0,0.0,0.0,0.0,0.0,0.0,0.0,0.0,0.0,0.0,0.0,0.0,0.0,0.0,0.0,0.0,0.0,0.0,0.0,0.0,0.0,0.0,0.0,0.0,0.0,0.0,0.0,0.0,0.0,0.0,0.0,0.0,0.0,0.0,0.0,0.0,0.0,0.0,0.0,0.0,0.0,0.0,0.0,0.0,0.0,0.0,0.0,0.0,0.0,0.0,0.0,0.0,0.0,0.0,0.0,0.0,0.0,0.0,0.0,0.0,0.0,0.0,0.0,0.0,0.0,0.0,0.0,0.0,0.0,0.0,0.0,0.0,0.0,0.0,0.0,0.0,0.0,0.0,0.0,0.0,0.0,0.0,0.0,0.0,0.0,0.0,0.0,0.0,0.0,0.0,0.0,0.0,0.0,0.0,0.0,0.0,0.0,0.0,0.0,0.0,0.0,0.0,0.0,0.0,0.0,0.0,0.0,0.0,0.0,0.0,0.0,0.0,0.0,0.0,0.0,0.0,0.0,0.0,0.0,0.0,0.0,0.0,0.0,0.0,0.0,0.0,0.0,0.0,0.0,0.0,0.0,0.0,0.0,0.0,0.0,0.0,0.0,0.0,0.0,0.0,0.0,0.0,0.0,0.0,0.0,0.0,0.0,0.0,0.0,0.0,0.0,0.0,0.0,0.0,0.0,0.0,0.0,0.0,0.0,0.0,0.0,0.0,0.0,0.0,0.0,0.0,0.0,0.0,0.0,0.0,0.0,0.0,0.0,0.0,0.0,0.0,0.0,0.0,0.0,0.0,0.0,0.0,0.0,0.0,0.0,0.0,0.0,0.0,0.0,0.0,0.0,0.0,0.0,0.0,0.0,0.0,0.0,0.0,0.0,0.0,0.0,0.0,0.0,0.0,0.0,0.0,0.0,0.0,0.0,0.0,0.0,0.0,0.0,0.0,0.0,0.0,0.0,0.0,0.0,0.0,0.0,0.0,0.0,0.0,0.0,0.0,0.0,0.0,0.0,0.0,0.0,0.0,0.0,0.0,0.0,0.0,0.0,0.0,0.0,0.0,0.0,0.0,0.0,0.0,0.0,0.0,0.0,0.0,0.0,0.0,0.0,0.0,0.0,0.0,0.0,0.0,0.0,0.0,0.0,0.0,0.0,0.0,0.0,0.0,0.0,0.0,0.0,0.0,0.0,0.0,0.0,0.0,0.0,0.0,0.0,0.0,0.0,0.0,0.0,0.0,0.0,0.0,0.0,0.0,0.0,0.0,0.0,0.0,0.0,0.0,0.0,0.0,0.0,0.0,0.0,0.0,0.0,0.0,0.0,0.0,0.0,0.0,0.0,0.0,0.0,0.0,0.0,0.0,0.0,0.0,0.0,0.0,0.0,0.0,0.0,0.0,0.0,0.0,0.0,0.0,0.0,0.0,0.0,0.0,0.0,0.0,0.0,0.0,0.0,0.0,0.0,0.0,0.0,0.0,0.0,0.0,0.0,0.0,0.0,0.0,0.0,0.0,0.0,0.0,0.0,0.0,0.0,0.0,0.0,0.0,0.0,0.0,0.0,0.0,0.0,0.0,0.0,0.0,0.0,0.0,0.0,0.0,0.0,0.0,0.0,0.0,0.0,0.0,0.0,0.0,0.0,0.0,0.0,0.0,0.0,0.0,0.0,0.0,0.0,0.0,0.0,0.0,0.0,0.0,0.0,0.0,0.0,0.0,0.0,0.0,0.0,0.0,0.0,0.0,0.0,0.0,0.0,0.0,0.0,0.0,0.0,0.0,0.0,0.0,0.0,0.0,0.0,0.0,0.0,0.0,0.0,0.0,0.0,0.0,0.0,0.0,0.0,0.0,0.0,0.0,0.0,0.0,0.0,0.0,0.0,0.0,0.0,0.0,0.0,0.0,0.0,0.0,0.0,0.0,0.0,0.0,0.0,0.0,0.0,0.0,0.0,0.0,0.0,0.0,0.0,0.0,0.0,0.0,0.0,0.0,0.0,0.0,0.0,0.0,0.0,0.0,0.0,0.0,0.0,0.0,0.0,0.0,0.0,0.0,0.0,0.0,0.0,0.0,0.0,0.0,0.0,0.0,0.0,0.0,0.0,0.0,0.0,0.0,0.0,0.0,0.0,0.0,0.0,0.0,0.0,0.0,0.0,0.0,0.0,0.0,0.0,0.0,0.0,0.0,0.0,0.0,0.0,0.0,0.0,0.0,0.0,0.0,0.0,0.0,0.0,0.0,0.0,0.0,0.0,0.0,0.0,0.0,0.0,0.0,0.0,0.0,0.0,0.0,0.0,0.0,0.0,0.0,0.0,0.0,0.0,0.0,0.0,0.0,0.0,0.0,0.0,0.0,0.0,0.0,0.0,0.0,0.0,0.0,0.0,0.0,0.0,0.0,0.0,0.0,0.0,0.0,0.0,0.0,0.0,0.0,0.0,0.0,0.0,0.0,0.0,0.0,0.0,0.0,0.0,0.0,0.0,0.0,0.0,0.0,0.0,0.0,0.0,0.0,0.0,0.0,0.0,0.0,0.0,0.0,0.0,0.0,0.0,0.0,0.0,0.0,0.0,0.0,0.0,0.0,0.0,0.0,0.0,0.0,0.0,0.0,0.0,0.0,0.0,0.0,0.0,0.0,0.0,0.0,0.0,0.0,0.0,0.0,0.0,0.0,0.0,0.0,0.0,0.0,0.0,0.0,0.0,0.0,0.0,0.0,0.0,0.0,0.0,0.0,0.0,0.0,0.0,0.0,0.0,0.0,0.0,0.0,0.0,0.0,0.0,0.0,0.0,0.0,0.0,0.0,0.0,0.0,0.0,0.0,0.0,0.0,0.0,0.0,0.0,0.0,0.0,0.0,0.0,0.0,0.0,0.0,0.0,0.0,0.0,0.0,0.0,0.0,0.0,0.0,0.0,0.0,0.0,0.0,0.0,0.0,0.0,0.0,0.0,0.0,0.0,0.0,0.0,0.0,0.0,0.0,0.0,0.0,0.0,0.0,0.0,0.0,0.0,0.0,0.0,0.0,0.0,0.0,0.0,0.0,0.0,0.0,0.0,0.0,0.0,0.0,0.0,0.0,0.0,0.0,0.0,0.0,0.0,0.0,0.0,0.0,0.0,0.0,0.0,0.0,0.0,0.0,0.0,0.0,0.0,0.0,0.0,0.0,0.0,0.0,0.0,0.0,0.0,0.0,0.0,0.0,0.0,0.0,0.0,0.0,0.0,0.0,0.0,0.0,0.0,0.0,2.2364,0.0,0.0,0.0,0.0,0.0,0.0,0.0,0.0,0.0,0.0,0.0,0.0,0.0,0.0,0.0,0.0,0.0,0.0,0.0,0.0,0.0,0.0,0.0,0.0,0.0,0.0,0.0,0.0,0.0,0.0,0.0,0.0,0.0,0.0,0.0,0.0,0.0,0.0,0.0,0.0,0.0,0.0,0.0,0.0,0.0,0.0,0.0,0.0,0.0,0.0,0.0,0.0,0.0,0.0,0.0,0.0,0.0,0.0,0.0,0.0,0.0,0.0,0.0,0.0,0.0,0.0,0.0,0.0,0.0,0.0,0.0,0.0,0.0,0.0,0.0,0.0,0.0,0.0,0.0,0.0,0.0,0.0,0.0,0.0,0.0,0.0,0.0,0.0,0.0,0.0,0.0,0.0,0.0,0.0,0.0,0.0,0.0,0.0,0.0,0.0,0.0,0.0,0.0,0.0,0.0,0.0,0.0,0.0,0.0,0.0,2.603,2.6055,2.5243,2.4279,2.3132,0.0,0.0,0.0,0.0,0.0,0.0,0.0,0.0,0.0,0.0,0.0,0.0,0.0,0.0,0.0,0.0,0.0,0.0,0.0,0.0,0.0,0.0,0.0,0.0,0.0,0.0,0.0,0.0,0.0,0.0,0.0,0.0,0.0,0.0,0.0,0.0,0.0,0.0,0.0,0.0,0.0,0.0,0.0,0.0,0.0,0.0,0.0,0.0,0.0,0.0,0.0,0.0,0.0,0.0,0.0,0.0,0.0,0.0,0.0,0.0,0.0,0.0,0.0,0.0,0.0,0.0,0.0,0.0,0.0,0.0,0.0,0.0,0.0,0.0,0.0,0.0,0.0,0.0,0.0,0.0,0.0,0.0,0.0,0.0,0.0,0.0,0.0,0.0,0.0,0.0,0.0,0.0,0.0,0.0,0.0,0.0,0.0,0.0,0.0,0.0,0.0,0.0,0.0,0.0,0.0,0.0,0.0,0.0,0.0,0.0,0.0,0.0,2.5653,2.4509,2.3067,0.0,0.0,0.0,0.0,0.0,0.0,0.0,0.0,0.0,0.0,0.0,0.0,0.0,0.0,0.0,0.0,0.0,0.0,0.0,0.0,0.0,0.0,0.0,0.0,0.0,0.0,0.0,0.0,0.0,0.0,0.0,0.0,0.0,0.0,0.0,0.0,0.0,0.0,0.0,0.0,0.0,0.0,0.0,0.0,0.0,0.0,0.0,0.0,0.0,0.0,0.0,0.0,0.0,0.0,0.0,0.0,0.0,0.0,0.0,0.0,0.0,0.0,0.0,0.0,0.0,0.0,0.0,0.0,0.0,0.0,0.0,0.0,0.0,0.0,0.0,0.0,0.0,0.0,0.0,0.0,0.0,0.0,0.0,0.0,0.0,0.0,0.0,0.0,0.0,0.0,0.0,0.0,0.0,0.0,0.0,0.0,0.0,0.0,0.0,0.0,0.0,0.0,0.0,0.0,0.0,0.0,0.0,0.0,0.0,0.0,2.5879,2.6474,2.6373,0.0,2.2035,0.0,0.0,0.0,0.0,0.0,0.0,0.0,0.0,0.0,0.0,0.0,0.0,0.0,0.0,0.0,0.0,0.0,0.0,0.0,0.0,0.0,0.0,0.0,0.0,0.0,0.0,0.0,0.0,0.0,0.0,0.0,0.0,0.0,0.0,0.0,0.0,0.0,0.0,0.0,0.0,0.0,0.0,0.0,0.0,0.0,0.0,0.0,0.0,0.0,0.0,0.0,0.0,0.0,0.0,0.0,0.0,0.0,0.0,0.0,0.0,0.0,0.0,0.0,0.0,0.0,0.0,0.0,0.0,0.0,0.0,0.0,0.0,0.0,0.0,0.0,0.0,0.0,0.0,0.0,0.0,0.0,0.0,0.0,0.0,0.0,0.0,0.0,0.0,0.0,0.0,0.0,0.0,0.0,0.0,0.0,0.0,0.0,0.0,0.0,0.0,0.0,0.0,0.0,0.0,0.0,0.0,0.0,0.0,0.0,0.0,0.0,2.6474,2.5416,2.3687,0.0,0.0,0.0,0.0,0.0,0.0,0.0,0.0,0.0,0.0,0.0,0.0,0.0,0.0,0.0,0.0,0.0,0.0,0.0,0.0,0.0,0.0,0.0,0.0,0.0,0.0,0.0,0.0,0.0,0.0,0.0,0.0,0.0,0.0,0.0,0.0,0.0,0.0,0.0,0.0,0.0,0.0,0.0,0.0,0.0,0.0,0.0,0.0,0.0,0.0,0.0,0.0,0.0,0.0,0.0,0.0,0.0,0.0,0.0,0.0,0.0,0.0,0.0,0.0,0.0,0.0,0.0,0.0,0.0,0.0,0.0,0.0,0.0,0.0,0.0,0.0,0.0,0.0,0.0,0.0,0.0,0.0,0.0,0.0,0.0,0.0,0.0,0.0,0.0,0.0,0.0,0.0,0.0,0.0,0.0,0.0,0.0,0.0,0.0,0.0,0.0,0.0,0.0,0.0,0.0,0.0,0.0,0.0,0.0,0.0,2.5561,0.0,2.6253,2.4825,2.2928,2.0639,0.0,0.0,0.0,0.0,0.0,0.0,0.0,0.0,0.0,0.0,0.0,0.0,0.0,0.0,0.0,0.0,0.0,0.0,0.0,0.0,0.0,0.0,0.0,0.0,0.0,0.0,0.0,0.0,0.0,0.0,0.0,0.0,0.0,0.0,0.0,0.0,0.0,0.0,0.0,0.0,0.0,0.0,0.0,0.0,0.0,0.0,0.0,0.0,0.0,0.0,0.0,0.0,0.0,0.0,0.0,0.0,0.0,0.0,0.0,0.0,0.0,0.0,0.0,0.0,0.0,0.0,0.0,0.0,0.0,0.0,0.0,0.0,0.0,0.0,0.0,0.0,0.0,0.0,0.0,0.0,0.0,0.0,0.0,0.0,0.0,0.0,0.0,0.0,0.0,0.0,0.0,0.0,0.0,0.0,0.0,0.0,0.0,0.0,0.0,0.0,0.0,0.0,0.0,0.0,0.0,0.0,0.0,0.0,0.0,2.613,2.573,2.607,2.5189,2.319,0.0,0.0,0.0,0.0,0.0,0.0,0.0,0.0,0.0,0.0,0.0,0.0,0.0,0.0,0.0,0.0,0.0,0.0,0.0,0.0,0.0,0.0,0.0,0.0,0.0,0.0,0.0,0.0,0.0,0.0,0.0,0.0,0.0,0.0,0.0,0.0,0.0,0.0,0.0,0.0,0.0,0.0,0.0,0.0,0.0,0.0,0.0,0.0,0.0,0.0,0.0,0.0,0.0,0.0,0.0,0.0,0.0,0.0,0.0,0.0,0.0,0.0,0.0,0.0,0.0,0.0,0.0,0.0,0.0,0.0,0.0,0.0,0.0,0.0,0.0,0.0,0.0,0.0,0.0,0.0,0.0,0.0,0.0,0.0,0.0,0.0,0.0,0.0,0.0,0.0,0.0,0.0,0.0,0.0,0.0,0.0,0.0,0.0,0.0,0.0,0.0,0.0,0.0,0.0,0.0,0.0,0.0,0.0,0.0,2.4591,2.4917,2.596,2.7638,2.4268,2.2044,0.0,0.0,0.0,0.0,0.0,0.0,0.0,0.0,0.0,0.0,0.0,0.0,0.0,0.0,0.0,0.0,0.0,0.0,0.0,0.0,0.0,0.0,0.0,0.0,0.0,0.0,0.0,0.0,0.0,0.0,0.0,0.0,0.0,0.0,0.0,0.0,0.0,0.0,0.0,0.0,0.0,0.0,0.0,0.0,0.0,0.0,0.0,0.0,0.0,0.0,0.0,0.0,0.0,0.0,0.0,0.0,0.0,0.0,0.0,0.0,0.0,0.0,0.0,0.0,0.0,0.0,0.0,0.0,0.0,0.0,0.0,0.0,0.0,0.0,0.0,0.0,0.0,0.0,0.0,0.0,0.0,0.0,0.0,0.0,0.0,0.0,0.0,0.0,0.0,0.0,0.0,0.0,0.0,0.0,0.0,0.0,0.0,0.0,0.0,0.0,0.0,0.0,0.0,0.0,0.0,0.0,0.0,0.0,0.0,2.4214,0.0,2.6452,0.0,2.4109,2.1822,0.0,0.0,0.0,0.0,0.0,0.0,0.0,0.0,0.0,0.0,0.0,0.0,0.0,0.0,0.0,0.0,0.0,0.0,0.0,0.0,0.0,0.0,0.0,0.0,0.0,0.0,0.0,0.0,0.0,0.0,0.0,0.0,0.0,0.0,0.0,0.0,0.0,0.0,0.0,0.0,0.0,0.0,0.0,0.0,0.0,0.0,0.0,0.0,0.0,0.0,0.0,0.0,0.0,0.0,0.0,0.0,0.0,0.0,0.0,0.0,0.0,0.0,0.0,0.0,0.0,0.0,0.0,0.0,0.0,0.0,0.0,0.0,0.0,0.0,0.0,0.0,0.0,0.0,0.0,0.0,0.0,0.0,0.0,0.0,0.0,0.0,0.0,0.0,0.0,0.0,0.0,0.0,0.0,0.0,0.0,0.0,0.0,0.0,0.0,0.0,0.0,0.0,0.0,0.0,0.0,0.0,0.0,0.0,0.0,2.6373,2.7437,2.7153,2.5396,2.4868,2.2611,0.0,0.0,0.0,0.0,0.0,0.0,0.0,0.0,0.0,0.0,0.0,0.0,0.0,0.0,0.0,0.0,0.0,0.0,0.0,0.0,0.0,0.0,0.0,0.0,0.0,0.0,0.0,0.0,0.0,0.0,0.0,0.0,0.0,0.0,0.0,0.0,0.0,0.0,0.0,0.0,0.0,0.0,0.0,0.0,0.0,0.0,0.0,0.0,0.0,0.0,0.0,0.0,0.0,0.0,0.0,0.0,0.0,0.0,0.0,0.0,0.0,0.0,0.0,0.0,0.0,0.0,0.0,0.0,0.0,0.0,0.0,0.0,0.0,0.0,0.0,0.0,0.0,0.0,0.0,0.0,0.0,0.0,0.0,0.0,0.0,0.0,0.0,0.0,0.0,0.0,0.0,0.0,0.0,0.0,0.0,0.0,0.0,0.0,0.0,0.0,0.0,0.0,0.0,0.0,0.0,0.0,0.0,0.0,0.0,2.5879,2.6608,2.7437,2.8201,2.4613,2.2491,0.0,0.0,0.0,0.0,0.0,0.0,0.0,0.0,0.0,0.0,0.0,0.0,0.0,0.0,0.0,0.0,0.0,0.0,0.0,0.0,0.0,0.0,0.0,0.0,0.0,0.0,0.0,0.0,0.0,0.0,0.0,0.0,0.0,0.0,0.0,0.0,0.0,0.0,0.0,0.0,0.0,0.0,0.0,0.0,0.0,0.0,0.0,0.0,0.0,0.0,0.0,0.0,0.0,0.0,0.0,0.0,0.0,0.0,0.0,0.0,0.0,0.0,0.0,0.0,0.0,0.0,0.0,0.0,0.0,0.0,0.0,0.0,0.0,0.0,0.0,0.0,0.0,0.0,0.0,0.0,0.0,0.0,0.0,0.0,0.0,0.0,0.0,0.0,0.0,0.0,0.0,0.0,0.0,0.0,0.0,0.0,0.0,0.0,0.0,0.0,0.0,0.0,0.0,0.0,0.0,0.0,0.0,0.0,0.0,2.7168,2.7738,2.8492,2.9434,2.5559,2.3358,2.3091,0.0,0.0,0.0,0.0,0.0,0.0,0.0,0.0,0.0,0.0,0.0,0.0,0.0,0.0,0.0,0.0,0.0,0.0,0.0,0.0,0.0,0.0,0.0,0.0,0.0,0.0,0.0,0.0,0.0,0.0,0.0,0.0,0.0,0.0,0.0,0.0,0.0,0.0,0.0,0.0,0.0,0.0,0.0,0.0,0.0,0.0,0.0,0.0,0.0,0.0,0.0,0.0,0.0,0.0,0.0,0.0,0.0,0.0,0.0,0.0,0.0,0.0,0.0,0.0,0.0,0.0,0.0,0.0,0.0,0.0,0.0,0.0,0.0,0.0,0.0,0.0,0.0,0.0,0.0,0.0,0.0,0.0,0.0,0.0,0.0,0.0,0.0,0.0,0.0,0.0,0.0,0.0,0.0,0.0,0.0,0.0,0.0,0.0,0.0,0.0,0.0,0.0,0.0,0.0,0.0,0.0,0.0,0.0,2.988,3.0482,3.0222,2.9074,2.737,2.5029,0.0,0.0,0.0,0.0,0.0,0.0,0.0,0.0,0.0,0.0,0.0,0.0,0.0,0.0,0.0,0.0,0.0,0.0,0.0,0.0,0.0,0.0,0.0,0.0,0.0,0.0,0.0,0.0,0.0,0.0,0.0,0.0,0.0,0.0,0.0,0.0,0.0,0.0,0.0,0.0,0.0,0.0,0.0,0.0,0.0,0.0,0.0,0.0,0.0,0.0,0.0,0.0,0.0,0.0,0.0,0.0,0.0,0.0,0.0,0.0,0.0,0.0,0.0,0.0,0.0,0.0,0.0,0.0,0.0,0.0,0.0,0.0,0.0,0.0,0.0,0.0,0.0,0.0,0.0,0.0,0.0,0.0,0.0,0.0,0.0,0.0,0.0,0.0,0.0,0.0,0.0,0.0,0.0,0.0,0.0,0.0,0.0,0.0,0.0,0.0,0.0,0.0,0.0,0.0,0.0,0.0,0.0,0.0,0.0,3.0954,3.2315,3.224,3.0606,2.7425,2.506,0.0,0.0,0.0,0.0,0.0,0.0,0.0,0.0,0.0,0.0,0.0,0.0,0.0,0.0,0.0,0.0,0.0,0.0,0.0,0.0,0.0,0.0,0.0,0.0,0.0,0.0,0.0,0.0,0.0,0.0,0.0,0.0,0.0,0.0,0.0,0.0,0.0,0.0,0.0,0.0,0.0,0.0,0.0,0.0,0.0,0.0,0.0,0.0,0.0,0.0,0.0,0.0,0.0,0.0,0.0,0.0,0.0,0.0,0.0,0.0,0.0,0.0,0.0,0.0,0.0,0.0,0.0,0.0,0.0,0.0,0.0,0.0,0.0,0.0,0.0,0.0,0.0,0.0,0.0,0.0,0.0,0.0,0.0,0.0,0.0,0.0,0.0,0.0,0.0,0.0,0.0,0.0,0.0,0.0,0.0,0.0,0.0,0.0,0.0,0.0,0.0,0.0,0.0,0.0,0.0,0.0,0.0,0.0,2.9947,3.1669,3.2242,3.2106,3.1135,2.8362,2.5943,0.0,0.0,0.0,0.0,0.0,0.0,0.0,0.0,0.0,0.0,0.0,0.0,0.0,0.0,0.0,0.0,0.0,0.0,0.0,0.0,0.0,0.0,0.0,0.0,0.0,0.0,0.0,0.0,0.0,0.0,0.0,0.0,0.0,0.0,0.0,0.0,0.0,0.0,0.0,0.0,0.0,0.0,0.0,0.0,0.0,0.0,0.0,0.0,0.0,0.0,0.0,0.0,0.0,0.0,0.0,0.0,0.0,0.0,0.0,0.0,0.0,0.0,0.0,0.0,0.0,0.0,0.0,0.0,0.0,0.0,0.0,0.0,0.0,0.0,0.0,0.0,0.0,0.0,0.0,0.0,0.0,0.0,0.0,0.0,0.0,0.0,0.0,0.0,0.0,0.0,0.0,0.0,0.0,0.0,0.0,0.0,0.0,0.0,0.0,0.0,0.0,0.0,0.0,0.0,0.0,0.0,0.0,0.0,3.0317,3.1919,3.1241,3.0866,3.0801,2.9419,2.7018,0.0,0.0,0.0,0.0,0.0,0.0,0.0,0.0,0.0,0.0,0.0,0.0,0.0,0.0,0.0,0.0,0.0,0.0,0.0,0.0,0.0,0.0,0.0,0.0,0.0,0.0,0.0,0.0,0.0,0.0,0.0,0.0,0.0,0.0,0.0,0.0,0.0,0.0,0.0,0.0,0.0,0.0,0.0,0.0,0.0,0.0,0.0,0.0,0.0,0.0,0.0,0.0,0.0,0.0,0.0,0.0,0.0,0.0,0.0,0.0,0.0,0.0,0.0,0.0,0.0,0.0,0.0,0.0,0.0,0.0,0.0,0.0,0.0,0.0,0.0,0.0,0.0,0.0,0.0,0.0,0.0,0.0,0.0,0.0,0.0,0.0,0.0,0.0,0.0,0.0,0.0,0.0,0.0,0.0,0.0,0.0,0.0,0.0,0.0,0.0,0.0,0.0,0.0,0.0,0.0,0.0,0.0,0.0,3.0762,3.1005,3.1618,3.1315,2.9992,2.7946,2.5708,0.0,0.0,0.0,0.0,0.0,0.0,0.0,0.0,0.0,0.0,0.0,0.0,0.0,0.0,0.0,0.0,0.0,0.0,0.0,0.0,0.0,0.0,0.0,0.0,0.0,0.0,0.0,0.0,0.0,0.0,0.0,0.0,0.0,0.0,0.0,0.0,0.0,0.0,0.0,0.0,0.0,0.0,0.0,0.0,0.0,0.0,0.0,0.0,2.1035,0.0,0.0,0.0,0.0,0.0,0.0,0.0,0.0,0.0,0.0,0.0,0.0,0.0,0.0,0.0,0.0,0.0,0.0,0.0,0.0,0.0,0.0,0.0,0.0,0.0,0.0,0.0,0.0,0.0,0.0,0.0,0.0,0.0,0.0,0.0,0.0,0.0,0.0,0.0,0.0,0.0,0.0,0.0,0.0,0.0,0.0,0.0,0.0,0.0,0.0,0.0,0.0,0.0,0.0,0.0,0.0,0.0,0.0,0.0,3.0641,3.1475,3.0991,3.0359,2.964,2.751,2.5427,0.0,0.0,0.0,0.0,0.0,0.0,0.0,0.0,0.0,0.0,0.0,0.0,0.0,0.0,0.0,0.0,0.0,0.0,0.0,0.0,0.0,0.0,0.0,0.0,0.0,0.0,0.0,0.0,0.0,0.0,0.0,0.0,0.0,0.0,0.0,0.0,0.0,0.0,0.0,0.0,0.0,0.0,0.0,0.0,0.0,0.0,0.0,0.0,0.0,0.0,0.0,0.0,0.0,0.0,0.0,0.0,0.0,0.0,0.0,0.0,0.0,0.0,0.0,0.0,0.0,0.0,0.0,0.0,0.0,0.0,0.0,0.0,0.0,0.0,0.0,0.0,0.0,0.0,0.0,0.0,0.0,0.0,0.0,0.0,0.0,0.0,0.0,0.0,0.0,0.0,0.0,0.0,0.0,0.0,0.0,0.0,0.0,0.0,0.0,0.0,0.0,0.0,0.0,0.0,0.0,0.0,0.0,2.9661,3.0265,3.1812,2.9962,2.9079,2.945,2.7527,2.5688,2.3968,0.0,0.0,0.0,0.0,0.0,0.0,0.0,0.0,0.0,0.0,0.0,0.0,0.0,0.0,0.0,0.0,0.0,0.0,0.0,0.0,0.0,0.0,0.0,0.0,0.0,0.0,0.0,0.0,0.0,0.0,0.0,0.0,0.0,0.0,0.0,0.0,0.0,0.0,2.0234,2.0996,0.0,0.0,0.0,0.0,0.0,0.0,0.0,0.0,2.2324,0.0,0.0,0.0,0.0,0.0,0.0,0.0,0.0,0.0,0.0,0.0,0.0,0.0,0.0,0.0,0.0,0.0,0.0,0.0,0.0,0.0,0.0,0.0,0.0,0.0,0.0,0.0,0.0,0.0,0.0,0.0,0.0,0.0,0.0,0.0,0.0,0.0,0.0,0.0,0.0,0.0,0.0,0.0,0.0,0.0,0.0,0.0,0.0,0.0,0.0,0.0,0.0,0.0,0.0,0.0,0.0,2.8168,2.9586,3.0065,2.9507,2.9112,2.878,2.8509,2.7492,2.6094,2.4375,0.0,0.0,0.0,0.0,0.0,0.0,0.0,0.0,0.0,0.0,0.0,0.0,0.0,0.0,0.0,0.0,0.0,0.0,0.0,0.0,0.0,0.0,0.0,0.0,0.0,0.0,0.0,0.0,0.0,0.0,0.0,0.0,0.0,0.0,0.0,0.0,0.0,0.0,0.0,2.2498,2.283,0.0,0.0,0.0,0.0,0.0,0.0,0.0,0.0,2.2617,0.0,0.0,0.0,0.0,0.0,0.0,0.0,0.0,0.0,0.0,0.0,0.0,0.0,0.0,0.0,0.0,0.0,0.0,0.0,0.0,0.0,0.0,0.0,0.0,0.0,0.0,0.0,0.0,0.0,0.0,0.0,0.0,0.0,0.0,0.0,0.0,0.0,0.0,0.0,0.0,0.0,0.0,0.0,0.0,0.0,0.0,0.0,0.0,0.0,0.0,0.0,0.0,0.0,0.0,0.0,2.9302,2.9812,3.0178,3.0357,2.9652,2.8945,2.8281,2.7006,2.5718,0.0,0.0,0.0,0.0,0.0,0.0,0.0,0.0,0.0,0.0,0.0,0.0,0.0,0.0,0.0,0.0,0.0,0.0,0.0,0.0,0.0,0.0,0.0,0.0,0.0,0.0,0.0,0.0,0.0,0.0,0.0,0.0,0.0,0.0,0.0,0.0,0.0,0.0,0.0,0.0,2.3203,2.3532,2.3789,0.0,0.0,0.0,0.0,0.0,0.0,2.2988,2.2988,0.0,0.0,0.0,0.0,0.0,0.0,0.0,0.0,0.0,0.0,0.0,0.0,0.0,0.0,0.0,0.0,0.0,0.0,0.0,0.0,0.0,0.0,0.0,0.0,0.0,0.0,0.0,0.0,0.0,0.0,0.0,0.0,0.0,0.0,0.0,0.0,0.0,0.0,0.0,0.0,0.0,0.0,0.0,0.0,0.0,0.0,0.0,0.0,0.0,0.0,0.0,0.0,0.0,0.0,0.0,2.9981,2.9913,3.0372,3.1374,3.0258,2.9227,2.8418,2.6811,2.5484,0.0,0.0,0.0,0.0,0.0,0.0,0.0,0.0,0.0,0.0,0.0,0.0,0.0,0.0,0.0,0.0,0.0,0.0,0.0,0.0,0.0,0.0,0.0,0.0,0.0,0.0,0.0,0.0,0.0,0.0,0.0,0.0,0.0,0.0,0.0,0.0,0.0,0.0,0.0,0.0,0.0,2.4375,2.4531,2.4258,0.0,0.0,0.0,0.0,2.3672,2.3809,0.0,0.0,0.0,0.0,0.0,0.0,0.0,0.0,0.0,0.0,0.0,0.0,0.0,0.0,0.0,0.0,0.0,0.0,0.0,0.0,0.0,0.0,0.0,0.0,0.0,0.0,0.0,0.0,0.0,0.0,0.0,0.0,0.0,0.0,0.0,0.0,0.0,0.0,0.0,0.0,0.0,0.0,0.0,0.0,0.0,0.0,0.0,0.0,0.0,0.0,0.0,0.0,0.0,0.0,0.0,0.0,2.7491,2.9448,3.0465,3.037,2.9858,2.9336,2.882,2.7532,2.6069,0.0,0.0,0.0,0.0,0.0,0.0,0.0,0.0,0.0,0.0,0.0,0.0,0.0,0.0,0.0,0.0,0.0,0.0,0.0,0.0,0.0,0.0,0.0,0.0,0.0,0.0,0.0,0.0,0.0,0.0,0.0,0.0,0.0,0.0,0.0,0.0,0.0,0.0,0.0,0.0,0.0,2.582,2.5121,2.4965,2.5019,0.0,0.0,2.5382,2.5401,2.605,0.0,0.0,0.0,0.0,0.0,0.0,0.0,0.0,0.0,0.0,0.0,0.0,0.0,0.0,0.0,0.0,0.0,0.0,0.0,0.0,0.0,0.0,0.0,0.0,0.0,0.0,0.0,0.0,0.0,0.0,0.0,0.0,0.0,0.0,0.0,0.0,0.0,0.0,0.0,0.0,0.0,0.0,0.0,0.0,0.0,0.0,0.0,0.0,0.0,0.0,0.0,0.0,0.0,0.0,0.0,2.6243,2.7043,2.9237,3.031,3.0204,3.0048,2.9609,2.8918,2.7461,2.584,0.0,0.0,0.0,0.0,0.0,0.0,0.0,0.0,0.0,0.0,0.0,0.0,0.0,0.0,0.0,0.0,0.0,0.0,0.0,0.0,0.0,0.0,0.0,0.0,0.0,0.0,0.0,0.0,0.0,0.0,0.0,0.0,0.0,0.0,0.0,0.0,0.0,0.0,0.0,0.0,0.0,0.0,2.5845,2.6016,0.0,0.0,0.0,2.642,2.644,0.0,0.0,0.0,0.0,0.0,0.0,0.0,0.0,0.0,0.0,0.0,0.0,0.0,0.0,0.0,0.0,0.0,0.0,0.0,0.0,0.0,0.0,0.0,0.0,0.0,0.0,0.0,0.0,0.0,0.0,0.0,0.0,0.0,0.0,0.0,0.0,0.0,0.0,0.0,0.0,0.0,0.0,0.0,0.0,0.0,0.0,0.0,0.0,0.0,0.0,0.0,0.0,0.0,0.0,0.0,0.0,0.0,2.7344,2.9336,3.043,3.0508,3.0312,2.9844,2.9082,2.7539,0.0,0.0,0.0,0.0,0.0,0.0,0.0,0.0,0.0,0.0,0.0,0.0,0.0,0.0,0.0,0.0,0.0,0.0,0.0,0.0,0.0,0.0,0.0,0.0,0.0,0.0,0.0,0.0,0.0,0.0,0.0,0.0,0.0,0.0,0.0,0.0,0.0,0.0,0.0,0.0,0.0,0.0,2.6186,2.6666,2.707,2.7402,0.0,0.0,2.7578,2.7363,2.7246,2.6724,0.0,0.0,0.0,0.0,0.0,0.0,0.0,0.0,0.0,0.0,0.0,0.0,0.0,0.0,0.0,0.0,0.0,0.0,0.0,0.0,0.0,0.0,0.0,0.0,0.0,0.0,0.0,0.0,0.0,0.0,0.0,0.0,0.0,0.0,0.0,0.0,0.0,0.0,0.0,0.0,0.0,0.0,0.0,0.0,0.0,0.0,0.0,0.0,0.0,0.0,0.0,0.0,0.0,0.0,0.0,2.8203,2.9941,3.1035,3.1357,3.0625,2.998,2.9559,2.8288,2.6607,0.0,0.0,0.0,0.0,0.0,0.0,0.0,0.0,0.0,0.0,0.0,0.0,0.0,0.0,0.0,0.0,0.0,0.0,0.0,0.0,0.0,0.0,0.0,0.0,0.0,0.0,0.0,0.0,0.0,0.0,0.0,0.0,0.0,0.0,0.0,0.0,0.0,0.0,0.0,0.0,0.0,2.709,2.7545,2.7949,2.8496,0.0,0.0,2.9149,2.8367,2.8875,2.8425,2.5551,0.0,0.0,0.0,0.0,0.0,0.0,0.0,0.0,0.0,0.0,0.0,0.0,0.0,0.0,0.0,0.0,0.0,0.0,0.0,0.0,0.0,0.0,0.0,0.0,0.0,0.0,0.0,0.0,0.0,0.0,0.0,0.0,0.0,0.0,0.0,0.0,0.0,0.0,0.0,0.0,0.0,0.0,0.0,0.0,0.0,0.0,0.0,0.0,0.0,0.0,0.0,0.0,0.0,2.7109,2.8327,3.0556,3.1621,3.1504,3.1172,3.0664,2.998,2.8965,2.733,0.0,0.0,0.0,0.0,0.0,0.0,0.0,0.0,0.0,0.0,0.0,0.0,0.0,0.0,0.0,0.0,0.0,0.0,0.0,0.0,0.0,0.0,0.0,0.0,0.0,0.0,0.0,0.0,2.0274,2.0723,2.1329,0.0,0.0,0.0,0.0,0.0,0.0,0.0,0.0,0.0,0.0,2.7682,2.834,2.8836,0.0,0.0,2.9598,2.9579,2.9473,2.8894,2.8034,2.6881,2.5918,0.0,0.0,0.0,0.0,0.0,0.0,0.0,0.0,0.0,0.0,0.0,0.0,0.0,0.0,0.0,0.0,0.0,0.0,0.0,0.0,0.0,0.0,0.0,0.0,0.0,0.0,0.0,0.0,0.0,0.0,0.0,0.0,0.0,0.0,0.0,0.0,0.0,0.0,0.0,0.0,0.0,0.0,0.0,0.0,0.0,0.0,0.0,0.0,0.0,0.0,0.0,0.0,2.7441,2.8672,3.0859,3.1953,3.1864,3.166,3.1172,3.041,2.9434,2.7832,0.0,0.0,0.0,0.0,0.0,0.0,0.0,0.0,0.0,0.0,0.0,0.0,0.0,0.0,0.0,0.0,0.0,0.0,0.0,0.0,0.0,0.0,0.0,0.0,0.0,0.0,0.0,0.0,2.1424,2.1718,2.2031,0.0,0.0,0.0,0.0,0.0,0.0,0.0,0.0,0.0,0.0,2.8327,2.9004,2.9403,2.9637,2.9774,2.9676,2.9657,2.9785,2.9051,2.8191,2.7428,0.0,0.0,0.0,0.0,0.0,0.0,0.0,0.0,0.0,0.0,0.0,0.0,0.0,0.0,0.0,0.0,0.0,0.0,0.0,0.0,0.0,0.0,0.0,0.0,0.0,0.0,0.0,0.0,0.0,0.0,2.2059,0.0,0.0,0.0,0.0,0.0,0.0,0.0,0.0,0.0,0.0,0.0,0.0,0.0,0.0,0.0,0.0,0.0,0.0,0.0,0.0,0.0,0.0,0.0,2.954,3.0879,3.1953,3.2695,3.1953,3.1309,3.0859,2.9609,2.8098,2.6387,0.0,0.0,0.0,0.0,0.0,0.0,0.0,0.0,0.0,0.0,0.0,0.0,0.0,0.0,0.0,0.0,0.0,0.0,0.0,0.0,0.0,0.0,0.0,0.0,0.0,0.0,2.1229,2.1971,2.2459,0.0,0.0,0.0,0.0,0.0,0.0,0.0,0.0,0.0,0.0,2.8379,2.9062,2.954,2.9618,2.9794,3.0137,2.9872,2.9481,2.9101,2.9609,2.9297,0.0,0.0,0.0,0.0,0.0,0.0,0.0,0.0,0.0,0.0,0.0,0.0,0.0,0.0,0.0,0.0,0.0,0.0,0.0,0.0,0.0,0.0,0.0,0.0,0.0,0.0,0.0,2.5049,2.3268,0.0,0.0,0.0,0.0,0.0,0.0,0.0,0.0,0.0,0.0,0.0,2.538,2.6542,0.0,0.0,0.0,0.0,0.0,0.0,0.0,0.0,0.0,0.0,0.0,0.0,2.8308,2.9618,3.1455,3.2519,3.2773,3.2246,3.1738,3.1309,3.0312,2.8574,2.601,0.0,0.0,0.0,0.0,0.0,0.0,0.0,0.0,0.0,0.0,0.0,0.0,0.0,0.0,0.0,0.0,0.0,0.0,0.0,0.0,0.0,0.0,0.0,0.0,0.0,2.2166,0.0,0.0,0.0,0.0,0.0,0.0,0.0,0.0,0.0,0.0,0.0,2.7682,2.8816,2.9414,2.9941,3.0371,3.0703,3.082,0.0,0.0,0.0,0.0,0.0,0.0,0.0,0.0,0.0,0.0,0.0,0.0,0.0,0.0,3.1641,2.8809,2.7832,2.748,2.7637,0.0,0.0,0.0,0.0,0.0,0.0,0.0,0.0,0.0,0.0,0.0,0.0,0.0,0.0,0.0,0.0,2.3337,0.0,0.0,0.0,0.0,0.0,0.0,0.0,0.0,2.6654,2.7415,2.7734,2.8484,2.8555,0.0,2.8144,2.6992,0.0,0.0,0.0,0.0,0.0,0.0,0.0,0.0,2.8894,3.0067,3.1699,3.2715,3.2969,3.2305,3.1875,3.1719,3.0449,2.8691,2.6484,2.5312,2.4066,0.0,0.0,0.0,0.0,0.0,0.0,0.0,0.0,0.0,0.0,0.0,0.0,0.0,0.0,0.0,0.0,0.0,0.0,0.0,0.0,0.0,0.0,0.0,2.3066,0.0,0.0,0.0,0.0,0.0,0.0,0.0,0.0,0.0,2.7129,2.8093,2.9188,3.0117,3.0605,3.0937,3.1094,0.0,0.0,0.0,0.0,0.0,0.0,0.0,3.0312,3.0996,3.0664,3.0469,3.1016,3.2539,3.3594,3.3301,0.0,0.0,3.1094,3.0156,2.9902,3.0039,3.0625,3.1045,3.0742,3.1719,3.25,0.0,0.0,0.0,0.0,0.0,0.0,0.0,0.0,2.5421,2.5397,0.0,2.4746,0.0,0.0,0.0,0.0,0.0,2.5732,0.0,0.0,2.9219,3.0243,3.0234,3.0684,3.0684,3.0332,3.1074,3.0605,2.8898,2.6928,0.0,0.0,0.0,0.0,0.0,0.0,2.9199,3.0888,3.1807,3.2628,3.3308,3.2177,3.1738,3.2061,3.0078,2.8594,2.7761,2.69,2.5669,2.3945,2.3415,0.0,0.0,0.0,0.0,0.0,0.0,0.0,0.0,0.0,0.0,0.0,0.0,0.0,0.0,0.0,0.0,0.0,0.0,0.0,0.0,2.3552,0.0,0.0,0.0,0.0,0.0,0.0,0.0,0.0,0.0,0.0,2.8691,2.9902,3.1094,3.1504,0.0,0.0,0.0,0.0,3.1758,3.2198,3.1894,3.1797,3.2237,3.2871,3.2938,3.1825,0.0,0.0,3.3086,3.4336,3.5176,3.4368,3.5234,3.5747,3.4883,3.3652,3.2988,3.3308,3.3164,3.2949,3.2988,3.3906,3.4629,3.2838,0.0,0.0,0.0,0.0,3.2078,3.152,3.0486,2.9864,2.891,2.7773,2.7051,0.0,0.0,0.0,0.0,0.0,0.0,2.8594,2.9316,3.0254,3.0859,3.1152,3.1601,3.1768,3.1651,3.1905,3.1749,3.126,3.0654,2.8894,2.6118,0.0,0.0,0.0,0.0,3.0215,3.1309,3.2168,3.2871,3.3367,3.248,3.1768,3.1269,3.0332,2.9434,2.8594,2.8027,2.709,2.5727,2.4922,0.0,0.0,0.0,0.0,0.0,0.0,0.0,0.0,0.0,0.0,0.0,0.0,0.0,0.0,0.0,0.0,0.0,0.0,0.0,2.3962,2.4453,2.4984,0.0,0.0,0.0,0.0,0.0,0.0,0.0,0.0,0.0,3.1953,3.2109,3.2285,0.0,0.0,3.291,3.248,3.2949,3.341,3.3547,0.0,0.0,0.0,3.3652,3.3581,3.418,3.5215,3.5971,3.5996,3.6426,3.666,3.6387,3.668,3.6836,3.6582,3.5781,3.5162,3.5221,3.541,3.558,3.5639,3.6113,3.6504,3.4093,3.3807,3.3236,3.3012,3.3083,3.3228,3.3008,3.2435,3.1763,3.0966,3.0156,2.9344,2.8398,2.7474,2.7422,0.0,0.0,0.0,3.041,3.125,3.1875,3.2383,3.2793,3.3047,3.3164,3.3215,3.3164,3.3215,3.3195,3.3215,3.1768,2.9043,0.0,0.0,2.884,3.0254,3.1406,3.2246,3.2617,3.2988,3.3367,3.2628,3.1866,3.1152,3.0527,2.9941,2.9434,2.9023,2.8308,2.7213,2.6509,2.5571,0.0,0.0,0.0,0.0,0.0,0.0,0.0,0.0,0.0,0.0,0.0,2.1952,0.0,0.0,0.0,0.0,2.3649,2.4742,2.5625,2.625,0.0,0.0,0.0,0.0,0.0,0.0,0.0,3.2118,3.3476,3.4355,3.442,3.4531,3.4316,3.3652,3.3769,3.3848,3.3594,0.0,3.4453,3.4785,3.5059,3.5332,3.5664,3.5293,3.5234,3.6016,3.6562,3.7051,3.7461,3.7676,3.7851,3.8027,3.8203,3.832,3.832,3.7891,3.7285,3.6645,3.6875,3.7109,3.6988,3.7383,3.7754,3.4805,3.4746,3.4231,3.3564,3.2909,3.3264,3.3013,3.2355,3.1914,3.1953,3.2276,3.1406,3.0801,3.0351,2.9542,0.0,3.0547,3.1348,3.2148,3.2969,3.3782,3.4349,3.4687,3.4687,3.4707,3.4746,3.4785,3.4805,3.4805,3.4883,3.4277,3.3066,3.2305,3.1836,3.166,3.212,3.2746,3.3496,3.3105,3.3066,3.3359,3.2648,3.1992,3.1523,3.0723,3.0273,3.0195,2.9852,2.9266,2.8464,2.7995,2.6998,2.5419,0.0,0.0,0.0,0.0,0.0,0.0,0.0,0.0,0.0,0.0,0.0,0.0,0.0,0.0,0.0,2.5801,0.0,2.7819,2.8555,0.0,0.0,0.0,3.0459,3.0626,3.2411,3.3601,3.364,0.0,0.0,3.6172,0.0,3.6719,3.5117,3.4902,3.4902,3.4863,3.4902,3.5195,3.5996,3.6113,3.6387,3.7012,3.7148,3.7187,3.7324,3.7422,3.7637,3.7988,3.8398,3.8809,3.9141,3.959,3.9844,3.9863,3.9726,3.9414,3.7812,3.7832,3.7969,3.7715,3.8184,3.8574,3.5703,3.5639,3.5201,3.472,3.4215,3.4314,3.4273,3.4095,3.3652,3.3516,3.3606,3.2715,3.2285,3.2168,3.1973,3.2374,3.3195,3.341,3.3782,3.4238,3.4453,3.4609,3.4687,3.4687,3.4883,3.5234,3.5547,3.5703,3.5742,3.6367,3.6191,3.5312,3.5371,3.4453,3.2598,3.3242,3.3899,3.4394,3.3984,3.3528,3.2969,3.2754,3.2285,3.1513,3.1309,3.0879,3.0234,3.0098,2.9805,2.9305,2.8582,2.7812,2.7096,2.5273,0.0,0.0,0.0,0.0,0.0,0.0,0.0,0.0,0.0,2.5215,2.3186,0.0,2.5845,0.0,2.7383,2.8672,2.9512,2.9785,0.0,0.0,3.2246,3.2832,3.442,3.5098,3.5527,3.5893,3.6641,3.7109,3.7012,3.7168,3.7148,3.6738,3.668,3.6562,3.6304,3.6484,3.6738,3.6934,3.6973,3.707,3.7324,3.7578,3.791,3.8259,3.8535,3.8789,3.8887,3.9277,3.9629,3.9726,3.9805,3.9883,3.9922,3.9883,3.9785,3.9375,3.9355,3.9394,3.9297,3.9434,3.9531,3.6582,3.6543,3.6133,3.5801,3.5547,3.5176,3.5117,3.5254,3.4844,3.4681,3.4609,3.3945,3.3535,3.3379,3.3359,3.3613,3.4095,3.429,3.459,3.5019,3.5195,3.5293,3.5293,3.5293,3.5527,3.5957,3.5996,3.6079,3.6309,3.6601,3.6582,3.6309,3.6348,3.5762,3.4622,3.4609,3.4766,3.5,3.4603,3.4023,3.3379,3.3184,3.2578,3.1533,3.1494,3.0986,2.9961,3.0126,2.9852,2.907,2.8555,2.8132,2.7702,2.6348,2.5445,0.0,0.0,0.0,0.0,0.0,0.0,0.0,0.0,0.0,0.0,0.0,2.7461,0.0,2.9648,0.0,3.1866,3.2441,3.3281,3.442,3.4883,3.5547,3.6738,3.7207,3.7598,3.8047,3.832,3.8457,3.8457,3.8457,3.8457,3.8457,3.8457,3.8086,3.7203,3.7168,3.7363,3.7539,3.7734,3.8027,3.8379,3.8652,3.8887,3.9121,3.9355,3.9512,3.9531,3.9883,4.0176,4.0176,4.0332,4.0507,4.0469,4.0507,4.0507,4.0469,4.0469,4.0312,3.998,3.9883,3.9883,3.75,3.75,3.7125,3.691,3.6777,3.5976,3.5781,3.5996,3.5644,3.5449,3.5371,3.4961,3.459,3.4238,3.4212,3.4251,3.4368,3.4648,3.5039,3.5488,3.5859,3.6035,3.6035,3.6035,3.625,3.6675,3.6289,3.6309,3.6695,3.6387,3.6406,3.6695,3.6348,3.6348,3.6656,3.5879,3.5449,3.5391,3.498,3.4622,3.4192,3.373,3.2879,3.1758,3.1552,3.0918,2.9755,3.0059,2.9785,2.8711,2.8672,2.8542,2.8132,2.7617,2.7285,0.0,2.7201,0.0,0.0,0.0,0.0,0.0,0.0,0.0,0.0,2.9141,2.957,3.0684,3.2305,3.3633,3.4492,3.5605,3.6274,3.6411,3.7386,3.8069,3.8147,3.8848,3.9453,3.9844,3.9883,3.9883,3.9824,3.9883,3.9883,3.9785,3.9746,3.9238,3.8008,3.7734,3.7891,3.8144,3.8496,3.8984,3.957,3.9805,3.9824,3.9863,3.9922,3.998,3.9961,4.0332,4.0605,4.0644,4.0879,4.1191,4.1269,4.123,4.123,4.1289,4.1308,4.0996,4.0332,4.0137,4.0078,3.8535,3.8809,3.8415,3.8008,3.7656,3.7148,3.6582,3.5982,3.5903,3.5703,3.5391,3.5293,3.5215,3.5117,3.4746,3.4961,3.5625,3.5371,3.5488,3.5884,3.5976,3.6035,3.6035,3.6035,3.625,3.6675,3.6582,3.6636,3.6734,3.7266,3.7266,3.6734,3.6914,3.6934,3.6695,0.0,0.0,0.0,3.5312,3.5039,3.459,3.416,3.3496,3.2578,3.1845,0.0,3.0156,3.0537,3.0664,3.0458,3.0723,0.0,0.0,0.0,0.0,0.0,0.0,0.0,0.0,0.0,0.0,0.0,3.1836,3.1191,3.0644,3.2324,3.3594,3.3867,3.5117,3.6269,3.7109,3.7367,3.7851,3.8516,3.8809,3.9101,3.9473,3.9668,3.9805,3.9883,3.9902,3.9902,3.9941,3.9883,3.9922,3.998,3.9902,3.9766,3.9492,3.9355,3.9414,3.9512,3.9551,3.9687,3.9863,3.9922,3.998,3.9922,4.0195,4.0371,4.0411,4.0762,4.1055,4.1074,4.1133,4.1308,4.1601,4.1406,4.1406,4.2051,4.1914,4.1523,4.1035,4.0937,4.1035,3.9141,0.0,3.8884,3.8437,0.0,3.7793,3.7246,3.6621,3.6157,3.5898,3.5703,3.5703,3.5586,3.5391,3.5137,3.5293,3.5703,3.5488,3.5625,3.5982,3.6035,3.6035,3.6035,3.623,3.6562,3.6973,3.6812,3.6875,3.7266,3.7305,3.7402,3.7653,3.7617,3.75,3.7266,3.6445,3.5884,3.5703,3.5703,3.5488,3.5059,3.4844,3.4101,3.2851,0.0,0.0,0.0,0.0,0.0,0.0,0.0,0.0,0.0,0.0,0.0,3.1162,3.1543,3.1777,3.1836,3.3008,3.4023,3.4616,3.5293,3.4922,3.3262,3.5059,3.6387,3.6601,3.7457,3.8184,3.8809,3.8887,3.9062,3.9492,3.9726,4.0039,4.043,4.0566,4.0605,4.0781,4.0644,4.0605,4.0801,4.084,4.0937,4.1113,4.1152,4.1113,4.1055,4.041,3.9961,4.0176,4.0195,4.0293,4.0469,4.0527,4.0527,4.0605,4.0703,4.0918,4.1113,4.1328,4.1543,4.1738,4.1797,4.1875,4.2031,4.1933,4.1933,4.2285,4.2266,4.207,4.1836,4.1797,4.1836,3.9726,3.9941,3.9219,3.8865,3.8652,3.8223,3.7754,3.7246,0.0,0.0,0.0,3.6133,3.5898,3.5527,3.5586,3.5625,3.5625,3.5703,3.5918,3.623,3.625,3.6216,3.6235,3.6656,3.7047,3.7383,3.7051,3.7285,3.7952,3.7457,3.7653,3.8513,3.8281,3.8047,3.7754,3.6699,3.606,3.6035,3.6035,3.5864,3.5625,3.5547,3.4785,3.3281,3.3437,3.2812,3.1309,3.1621,3.1562,3.0937,3.1035,3.1445,3.2118,3.2235,3.291,3.4231,3.4844,3.5156,3.5176,3.6387,3.6992,3.6719,3.8144,3.8184,3.6211,3.7422,3.8457,3.8923,3.9238,3.9648,4.0176,4.0234,4.0273,4.0332,4.0644,4.1016,4.1367,4.1328,4.1406,4.1777,4.1523,4.1445,4.1816,4.1875,4.2031,4.2284,4.2245,4.2382,4.2226,4.1269,4.0605,4.0879,4.0976,4.1016,4.1289,4.1387,4.1406,4.1387,4.1445,4.1523,4.1797,4.1914,4.2051,4.2245,4.2382,4.2401,4.246,4.2401,4.246,4.2577,4.2557,4.2578,4.2596,4.2616,4.2596,4.0703,4.0391,4.0255,3.9767,3.9082,3.8652,3.8027,3.7305,3.7168,3.6914,3.6616,3.6616,3.6328,3.5923,3.6362,3.6519,3.6558,3.6855,3.707,0.0,3.7129,3.7109,3.7129,3.7187,3.7422,3.7812,3.7738,3.8008,3.8493,3.873,3.8769,3.8633,3.8867,3.8476,3.7422,3.6855,3.6406,3.6001,3.6035,3.6172,3.6499,3.6133,3.5664,3.5039,3.4355,3.3535,3.2578,3.2918,3.3281,3.3567,3.4258,3.4726,3.4844,3.5176,3.5299,3.5273,3.6289,3.6934,3.6953,3.8125,3.9004,3.9355,4.0292,4.0195,3.8848,3.9258,3.9785,4.0195,4.0312,4.0626,4.1406,4.1504,4.1601,4.1953,4.205,4.2148,4.2207,4.1914,4.1875,4.2245,4.1973,4.1875,4.2246,4.2304,4.2363,4.2382,4.2518,4.2421,4.2421,4.2206,4.205,4.2109,4.2109,4.2187,4.2148,4.2226,4.2168,4.2206,4.2187,4.2187,4.2324,4.2344,4.2343,4.2401,4.2479,4.2577,4.2891,4.2676,4.2793,4.3242,4.3183,4.3086,4.3359,4.3457,4.3379,4.084,4.084,4.0625,4.0255,3.9863,3.9199,3.8691,3.832,3.8086,3.7653,3.7066,3.7012,3.6894,3.6738,3.6914,3.7012,3.7031,3.7207,3.7305,3.7305,3.7305,3.7422,3.7656,3.7907,3.8223,3.8594,3.8613,3.8848,3.9258,3.9238,3.9336,3.959,3.9355,3.8906,3.832,3.7461,3.7031,3.7016,3.6601,3.6465,3.6695,3.6699,3.6504,3.6128,3.5717,3.5195,3.457,3.4694,3.5039,3.5502,3.5859,3.6289,3.6703,3.6918,3.7133,3.7461,3.8008,3.8535,3.9023,4.0019,4.0801,4.125,4.1621,4.1621,4.0996,4.1152,4.125,4.123,4.1367,4.166,4.205,4.2129,4.2226,4.2362,4.2382,4.2479,4.2695,4.2402,4.2324,4.2656,4.2402,4.2305,4.2734,4.2773,4.2891,4.3047,4.3125,4.3105,4.3105,4.3065,4.2889,4.2499,4.2382,4.2382,4.2382,4.2382,4.2382,4.2382,4.2382,4.2479,4.2695,4.2773,4.2871,4.3066,4.3105,4.3183,4.3398,4.3281,4.334,4.3496,4.3574,4.3535,4.3672,4.3887,4.3906,4.0801,4.0996,4.0664,4.0469,4.0312,3.9648,3.9355,3.9316,3.9004,3.8437,3.7773,3.7539,3.7383,3.7305,3.7383,3.7441,3.7461,3.7539,3.7598,3.7598,3.7695,3.791,3.8186,3.8672,3.9082,3.9453,3.9512,3.9746,4.0098,3.9824,3.998,4.0508,3.9785,3.9297,3.918,3.8027,3.7598,3.7835,3.7383,3.7183,3.7281,3.7559,3.7578,3.7301,3.7281,3.7031,3.6641,3.6601,3.6797,3.7207,3.7281,3.7598,3.8301,3.8421,3.8809,3.9434,3.9687,4.0117,4.0898,4.1562,4.203,4.2362,4.2479,4.2499,4.2401,4.2577,4.2441,4.1953,4.2089,4.2343,4.2382,4.2519,4.2617,4.2655,4.2674,4.2871,4.3125,4.2832,4.2734,4.3086,4.2851,4.2734,4.3105,4.3223,4.332,4.3594,4.3691,4.3691,4.3691,4.3691,4.3398,4.2928,4.2674,4.2713,4.2674,4.2754,4.2713,4.2674,4.2754,4.291,4.3144,4.3223,4.332,4.3574,4.3652,4.3633,4.3672,4.3672,4.3672,4.3691,4.3672,4.3691,4.3711,4.4062,4.4277,4.0898,4.0567,4.0528,4.0293,4.0,3.9883,3.9824,3.9824,3.9785,3.9492,3.8926,3.8203,3.7676,3.7383,3.7679,3.7855,3.791,3.8281,3.8493,3.8532,3.8848,3.9043,3.9121,3.9551,4.0,4.0294,4.0333,4.0566,4.0996,4.0996,4.1035,4.1016,4.0254,3.9629,3.916,3.834,3.7874,3.7913,3.8242,3.8611,3.8945,3.9004,3.9004,3.8984,3.8965,3.8769,3.8301,3.834,3.8571,3.8926,3.8965,3.9199,3.9687,4.0059,4.0312,4.0391,4.1113,4.1777,4.2148,4.2284,4.2362,4.2441,4.2812,4.2851,4.2479,4.3144,4.3066,4.2187,4.2187,4.244,4.2401,4.2773,4.3144,4.3437,4.3496,4.3594,4.3555,4.3281,4.3224,4.3594,4.3242,4.3183,4.3516,4.3594,4.3633,4.3691,4.3691,4.3691,4.3691,4.3691,4.3691,4.3555,4.3555,4.3535,4.3496,4.3574,4.3476,4.3496,4.3555,4.3535,4.3555,4.3594,4.3672,4.3652,4.3691,4.3691,4.3691,4.3691,4.3691,4.3711,4.3711,4.373,4.3769,4.4121,4.4355,4.1074,4.0918,4.0898,4.0801,4.0663,4.0391,4.0235,4.0254,4.0,3.9785,3.959,3.9238,3.8711,3.8122,3.8496,3.8672,3.8711,3.9141,3.9355,3.9355,3.9551,3.9746,4.0,4.0156,4.0488,4.0879,4.0898,4.1035,4.1172,4.1211,4.1211,4.1152,4.0566,4.0138,3.9941,3.9394,3.9162,3.9416,3.9648,3.9941,4.0254,3.9863,3.9609,3.9609,3.9609,3.9531,3.9414,3.959,3.9922,4.0332,4.0371,4.0684,4.1348,4.1308,4.1387,4.1641,4.2207,4.2637,4.2793,4.3027,4.3183,4.3143,4.334,4.3262,4.2891,4.3359,4.3262,4.2461,4.2793,4.3105,4.2891,4.3183,4.3516,4.3672,4.3691,4.3691,4.3691,4.3555,4.3535,4.3672,4.3555,4.3496,4.3652,4.3691,4.3691,4.3691,4.3691,4.3691,4.3691,4.3691,4.3691,4.3691,4.3691,4.3691,4.3691,4.3691,4.3691,4.3691,4.3691,4.3691,4.3691,4.3691,4.3691,4.3691,4.3691,4.3691,4.3691,4.3691,4.3691,4.375,4.3965,4.4043,4.3769,4.4277,4.4668,4.1523,4.1523,4.1504,4.1504,4.1484,4.1055,4.084,4.0782,4.043,4.0195,4.0078,4.0059,3.9668,3.9043,3.9258,3.9394,3.9434,3.9746,3.9883,3.9902,4.0019,4.0293,4.0684,4.084,4.1094,4.1445,4.1523,4.1465,4.1348,4.125,4.1211,4.1152,4.0742,4.0489,4.043,4.0098,4.0098,4.043,4.0489,4.0723,4.1054,4.0566,4.0254,4.0254,4.0254,4.0234,4.0254,4.0644,4.0957,4.1211,4.1387,4.1738,4.2207,4.2168,4.2344,4.2734,4.3066,4.3242,4.3283,4.3535,4.3691,4.3691,4.3691,4.3574,4.3379,4.3535,4.3359,4.2773,4.3281,4.3516,4.3183,4.3359,4.3555,4.3672,4.3691,4.3691,4.3691,4.3691,4.3691,4.3691,4.3672,4.3691,4.3691,4.3691,4.3691,4.3691,4.3691,4.3691,4.3691,4.3691,4.3691,4.3691,4.3691,4.3691,4.3691,4.3691,4.3691,4.3691,4.3691,4.3691,4.3691,4.3691,4.3691,4.3691,4.3691,4.3691,4.3691,4.3691,4.3769,4.3926,4.4141,4.4297,4.4023,4.4512,4.4746,4.2323,4.2323,4.2323,4.2284,4.2284,4.1894,4.1738,4.168,4.1269,4.0879,4.0547,4.0469,4.0254,3.9844,3.9902,3.9883,3.9863,3.9941,3.998,4.0019,4.0332,4.0723,4.1191,4.1543,4.1933,4.2246,4.2246,4.2109,4.1758,4.1387,4.1211,4.1191,4.0781,4.0508,4.0508,4.0176,4.0117,4.0527,4.0566,4.0742,4.1113,4.1152,4.1093,4.1093,4.1132,4.1093,4.1152,4.1504,4.1562,4.123,4.1914,4.2207,4.1973,4.2598,4.3183,4.3555,4.3633,4.3652,4.3652,4.3691,4.3691,4.3691,4.3691,4.3672,4.3574,4.3652,4.3476,4.3086,4.3379,4.3496,4.3244,4.3203,4.3359,4.3652,4.3691,4.3691,4.373,4.373,4.3711,4.373,4.373,4.3711,4.3691,4.3691,4.3691,4.3691,4.3691,4.3691,4.3691,4.3691,4.3691,4.3691,4.3691,4.3691,4.3691,4.3691,4.3691,4.3691,4.3691,4.3691,4.3691,4.3691,4.3691,4.3691,4.3691,4.3691,4.3691,4.3769,4.3906,4.4062,4.4316,4.4375,4.4082,4.4297,4.459,4.2382,4.2382,4.2382,4.2382,4.2362,4.2226,4.2207,4.2168,4.1758,4.1504,4.1308,4.1055,4.0859,4.0723,4.0761,4.0566,4.0351,4.0586,4.0761,4.0761,4.0879,4.1172,4.1562,4.1738,4.2012,4.2323,4.2382,4.2323,4.2168,4.1777,4.1582,4.1504,4.1191,4.0937,4.0898,4.0801,4.0801,4.0918,4.0937,4.1035,4.1191,4.1211,4.1211,4.1211,4.1211,4.1211,4.1211,4.1582,4.1719,4.1582,4.2089,4.248,4.2656,4.3164,4.3535,4.3672,4.3691,4.3691,4.3691,4.3691,4.3691,4.3691,4.3691,4.3594,4.3398,4.3535,4.3535,4.3223,4.3183,4.3301,4.3476,4.3476,4.3535,4.3672,4.3711,4.3808,4.4004,4.3906,4.3808,4.4023,4.3906,4.3691,4.3691,4.3691,4.3691,4.3691,4.3691,4.3691,4.3691,4.3691,4.3691,4.3691,4.3691,4.3691,4.3691,4.3691,4.3691,4.3691,4.3691,4.3691,4.3691,4.3691,4.3691,4.3691,4.3691,4.3691,4.3691,4.3711,4.3867,4.4004,4.4258,4.4375,4.4043,4.4473,4.4766,4.2832,4.2791,4.2791,4.2851,4.2832,4.2695,4.2637,4.2598,4.2187,4.1992,4.1953,4.1699,4.1582,4.1543,4.1484,4.1328,4.1113,4.1328,4.1445,4.1562,4.1582,4.1797,4.2148,4.2207,4.2422,4.2713,4.2695,4.2637,4.2578,4.2207,4.2012,4.1973,4.1699,4.1504,4.1445,4.1367,4.1328,4.125,4.1211,4.1211,4.1211,4.1211,4.1211,4.1211,4.1211,4.1211,4.1191,4.1582,4.1797,4.1875,4.2324,4.2832,4.3262,4.3555,4.3691,4.3691,4.3691,4.3691,4.3691,4.3691,4.3691,4.3691,4.3691,4.3555,4.3381,4.3535,4.3516,4.3359,4.3281,4.3418,4.3613,4.3691,4.3691,4.3691,4.3691,4.3828,4.4121,4.3887,4.3867,4.4004,4.3887,4.373,4.3691,4.3691,4.3691,4.3691,4.3691,4.3691,4.3691,4.3691,4.3691,4.3691,4.3691,4.3691,4.3691,4.3691,4.3691,4.3691,4.3691,4.3691,4.3691,4.3691,4.3691,4.3691,4.3691,4.3691,4.3691,4.3691,4.3769,4.3887,4.418,4.4414,4.4492,4.4785,4.4902,4.3672,4.3633,4.3691,4.3613,4.3535,4.3223,4.3086,4.3008,4.2617,4.2382,4.2382,4.2383,4.2285,4.2285,4.1953,4.1992,4.2187,4.2012,4.2031,4.2285,4.2284,4.2558,4.2949,4.2949,4.3164,4.3535,4.3262,4.3127,4.3047,4.2656,4.2382,4.2422,4.2323,4.2109,4.1797,4.1777,4.1621,4.1367,4.1308,4.125,4.1211,4.123,4.1211,4.1211,4.125,4.1269,4.125,4.1582,4.1816,4.1933,4.2638,4.3262,4.3574,4.3691,4.3711,4.375,4.373,4.373,4.373,4.3789,4.3848,4.3789,4.373,4.3769,4.373,4.375,4.375,4.373,4.375,4.3789,4.3808,4.3848,4.3789,4.3691,4.3691,4.373,4.3789,4.375,4.3711,4.375,4.3711,4.3691,4.3691,4.3691,4.3691,4.3691,4.3691,4.3691,4.3691,4.3691,4.3691,4.3691,4.3691,4.3691,4.3691,4.3691,4.3691,4.3691,4.3691,4.3691,4.3691,4.3691,4.3691,4.3691,4.3691,4.3691,4.3691,4.3711,4.3848,4.3984,4.4277,4.4414,4.4453,4.457,4.4805,4.3691,4.3691,4.3691,4.3691,4.3691,4.3555,4.3516,4.3457,4.3047,4.2891,4.2832,4.2558,4.2382,4.2362,4.2245,4.2461,4.2832,4.2734,4.2598,4.2421,4.2401,4.2676,4.3027,4.3127,4.3301,4.3633,4.3574,4.3496,4.3418,4.3066,4.2871,4.2832,4.2578,4.2323,4.2246,4.2226,4.2129,4.2031,4.1758,4.1601,4.1582,4.1308,4.1211,4.125,4.1445,4.1601,4.1621,4.1738,4.1933,4.2226,4.2773,4.3262,4.3613,4.3691,4.3867,4.4141,4.418,4.418,4.4219,4.4433,4.4411,4.4258,4.418,4.418,4.418,4.418,4.418,4.4219,4.4433,4.4609,4.4609,4.4609,4.4313,4.3769,4.3691,4.3848,4.4082,4.416,4.4023,4.375,4.3691,4.3691,4.3711,4.373,4.375,4.3769,4.373,4.3711,4.3711,4.3711,4.3691,4.3691,4.3691,4.3485,4.3176,4.2927,4.2783,4.2927,4.3093,4.365,4.3691,4.3691,4.3691,4.3691,4.3691,4.3691,4.3691,4.375,4.3848,4.3984,4.416,4.418,4.4101,4.4375,4.4863,4.3691,4.3691,4.3691,4.3691,4.3691,4.3691,4.3691,4.3672,4.3437,4.3342,4.3242,4.3027,4.291,4.283,4.2754,4.291,4.3302,4.3205,4.3008,4.291,4.291,4.3066,4.3301,4.3301,4.3437,4.3652,4.3691,4.3691,4.3691,4.3457,4.3301,4.3242,4.3027,4.2832,4.2695,4.2656,4.2617,4.2382,4.2168,4.2031,4.1973,4.1777,4.1641,4.168,4.1894,4.2109,4.2246,4.2285,4.2402,4.2695,4.3066,4.3437,4.3691,4.3867,4.4101,4.4336,4.4551,4.4629,4.4648,4.4844,4.4879,4.4687,4.4629,4.4629,4.4629,4.4629,4.4629,4.4687,4.4801,4.5039,4.5019,4.5019,4.4746,4.4277,4.4062,4.4101,4.4355,4.4394,4.4394,4.4238,4.4238,4.4199,4.4199,4.4023,4.4062,4.4121,4.3906,4.3828,4.3848,4.3808,4.375,4.367,4.3691,4.3217,4.2451,4.2099,4.189,4.2057,4.2284,4.3134,4.3691,4.3691,4.3691,4.3691,4.3691,4.3691,4.3691,4.3691,4.3769,4.3926,4.4101,4.4199,4.4336,4.4961,4.5371,4.373,4.3711,4.3691,4.3691,4.3691,4.3691,4.3691,4.3691,4.3672,4.3652,4.3652,4.3594,4.3613,4.3574,4.3242,4.3301,4.3574,4.334,4.334,4.3535,4.3594,4.3613,4.3633,4.3613,4.3652,4.3691,4.3691,4.3691,4.3691,4.3652,4.3691,4.3633,4.3594,4.3496,4.3164,4.3146,4.293,4.2635,4.2519,4.2421,4.2421,4.2343,4.2323,4.2363,4.2382,4.2617,4.2891,4.3048,4.3066,4.3205,4.3516,4.3769,4.3848,4.418,4.4453,4.457,4.4863,4.5019,4.5016,4.5195,4.5133,4.5035,4.5058,4.5058,4.5058,4.5058,4.5058,4.5078,4.5113,4.5195,4.5195,4.5215,4.5094,4.5019,4.4668,4.4473,4.4433,4.4473,4.459,4.4863,4.4957,4.4957,4.4883,4.4609,4.4648,4.4687,4.4316,4.4199,4.4141,4.4043,4.3706,4.338,4.2844,4.1765,4.0554,4.0048,3.9836,4.009,4.074,4.2099,4.3237,4.3402,4.3691,4.3691,4.3691,4.3691,4.3691,4.3691,4.3789,4.3965,4.416,4.4336,4.4726,4.5293,4.5586,4.4023,4.3711,4.3691,4.3691,4.3691,4.3691,4.3711,4.3711,4.3711,4.373,4.3691,4.3691,4.3691,4.3691,4.3594,4.3613,4.3633,4.3574,4.3574,4.3672,4.3691,4.3691,4.3691,4.3691,4.3691,4.3691,4.3691,4.3691,4.3691,4.3691,4.3691,4.3691,4.3691,4.3652,4.3555,4.3516,4.3496,4.334,4.3027,4.291,4.2851,4.2598,4.2382,4.2401,4.2734,4.2949,4.3146,4.3379,4.3535,4.3574,4.3984,4.4219,4.4258,4.4629,4.498,4.5254,4.541,4.5508,4.5566,4.5762,4.5801,4.5547,4.5508,4.5488,4.5508,4.5508,4.5508,4.5566,4.5742,4.5937,4.5937,4.5937,4.5801,4.5508,4.5156,4.4883,4.4863,4.4863,4.4879,4.4977,4.5058,4.5098,4.5078,4.498,4.4922,4.5,4.4635,4.4278,4.4013,4.3419,4.2709,4.157,4.0764,3.9607,3.863,3.8032,3.7775,3.7947,3.897,4.0698,4.1867,4.2761,4.3278,4.3691,4.3691,4.3691,4.3691,4.3691,4.3867,4.4023,4.4219,4.4433,4.4863,4.5351,4.5605,4.4394,4.4004,4.4004,4.4004,4.3984,4.4004,4.3984,4.4004,4.4004,4.3867,4.373,4.3691,4.3691,4.3691,4.3691,4.3691,4.3691,4.3691,4.3691,4.3691,4.3691,4.3691,4.3691,4.3691,4.3691,4.3691,4.3691,4.3691,4.3691,4.3691,4.3691,4.3691,4.3691,4.3691,4.3691,4.3691,4.3691,4.3652,4.3457,4.334,4.332,4.3105,4.3008,4.3008,4.3223,4.334,4.3398,4.3769,4.3984,4.4043,4.4258,4.4473,4.4687,4.5058,4.541,4.5727,4.582,4.5937,4.5976,4.6172,4.6172,4.5996,4.5937,4.5937,4.5937,4.5981,4.5937,4.5957,4.6172,4.6269,4.6308,4.6308,4.6191,4.5957,4.5723,4.5488,4.5332,4.5312,4.5391,4.5488,4.5523,4.5523,4.5547,4.541,4.5367,4.5172,4.4019,4.3519,4.2993,4.2276,4.1123,3.9667,3.8605,3.7561,3.6313,3.5577,3.5316,3.549,3.7645,3.9338,4.1714,4.2796,4.3192,4.375,4.3711,4.373,4.3808,4.3848,4.3926,4.4101,4.4297,4.4687,4.5156,4.5469,4.5683,4.4844,4.4473,4.4473,4.4453,4.4453,4.4473,4.4453,4.4453,4.4375,4.416,4.3867,4.373,4.3691,4.3691,4.3691,4.3691,4.3691,4.3691,4.3691,4.3691,4.3691,4.3691,4.3691,4.3691,4.3691,4.3691,4.3691,4.3691,4.3691,4.3691,4.3691,4.3691,4.3691,4.3691,4.3691,4.3691,4.3691,4.3691,4.3652,4.3613,4.3613,4.3574,4.3535,4.3574,4.3711,4.3828,4.3965,4.4238,4.4492,4.4531,4.4531,4.4766,4.5117,4.5508,4.5723,4.582,4.6074,4.625,4.6269,4.6269,4.6308,4.625,4.625,4.6308,4.625,4.623,4.623,4.6211,4.6289,4.6308,4.6308,4.6308,4.6289,4.6211,4.623,4.605,4.558,4.5593,4.5879,4.623,4.6269,4.6289,4.6167,4.5817,4.5406,4.4297,4.3029,4.1634,4.0955,4.0123,3.8707,3.6975,3.615,3.549,3.4242,3.3043,3.2955,3.3175,3.6112,3.8666,4.2344,4.3615,4.3682,4.3867,4.4082,4.4141,4.4101,4.4121,4.4096,4.4453,4.4844,4.5176,4.5527,4.5723,4.5937,4.5273,4.484,4.484,4.486,4.4902,4.4902,4.4902,4.4863,4.4551,4.4355,4.418,4.3867,4.3711,4.3691,4.3691,4.3691,4.3691,4.3691,4.3691,4.3691,4.3691,4.3711,4.3711,4.3711,4.3691,4.3691,4.3691,4.3711,4.3711,4.375,4.3711,4.373,4.3769,4.3691,4.3711,4.3691,4.3691,4.3691,4.3691,4.3691,4.3691,4.3711,4.3711,4.3769,4.4062,4.4414,4.4687,4.4844,4.5058,4.5312,4.5391,4.541,4.5586,4.5918,4.6133,4.6191,4.623,4.6328,4.6328,4.6387,4.6328,4.6387,4.6426,4.6308,4.6308,4.6328,4.6328,4.6308,4.6308,4.6308,4.6348,4.6308,4.6367,4.6387,4.6304,4.5505,4.412,4.4957,4.5822,4.5944,4.5939,4.6221,4.5983,4.4044,4.3483,4.3094,4.1594,3.9711,3.8674,3.7897,3.6345,3.4598,3.421,3.3678,3.2894,3.233,3.2983,3.3235,3.5592,3.7608,4.13,4.3396,4.3059,4.3637,4.459,4.4424,4.3929,4.4168,4.4095,4.4741,4.5203,4.5413,4.556,4.5822,4.6094,4.5723,4.5332,4.5332,4.5332,4.5332,4.5332,4.5332,4.5254,4.4883,4.457,4.4316,4.3906,4.3711,4.3691,4.3691,4.3691,4.3691,4.3711,4.3828,4.3926,4.3867,4.3828,4.3945,4.3808,4.3691,4.3711,4.3691,4.3789,4.3965,4.4023,4.4062,4.4023,4.4004,4.3906,4.373,4.3691,4.3691,4.3691,4.3691,4.3691,4.3691,4.3711,4.3848,4.4062,4.4453,4.4824,4.4938,4.5234,4.543,4.5664,4.5903,4.5976,4.5976,4.6172,4.6367,4.6562,4.6601,4.6738,4.6836,4.6914,4.6933,4.6894,4.6894,4.6894,4.6816,4.6738,4.6557,4.6543,4.6465,4.6367,4.6582,4.6836,4.6816,4.6621,4.6513,4.5407,4.3515,4.3771,4.4011,4.3327,4.2595,4.264,4.2174,4.1618,4.1214,4.07,3.8778,3.6955,3.6157,3.5288,3.3942,3.268,3.2373,3.1941,3.1457,3.1909,3.3605,3.447,3.6117,3.7562,3.9652,4.1078,4.2001,4.309,4.4241,4.3714,4.3339,4.3676,4.3655,4.3503,4.3815,4.4772,4.5595,4.606,4.623,4.6094,4.5762,4.5762,4.5805,4.5762,4.5781,4.5762,4.5703,4.5312,4.4961,4.457,4.4101,4.3984,4.3848,4.3848,4.3828,4.3808,4.373,4.3906,4.4238,4.3887,4.3906,4.4043,4.3965,4.3867,4.3808,4.373,4.3945,4.4336,4.4355,4.4199,4.4316,4.4258,4.4004,4.375,4.3691,4.3691,4.3691,4.3691,4.3691,4.3691,4.3711,4.3945,4.4473,4.4902,4.5195,4.5371,4.5586,4.5781,4.5824,4.6113,4.6269,4.6308,4.6328,4.6504,4.6831,4.6875,4.6973,4.7207,4.7422,4.7545,4.7623,4.7558,4.7539,4.7441,4.7137,4.665,4.5916,4.5426,4.4841,4.575,4.5374,4.5566,4.5595,4.5635,4.4487,4.2442,4.1624,4.0549,4.0039,4.022,4.0492,3.9812,3.9159,3.8748,3.8062,3.6144,3.4627,3.3897,3.3201,3.2214,3.1647,3.156,3.1437,3.098,3.2288,3.3872,3.4848,3.639,3.748,3.8463,3.9553,4.094,4.2765,4.3526,4.279,4.2472,4.2775,4.2598,4.2098,4.3232,4.5026,4.5856,4.6323,4.6406,4.6269,4.6191,4.6191,4.6211,4.6191,4.6191,4.6172,4.6133,4.5723,4.5527,4.5371,4.498,4.4551,4.4355,4.4277,4.4277,4.4199,4.4004,4.4004,4.4297,4.3965,4.3828,4.3945,4.416,4.4238,4.416,4.4023,4.4219,4.457,4.4238,4.4238,4.4297,4.4062,4.3808,4.375,4.3711,4.373,4.3789,4.3789,4.3789,4.3828,4.3926,4.4219,4.4883,4.5351,4.5683,4.5957,4.6113,4.6211,4.6211,4.6269,4.6308,4.6387,4.6387,4.6562,4.6894,4.7051,4.7123,4.7324,4.748,4.7623,4.7623,4.7476,4.7456,4.7482,4.714,4.5762,4.417,4.2513,4.1296,4.1086,4.2,4.1467,4.1242,4.141,4.057,3.84,3.7663,3.786,3.7915,3.8356,3.8383,3.739,3.6606,3.619,3.5602,3.4327,3.3276,3.2708,3.2214,3.163,3.1262,3.1054,3.096,3.0801,3.2745,3.4442,3.491,3.6088,3.7253,3.8088,3.8696,3.9948,4.0841,4.1364,4.0909,4.1006,4.1453,4.18,4.1523,4.3438,4.5524,4.6099,4.6523,4.6719,4.6484,4.6308,4.6308,4.6308,4.6308,4.6308,4.6308,4.623,4.5859,4.5683,4.5547,4.5234,4.4879,4.4766,4.4726,4.4707,4.4609,4.4277,4.4336,4.4512,4.4062,4.3867,4.4023,4.4316,4.4531,4.4609,4.4531,4.4687,4.5234,4.4746,4.4512,4.4551,4.4277,4.3945,4.375,4.3691,4.3867,4.3984,4.4062,4.418,4.4375,4.4551,4.5,4.5312,4.5742,4.6094,4.623,4.6308,4.6308,4.6289,4.6308,4.6543,4.6738,4.6689,4.6728,4.7098,4.7352,4.7631,4.7806,4.819,4.8288,4.8105,4.7114,4.6333,4.5778,4.479,4.3428,4.1988,4.1378,4.0205,4.0441,4.0211,4.0417,4.0238,4.0063,3.8704,3.6963,3.6026,3.5958,3.5935,3.5207,3.4867,3.4639,3.3999,3.3591,3.296,3.2361,3.1995,3.1724,3.1557,3.1396,3.1343,3.1236,3.1196,3.1475,3.3211,3.4192,3.4633,3.5471,3.6615,3.6434,3.6421,3.6897,3.7703,3.7998,3.8931,3.8716,3.8935,3.9881,4.1169,4.2863,4.451,4.5887,4.6699,4.6914,4.6601,4.6308,4.6308,4.6308,4.6308,4.6308,4.6308,4.623,4.5957,4.582,4.5742,4.5469,4.5231,4.5094,4.5035,4.4996,4.5055,4.4726,4.4726,4.4723,4.4258,4.4082,4.4297,4.4551,4.4766,4.5117,4.5137,4.5351,4.543,4.5,4.4922,4.4844,4.459,4.4316,4.4062,4.4121,4.4258,4.4394,4.4531,4.4726,4.5058,4.543,4.5683,4.5723,4.6074,4.6289,4.6308,4.6308,4.6308,4.6308,4.6367,4.6621,4.7137,4.6677,4.6511,4.6915,4.7261,4.7607,4.7661,4.698,4.6392,4.6253,4.5184,4.4477,4.3554,4.1904,3.9897,3.9449,3.875,3.8603,3.8297,3.9113,3.9064,3.8842,3.8491,3.8173,3.6193,3.4943,3.4188,3.3545,3.2162,3.2192,3.2774,3.2725,3.2583,3.2536,3.1948,3.1948,3.1724,3.1724,3.1583,3.1657,3.1631,3.1631,3.2271,3.3672,3.4016,3.3597,3.448,3.5559,3.4519,3.3436,3.4377,3.5774,3.6698,3.7482,3.6929,3.7466,3.9432,4.1124,4.2219,4.3911,4.6126,4.707,4.7226,4.6348,4.6308,4.6308,4.6308,4.6308,4.6308,4.6308,4.6289,4.623,4.623,4.6172,4.6133,4.5879,4.5605,4.5234,4.5293,4.5371,4.5176,4.4961,4.4899,4.4551,4.4336,4.4453,4.4762,4.5137,4.5488,4.5566,4.5605,4.5551,4.4922,4.4726,4.4863,4.4707,4.4512,4.4687,4.4668,4.4902,4.4899,4.4918,4.4977,4.5156,4.5508,4.5683,4.582,4.6074,4.6308,4.6308,4.6308,4.6308,4.6308,4.6308,4.6543,4.6598,4.5061,4.4536,4.4625,4.4825,4.4862,4.4728,4.3862,4.3054,4.3119,4.2003,4.1716,4.0625,3.9222,3.7523,3.7534,3.5944,3.5005,3.514,3.4679,3.4444,3.48,3.5224,3.4942,3.3904,3.4255,3.3447,3.3171,3.2469,3.2112,3.2232,3.1995,3.1772,3.1724,3.1724,3.1751,3.1764,3.1805,3.1724,3.1724,3.1724,3.1724,3.1853,3.345,3.3544,3.2819,3.3464,3.428,3.3323,3.2536,3.3497,3.4764,3.5742,3.7436,3.8611,3.9477,4.0265,4.1599,4.3428,4.5241,4.712,4.75,4.7578,4.6875,4.6641,4.6406,4.6308,4.6308,4.6308,4.6308,4.6308,4.6308,4.6308,4.6308,4.6308,4.6191,4.5976,4.5801,4.5859,4.5898,4.5586,4.5234,4.5078,4.4824,4.4648,4.4609,4.5058,4.5547,4.5683,4.5859,4.584,4.5566,4.5137,4.484,4.4961,4.4863,4.4782,4.5055,4.5039,4.5176,4.5371,4.5605,4.5742,4.5801,4.5918,4.6016,4.6016,4.6211,4.6289,4.6308,4.6308,4.6308,4.6308,4.6308,4.5807,4.5172,4.4124,4.3538,4.2381,4.1052,4.1099,4.2151,4.1505,4.1026,4.0609,3.9787,3.8344,3.71,3.603,3.5203,3.504,3.4136,3.3464,3.3414,3.3414,3.3414,3.3414,3.3414,3.3414,3.3347,3.3133,3.304,3.2888,3.2795,3.2487,3.2219,3.2112,3.1965,3.1805,3.1885,3.1992,3.1957,3.1957,3.1837,3.1724,3.1724,3.1724,3.1806,3.2502,3.2597,3.2185,3.2171,3.2725,3.2361,3.2266,3.3544,3.4467,3.5509,3.7512,4.0084,4.1221,4.1679,4.3215,4.49,4.6312,4.7558,4.7871,4.8008,4.7383,4.7006,4.6641,4.6406,4.6308,4.6308,4.6308,4.6308,4.6308,4.6308,4.6308,4.6308,4.6308,4.6289,4.625,4.623,4.625,4.5976,4.5586,4.5312,4.5156,4.5019,4.5039,4.5472,4.5723,4.5863,4.5937,4.5918,4.5664,4.5371,4.5195,4.5176,4.5215,4.5293,4.5309,4.5406,4.5586,4.582,4.6074,4.6211,4.625,4.625,4.6269,4.6289,4.6308,4.6308,4.6308,4.6308,4.6308,4.6484,4.6504,4.5834,4.4472,4.3178,4.1787,4.0174,3.813,3.7465,3.8485,3.8714,3.9236,3.8685,3.7855,3.5684,3.4286,3.3414,3.3414,3.37,3.355,3.3414,3.3414,3.3414,3.3414,3.3414,3.3414,3.3414,3.3387,3.3227,3.3133,3.312,3.3013,3.2853,3.2612,3.2438,3.2225,3.1931,3.1971,3.2171,3.2211,3.2211,3.2131,3.2032,3.2032,3.1992,3.1919,3.194,3.1805,3.1738,3.1738,3.1806,3.1901,3.2913,3.4373,3.5091,3.619,3.9295,4.2907,4.2972,4.3125,4.4733,4.6095,4.6838,4.7695,4.8066,4.8359,4.7578,4.75,4.7051,4.6596,4.6308,4.6308,4.6308,4.6308,4.6308,4.6308,4.6308,4.6308,4.6308,4.6308,4.6308,4.6308,4.6289,4.6269,4.5937,4.5703,4.5605,4.5547,4.559,4.5688,4.5879,4.6094,4.6074,4.5859,4.5723,4.5723,4.5625,4.5688,4.5625,4.5879,4.5996,4.5996,4.6035,4.6172,4.6289,4.6289,4.6308,4.6308,4.6308,4.6308,4.6308,4.6308,4.6308,4.6308,4.6152,4.6418,4.6202,4.4912,4.2982,4.1484,3.9659,3.7674,3.592,3.5246,3.5562,3.5421,3.4441,3.4064,3.3987,3.4037,3.345,3.3414,3.3414,3.3414,3.3414,3.3414,3.3414,3.3414,3.3414,3.3414,3.3414,3.3414,3.3414,3.34,3.332,3.336,3.3267,3.3093,3.3013,3.2839,3.2554,3.226,3.2318,3.2505,3.2554,3.2505,3.2527,3.246,3.2474,3.238,3.2118,3.2024,3.1917,3.1797,3.173,3.1975,3.2185,3.3544,3.5059,3.7833,3.9523,4.2577,4.4838,4.452,4.4797,4.6159,4.7182,4.7558,4.7969,4.8398,4.8659,4.7656,4.7123,4.6948,4.6655,4.6308,4.6308,4.6308,4.6308,4.6308,4.6308,4.6308,4.6308,4.6308,4.6308,4.6308,4.6308,4.6308,4.6308,4.6035,4.5918,4.5879,4.5879,4.5903,4.5981,4.6152,4.625,4.6113,4.6055,4.6074,4.6016,4.6055,4.6055,4.6016,4.6133,4.6269,4.6308,4.6308,4.6308,4.6308,4.6308,4.6308,4.6308,4.6308,4.6308,4.6308,4.6465,4.6601,4.6406,4.5814,4.5142,4.4827,4.2884,4.0749,3.8989,3.7478,3.5764,3.4398,3.4141,3.4122,3.4015,3.3908,3.3668,3.3598,3.3414,3.3427,3.3414,3.3414,3.3414,3.3414,3.3414,3.3414,3.3414,3.3414,3.3414,3.3414,3.3414,3.3414,3.3414,3.3414,3.3387,3.3387,3.332,3.328,3.324,3.2853,3.2567,3.2728,3.2862,3.2862,3.2848,3.2822,3.2768,3.2755,3.2674,3.2412,3.2238,3.2078,3.1917,3.1818,3.2354,3.2913,3.4046,3.5927,3.9204,4.1968,4.3763,4.5022,4.5509,4.6203,4.7028,4.748,4.7793,4.8288,4.8737,4.8835,4.7598,4.6909,4.6889,4.6655,4.6328,4.6308,4.6308,4.6308,4.6308,4.6308,4.6308,4.6308,4.6308,4.6308,4.6308,4.6308,4.6308,4.6289,4.6113,4.6074,4.6094,4.6094,4.6055,4.6094,4.625,4.6308,4.6308,4.6289,4.625,4.6289,4.6269,4.6269,4.6308,4.6289,4.6289,4.6308,4.6308,4.6308,4.6308,4.6308,4.6308,4.6308,4.6308,4.6308,4.6308,4.6387,4.6229,4.5705,4.4767,4.3815,4.2682,4.0497,3.8334,3.6598,3.5805,3.4707,3.4068,3.4242,3.4376,3.4336,3.4189,3.3868,3.3708,3.3547,3.344,3.3414,3.3414,3.3414,3.3414,3.3414,3.3414,3.3414,3.3414,3.3414,3.3414,3.3414,3.3414,3.3414,3.3414,3.34,3.34,3.34,3.3387,3.3347,3.32,3.2866,3.2888,3.3049,3.3106,3.3093,3.3053,3.3,3.2933,3.2826,3.2741,3.2527,3.2251,3.1998,3.2137,3.3191,3.392,3.5245,3.7344,4.0627,4.2988,4.444,4.542,4.6151,4.6792,4.7435,4.7897,4.8288,4.8464,4.8855,4.8855,4.7324,4.6909,4.687,4.668,4.6308,4.6308,4.6308,4.6308,4.6308,4.6308,4.6308,4.6308,4.6308,4.6308,4.6308,4.6308,4.6308,4.6308,4.625,4.625,4.625,4.6269,4.6269,4.6289,4.6308,4.6308,4.6308,4.6308,4.6308,4.6308,4.6308,4.6308,4.6308,4.6308,4.6308,4.6308,4.6308,4.6308,4.6308,4.6367,4.6308,4.6304,4.6362,4.5772,4.5728,4.5717,4.4942,4.3876,4.294,4.2331,4.1023,3.9037,3.6985,3.6848,3.5949,3.4213,3.4467,3.4721,3.4788,3.4482,3.4269,3.4002,3.3855,3.3681,3.348,3.3414,3.3414,3.3414,3.3414,3.3414,3.3414,3.3414,3.3414,3.3467,3.348,3.3467,3.348,3.3414,3.3414,3.3414,3.3414,3.3414,3.3414,3.34,3.34,3.3253,3.3093,3.3146,3.3293,3.3307,3.324,3.3213,3.3133,3.3013,3.2915,3.2701,3.2474,3.2158,3.2749,3.4038,3.5742,3.7558,3.9857,4.2479,4.4179,4.5699,4.6379,4.6948,4.7402,4.7832,4.8405,4.8757,4.8874,4.8894,4.8894,4.7051,4.687,4.6641,4.6426,4.6308,4.6308,4.6308,4.6308,4.6308,4.6308,4.6308,4.6308,4.6308,4.6308,4.6308,4.6308,4.6308,4.6308,4.6308,4.6308,4.6308,4.6308,4.6308,4.6308,4.6308,4.6308,4.6308,4.6308,4.6308,4.6308,4.6308,4.6308,4.6308,4.6308,4.6308,4.6308,4.6308,4.6367,4.6504,4.6601,4.6323,4.6303,4.5731,4.4249,4.416,4.3732,4.2845,4.1591,4.0741,3.9959,3.8523,3.7065,3.5451,3.5277,3.4987,3.4251,3.4589,3.4857,3.4977,3.491,3.467,3.4309,3.3988,3.3774,3.3467,3.3414,3.3414,3.3414,3.3414,3.3414,3.3414,3.3414,3.3454,3.3627,3.3668,3.3641,3.3601,3.3467,3.3414,3.3414,3.3414,3.3414,3.3414,3.3414,3.3414,3.3414,3.3253,3.324,3.336,3.3387,3.3347,3.336,3.3307,3.3187,3.3076,3.2795,3.2541,3.2273,3.3619,3.5569,3.7436,3.9408,4.1959,4.4345,4.5693,4.6914,4.7187,4.7461,4.7793,4.8203,4.8659,4.8894,4.8894,4.8894,4.8894,4.6674,4.6635,4.6406,4.6308,4.6308,4.6308,4.6308,4.6308,4.6308,4.6308,4.6308,4.6308,4.6308,4.6308,4.6308,4.6308,4.6308,4.6308,4.6308,4.6308,4.6308,4.6308,4.6308,4.6308,4.6308,4.6308,4.6308,4.6308,4.6308,4.6308,4.6308,4.6308,4.6221,4.5612,4.5524,4.548,4.6308,4.6085,4.5786,4.4946,4.4667,4.4238,4.3289,4.2281,4.1746,4.1544,4.0372,3.9306,3.8273,3.7065,3.5961,3.4928,3.3891,3.3708,3.3961,3.4202,3.4563,3.487,3.5097,3.5017,3.471,3.4336,3.4135,3.3841,3.3534,3.3414,3.3414,3.3414,3.3414,3.3494,3.3534,3.3521,3.3601,3.3774,3.3734,3.3708,3.3721,3.3601,3.3467,3.3467,3.3507,3.348,3.3414,3.3414,3.3414,3.3414,3.34,3.3414,3.3414,3.3414,3.3414,3.3414,3.3374,3.324,3.3026,3.2795,3.2554,3.234,3.4145,3.6343,3.8624,4.0555,4.3386,4.5838,4.6534,4.717,4.7611,4.7949,4.8164,4.8379,4.8718,4.8874,4.8894,4.8933,4.8972,4.6308,4.6308,4.6308,4.6308,4.6308,4.6308,4.6308,4.6308,4.6308,4.6308,4.6308,4.6308,4.6308,4.6308,4.6308,4.6308,4.6308,4.6308,4.6308,4.6308,4.6308,4.6308,4.6308,4.6308,4.6308,4.6308,4.6308,4.6308,4.6308,4.6308,4.6308,4.5895,4.5524,4.4365,4.3771,4.386,4.4738,4.4226,4.3518,4.2784,4.2389,4.124,4.0419,3.9766,3.9544,3.9349,3.8433,3.7389,3.6658,3.5678,3.4652,3.3833,3.3507,3.3721,3.3828,3.4068,3.4496,3.479,3.4963,3.4817,3.4616,3.4282,3.4282,3.3948,3.3614,3.3414,3.3414,3.344,3.348,3.3654,3.3774,3.3761,3.3761,3.3774,3.3721,3.3748,3.3828,3.3748,3.3614,3.3587,3.3654,3.3627,3.3454,3.3414,3.3414,3.3414,3.3414,3.3414,3.3414,3.3414,3.3414,3.3414,3.336,3.3267,3.3089,3.2884,3.3511,3.3609,3.4737,3.6758,3.9167,4.1515,4.3461,4.534,4.6607,4.7244,4.7018,4.755,4.8398,4.8679,4.8835,4.8874,4.8894,4.9004,4.9043,4.6308,4.6308,4.6308,4.6308,4.6308,4.6308,4.6308,4.6308,4.6308,4.6308,4.6308,4.6308,4.6308,4.6308,4.6308,4.6308,4.6308,4.6308,4.6308,4.6308,4.6308,4.6308,4.6308,4.6308,4.6308,4.6308,4.6308,4.6308,4.6265,4.6265,4.4977,4.386,4.3771,4.2219,4.1079,4.0763,4.1033,4.1086,4.0453,4.039,4.0156,3.9478,3.8415,3.7646,3.7433,3.7037,3.5782,3.5146,3.4553,3.4126,3.3796,3.3414,3.3427,3.3708,3.3935,3.4189,3.4376,3.4482,3.4536,3.4496,3.4362,3.4202,3.4215,3.3975,3.3627,3.3454,3.3467,3.3521,3.3668,3.3868,3.3975,3.3975,3.4042,3.4068,3.3961,3.3841,3.3895,3.3828,3.3694,3.3614,3.3681,3.3587,3.3427,3.3414,3.3414,3.3414,3.3414,3.3414,3.3414,3.3414,3.3414,3.3414,3.3374,3.328,3.3219,3.3076,3.4157,3.5087,3.6235,3.7852,4.06,4.2651,4.3677,4.4846,4.6128,4.6184,4.5787,4.683,4.8587,4.8757,4.8894,4.8894,4.8933,4.9004,4.9199,4.6308,4.6308,4.6308,4.6308,4.6308,4.6308,4.6308,4.6308,4.6308,4.6308,4.6308,4.6308,4.6308,4.6308,4.6308,4.6308,4.6308,4.6308,4.6308,4.6308,4.6308,4.6308,4.6308,4.6308,4.6308,4.6308,4.6308,4.6308,4.6026,4.5021,4.3771,4.2818,4.1932,3.975,3.8337,3.762,3.6929,3.6992,3.7039,3.7611,3.7786,3.746,3.6056,3.5536,3.531,3.4526,3.366,3.34,3.3414,3.3414,3.3414,3.3414,3.3414,3.3614,3.3841,3.4042,3.4135,3.4242,3.4336,3.4362,3.4215,3.4148,3.4202,3.4028,3.3895,3.3761,3.3708,3.3708,3.3921,3.4095,3.4148,3.4202,3.4336,3.4456,3.4215,3.3961,3.3921,3.3881,3.3774,3.3641,3.3547,3.3467,3.3414,3.3414,3.3414,3.3414,3.3414,3.3414,3.3414,3.3414,3.3414,3.3414,3.3374,3.3307,3.3295,3.3592,3.4863,3.6271,3.7877,3.9745,4.2249,4.2761,4.2807,4.4034,4.5612,4.5853,4.627,4.7474,4.8855,4.8894,4.8894,4.8894,4.8913,4.8991,4.916,4.6308,4.6308,4.6308,4.6308,4.6308,4.6308,4.6308,4.6308,4.6308,4.6308,4.6308,4.6308,4.6308,4.6308,4.6308,4.6308,4.6308,4.6308,4.6308,4.6308,4.6308,4.6308,4.6308,4.6308,4.6308,4.6308,4.6158,4.5983,4.5241,4.4081,4.2818,4.2085,3.9841,3.7513,3.5536,3.5163,3.458,3.3922,3.457,3.5323,3.4966,3.3897,3.2728,3.3139,3.3408,3.34,3.34,3.3414,3.3414,3.3414,3.3414,3.3414,3.3427,3.344,3.3641,3.3734,3.3841,3.3935,3.4042,3.4095,3.4175,3.4189,3.4282,3.4162,3.4055,3.4042,3.4002,3.3841,3.3975,3.4242,3.4349,3.4456,3.4589,3.4589,3.4416,3.4229,3.4135,3.4028,3.3828,3.3681,3.3507,3.3427,3.3414,3.3414,3.3414,3.3414,3.3414,3.3414,3.3414,3.3414,3.3414,3.3414,3.3387,3.3383,3.3525,3.4083,3.567,3.7269,3.8525,3.9961,4.1356,4.1592,4.1528,4.3034,4.4631,4.6588,4.7586,4.8366,4.8755,4.8894,4.8894,4.8894,4.8933,4.8972,4.9141,4.6308,4.6308,4.6308,4.6308,4.6308,4.6308,4.6308,4.6308,4.6308,4.6308,4.6308,4.6308,4.6308,4.6308,4.6308,4.6308,4.6308,4.6308,4.6308,4.6308,4.6308,4.6308,4.6308,4.6308,4.6308,4.6308,4.607,4.5109,4.3504,4.2309,4.0429,3.7558,3.6221,3.5084,3.3381,3.3172,3.2818,3.2343,3.2934,3.3412,3.2995,3.3037,3.2661,3.2875,3.3066,3.3374,3.3414,3.3414,3.3414,3.3414,3.3414,3.3414,3.3414,3.3414,3.344,3.3507,3.3561,3.3641,3.3694,3.3788,3.3881,3.4068,3.4162,3.4229,3.4269,3.4309,3.4242,3.4042,3.4055,3.4336,3.4536,3.4656,3.4723,3.4656,3.4576,3.4442,3.4309,3.4122,3.3895,3.3681,3.348,3.3427,3.3414,3.3414,3.3414,3.3414,3.3414,3.3414,3.3414,3.3414,3.3414,3.3414,3.3414,3.346,3.3566,3.4454,3.601,3.6221,3.6828,3.8499,4.0254,4.0972,4.14,4.2216,4.3589,4.6083,4.7837,4.8134,4.8478,4.8755,4.8894,4.8894,4.8894,4.8933,4.9141,4.6308,4.6308,4.6308,4.6308,4.6308,4.6308,4.6308,4.6308,4.6308,4.6308,4.6308,4.6308,4.6308,4.6308,4.6308,4.6308,4.6308,4.6308,4.6308,4.6308,4.6308,4.6308,4.6308,4.6308,4.6308,4.6201,4.4826,4.3415,4.1259,3.9432,3.7236,3.5275,3.4522,3.3415,3.2131,3.2225,3.2433,3.2581,3.2621,3.242,3.2126,3.25,3.2768,3.2955,3.3106,3.3374,3.3414,3.3414,3.3414,3.3414,3.3414,3.3414,3.3414,3.3414,3.3414,3.3427,3.3427,3.3414,3.344,3.3534,3.3668,3.3908,3.4295,3.4469,3.4349,3.4389,3.4536,3.4389,3.4416,3.4656,3.4561,3.4614,3.4496,3.4416,3.4282,3.4135,3.4162,3.4135,3.3841,3.3534,3.3427,3.3427,3.3414,3.3414,3.3414,3.3414,3.3414,3.3414,3.3414,3.3414,3.3414,3.3414,3.3414,3.3414,3.351,3.4665,3.6254,3.61,3.5486,3.6283,3.7745,3.9949,4.1428,4.2417,4.4004,4.657,4.793,4.8273,4.8524,4.8801,4.8894,4.8894,4.8894,4.8894,4.9023,4.6308,4.6308,4.6308,4.6308,4.6308,4.6308,4.6308,4.6308,4.6308,4.6308,4.6308,4.6308,4.6308,4.6308,4.6308,4.6308,4.6308,4.6308,4.6308,4.6308,4.6308,4.6308,4.6308,4.6308,4.5939,4.4738,4.313,4.0898,3.8582,3.7067,3.5911,3.4695,3.3462,3.2144,3.2265,3.2438,3.2701,3.2795,3.2822,3.2728,3.2768,3.2888,3.2955,3.3053,3.324,3.3387,3.3414,3.3414,3.3414,3.3414,3.3414,3.3414,3.3414,3.3414,3.3414,3.3414,3.3414,3.3414,3.3454,3.3601,3.3748,3.3988,3.4442,3.4563,3.4389,3.4456,3.4603,3.4656,3.4683,3.4629,3.4534,3.4441,3.4295,3.4309,3.4148,3.3988,3.4082,3.4122,3.3788,3.3454,3.3414,3.3414,3.3414,3.3414,3.3414,3.3414,3.3414,3.3414,3.3414,3.3414,3.3414,3.3414,3.3414,3.3464,3.35,3.4286,3.5684,3.555,3.4905,3.482,3.5635,3.8977,4.1476,4.2911,4.4748,4.7353,4.832,4.8663,4.8848,4.8894,4.8894,4.8894,4.8894,4.8894,4.8894,4.6308,4.6308,4.6308,4.6308,4.6308,4.6308,4.6308,4.6308,4.6308,4.6308,4.6308,4.6308,4.6308,4.6308,4.6308,4.6308,4.6308,4.6308,4.6308,4.6308,4.6308,4.6308,4.6114,4.57,4.4933,4.2952,4.0582,3.8383,3.6344,3.5385,3.4363,3.2886,3.2763,3.2318,3.2759,3.2942,3.2973,3.3053,3.3106,3.308,3.2969,3.3022,3.2959,3.3093,3.3253,3.336,3.3414,3.3414,3.3414,3.3414,3.3414,3.3414,3.3414,3.3414,3.3414,3.3414,3.3414,3.3414,3.348,3.3521,3.3627,3.3814,3.4148,3.4242,3.4189,3.4295,3.4389,3.4416,3.4416,3.4376,3.4269,3.4255,3.4202,3.4402,3.4454,3.4242,3.4202,3.4042,3.3774,3.3547,3.3414,3.3414,3.3414,3.3414,3.3414,3.3414,3.3414,3.3414,3.3414,3.3414,3.3414,3.3414,3.3414,3.3414,3.3414,3.3414,3.4286,3.4286,3.4571,3.4869,3.6263,3.9156,4.1428,4.3309,4.5661,4.8273,4.8848,4.8894,4.8894,4.8894,4.8894,4.8894,4.8894,4.8894,4.8894]},{"header":{"parameterUnit":"m.s-1","parameterCategory":1,"la1":31.0,"la2":29.5877,"lo1":-88.7671,"lo2":-86.6584,"dy":0.0162,"dx":0.0185,"nx":115,"ny":88,"refTime":"2024-10-15T18:00:00:Z","depth":0,"parameterNumber":3,"parameterNumberName":"V-component_of_WINDS"},"data":[0.0,0.0,0.0,0.0,0.0,0.0,0.0,0.0,0.0,0.0,0.0,0.0,0.0,0.0,0.0,0.0,0.0,0.0,0.0,0.0,0.0,0.0,0.0,0.0,0.0,0.0,0.0,0.0,0.0,0.0,0.0,0.0,0.0,0.0,0.0,0.0,0.0,0.0,0.0,0.0,0.0,0.0,0.0,0.0,0.0,0.0,0.0,0.0,0.0,0.0,0.0,0.0,0.0,0.0,0.0,0.0,0.0,0.0,0.0,0.0,0.0,0.0,0.0,0.0,0.0,0.0,0.0,0.0,0.0,0.0,0.0,0.0,0.0,0.0,0.0,0.0,0.0,0.0,0.0,0.0,0.0,0.0,0.0,0.0,0.0,0.0,0.0,0.0,0.0,0.0,0.0,0.0,0.0,0.0,0.0,0.0,0.0,0.0,0.0,0.0,0.0,0.0,0.0,0.0,0.0,0.0,0.0,0.0,0.0,0.0,0.0,0.0,0.0,0.0,0.0,0.0,0.0,0.0,0.0,0.0,0.0,0.0,0.0,0.0,0.0,0.0,0.0,0.0,0.0,0.0,0.0,0.0,0.0,0.0,0.0,0.0,0.0,0.0,0.0,0.0,0.0,0.0,0.0,0.0,0.0,0.0,0.0,0.0,0.0,0.0,0.0,0.0,0.0,0.0,0.0,0.0,0.0,0.0,0.0,0.0,0.0,0.0,0.0,0.0,0.0,0.0,0.0,0.0,0.0,0.0,0.0,0.0,0.0,0.0,0.0,0.0,0.0,0.0,0.0,0.0,0.0,0.0,0.0,0.0,0.0,0.0,0.0,0.0,0.0,0.0,0.0,0.0,0.0,0.0,0.0,0.0,0.0,0.0,0.0,0.0,0.0,0.0,0.0,0.0,0.0,0.0,0.0,0.0,0.0,0.0,0.0,0.0,0.0,0.0,0.0,0.0,0.0,0.0,0.0,0.0,0.0,0.0,0.0,0.0,0.0,0.0,0.0,0.0,0.0,0.0,0.0,0.0,0.0,0.0,0.0,0.0,0.0,0.0,0.0,0.0,0.0,0.0,0.0,0.0,0.0,0.0,0.0,0.0,0.0,0.0,0.0,0.0,0.0,0.0,0.0,0.0,0.0,0.0,0.0,0.0,0.0,0.0,0.0,0.0,0.0,0.0,0.0,0.0,0.0,0.0,0.0,0.0,0.0,0.0,0.0,0.0,0.0,0.0,0.0,0.0,0.0,0.0,0.0,0.0,0.0,0.0,0.0,0.0,0.0,0.0,0.0,0.0,0.0,0.0,0.0,0.0,0.0,0.0,0.0,0.0,0.0,0.0,0.0,0.0,0.0,0.0,0.0,0.0,0.0,0.0,0.0,0.0,0.0,0.0,0.0,0.0,0.0,0.0,0.0,0.0,0.0,0.0,0.0,0.0,0.0,0.0,0.0,0.0,0.0,0.0,0.0,0.0,0.0,0.0,0.0,0.0,0.0,0.0,0.0,0.0,0.0,0.0,0.0,0.0,0.0,0.0,0.0,0.0,0.0,0.0,0.0,0.0,0.0,0.0,0.0,0.0,0.0,0.0,0.0,0.0,0.0,0.0,0.0,0.0,0.0,0.0,0.0,0.0,0.0,0.0,0.0,0.0,0.0,0.0,0.0,0.0,0.0,0.0,0.0,0.0,0.0,0.0,0.0,0.0,0.0,0.0,0.0,0.0,0.0,0.0,0.0,0.0,0.0,0.0,0.0,0.0,0.0,0.0,0.0,0.0,0.0,0.0,0.0,0.0,0.0,0.0,0.0,0.0,0.0,0.0,0.0,0.0,0.0,0.0,0.0,0.0,0.0,0.0,0.0,0.0,0.0,0.0,0.0,0.0,0.0,0.0,0.0,0.0,0.0,0.0,0.0,0.0,0.0,0.0,0.0,0.0,0.0,0.0,0.0,0.0,0.0,0.0,0.0,0.0,0.0,0.0,0.0,0.0,0.0,0.0,0.0,0.0,0.0,0.0,0.0,0.0,0.0,0.0,0.0,0.0,0.0,0.0,0.0,0.0,0.0,0.0,0.0,0.0,0.0,0.0,0.0,0.0,0.0,0.0,0.0,0.0,0.0,0.0,0.0,0.0,0.0,0.0,0.0,0.0,0.0,0.0,0.0,0.0,0.0,0.0,0.0,0.0,0.0,0.0,0.0,0.0,0.0,0.0,0.0,0.0,0.0,0.0,0.0,0.0,0.0,0.0,0.0,0.0,0.0,0.0,0.0,0.0,0.0,0.0,0.0,0.0,0.0,0.0,0.0,0.0,0.0,0.0,0.0,0.0,0.0,0.0,0.0,0.0,0.0,0.0,0.0,0.0,0.0,0.0,0.0,0.0,0.0,0.0,0.0,0.0,0.0,0.0,0.0,0.0,0.0,0.0,0.0,0.0,0.0,0.0,0.0,0.0,0.0,0.0,0.0,0.0,0.0,0.0,0.0,0.0,0.0,0.0,0.0,0.0,0.0,0.0,0.0,0.0,0.0,0.0,0.0,0.0,0.0,0.0,0.0,0.0,0.0,0.0,0.0,0.0,0.0,0.0,0.0,0.0,0.0,0.0,0.0,0.0,0.0,0.0,0.0,0.0,0.0,0.0,0.0,0.0,0.0,0.0,0.0,0.0,0.0,0.0,0.0,0.0,0.0,0.0,0.0,0.0,0.0,0.0,0.0,0.0,0.0,0.0,0.0,0.0,0.0,0.0,0.0,0.0,0.0,0.0,0.0,0.0,0.0,0.0,0.0,0.0,0.0,0.0,0.0,0.0,0.0,0.0,0.0,0.0,0.0,0.0,0.0,0.0,0.0,0.0,0.0,0.0,0.0,0.0,0.0,0.0,0.0,0.0,0.0,0.0,0.0,0.0,0.0,0.0,0.0,0.0,0.0,0.0,0.0,0.0,0.0,0.0,0.0,0.0,0.0,0.0,0.0,0.0,0.0,0.0,0.0,0.0,0.0,0.0,0.0,0.0,0.0,0.0,0.0,0.0,0.0,0.0,0.0,0.0,0.0,0.0,0.0,0.0,0.0,0.0,0.0,0.0,0.0,0.0,0.0,0.0,0.0,0.0,0.0,0.0,0.0,0.0,0.0,0.0,0.0,0.0,0.0,0.0,0.0,0.0,0.0,0.0,0.0,0.0,0.0,0.0,0.0,0.0,0.0,0.0,0.0,0.0,0.0,0.0,0.0,0.0,0.0,0.0,0.0,0.0,0.0,0.0,0.0,0.0,0.0,0.0,0.0,0.0,0.0,0.0,0.0,0.0,0.0,0.0,0.0,0.0,0.0,0.0,0.0,0.0,0.0,0.0,0.0,0.0,0.0,0.0,0.0,0.0,0.0,0.0,0.0,0.0,0.0,0.0,0.0,0.0,0.0,0.0,0.0,0.0,0.0,0.0,0.0,0.0,0.0,0.0,0.0,0.0,0.0,0.0,0.0,0.0,0.0,0.0,0.0,0.0,0.0,0.0,0.0,0.0,0.0,0.0,0.0,0.0,0.0,0.0,0.0,0.0,0.0,0.0,0.0,0.0,0.0,0.0,0.0,0.0,0.0,0.0,0.0,0.0,0.0,0.0,0.0,0.0,0.0,0.0,0.0,0.0,0.0,0.0,0.0,0.0,0.0,0.0,0.0,0.0,0.0,0.0,0.0,0.0,0.0,0.0,0.0,0.0,0.0,0.0,0.0,0.0,0.0,0.0,0.0,0.0,0.0,0.0,0.0,0.0,0.0,0.0,0.0,0.0,0.0,0.0,0.0,0.0,0.0,0.0,0.0,0.0,0.0,0.0,0.0,0.0,0.0,0.0,0.0,0.0,0.0,0.0,0.0,0.0,0.0,0.0,0.0,0.0,0.0,0.0,0.0,0.0,0.0,0.0,0.0,0.0,0.0,0.0,0.0,0.0,0.0,0.0,0.0,0.0,0.0,0.0,0.0,0.0,0.0,0.0,0.0,0.0,0.0,0.0,0.0,0.0,0.0,0.0,0.0,0.0,0.0,0.0,0.0,0.0,0.0,0.0,0.0,0.0,0.0,0.0,0.0,0.0,0.0,0.0,0.0,0.0,0.0,0.0,0.0,0.0,0.0,0.0,0.0,0.0,0.0,0.0,0.0,0.0,0.0,0.0,0.0,0.0,0.0,0.0,0.0,0.0,0.0,0.0,0.0,0.0,0.0,0.0,0.0,0.0,0.0,0.0,0.0,0.0,0.0,0.0,0.0,0.0,0.0,0.0,0.0,0.0,0.0,0.0,2.9711,0.0,0.0,0.0,0.0,0.0,0.0,0.0,0.0,0.0,0.0,0.0,0.0,0.0,0.0,0.0,0.0,0.0,0.0,0.0,0.0,0.0,0.0,0.0,0.0,0.0,0.0,0.0,0.0,0.0,0.0,0.0,0.0,0.0,0.0,0.0,0.0,0.0,0.0,0.0,0.0,0.0,0.0,0.0,0.0,0.0,0.0,0.0,0.0,0.0,0.0,0.0,0.0,0.0,0.0,0.0,0.0,0.0,0.0,0.0,0.0,0.0,0.0,0.0,0.0,0.0,0.0,0.0,0.0,0.0,0.0,0.0,0.0,0.0,0.0,0.0,0.0,0.0,0.0,0.0,0.0,0.0,0.0,0.0,0.0,0.0,0.0,0.0,0.0,0.0,0.0,0.0,0.0,0.0,0.0,0.0,0.0,0.0,0.0,0.0,0.0,0.0,0.0,0.0,0.0,0.0,0.0,0.0,0.0,0.0,0.0,3.0987,3.1017,3.0117,2.9749,3.001,0.0,0.0,0.0,0.0,0.0,0.0,0.0,0.0,0.0,0.0,0.0,0.0,0.0,0.0,0.0,0.0,0.0,0.0,0.0,0.0,0.0,0.0,0.0,0.0,0.0,0.0,0.0,0.0,0.0,0.0,0.0,0.0,0.0,0.0,0.0,0.0,0.0,0.0,0.0,0.0,0.0,0.0,0.0,0.0,0.0,0.0,0.0,0.0,0.0,0.0,0.0,0.0,0.0,0.0,0.0,0.0,0.0,0.0,0.0,0.0,0.0,0.0,0.0,0.0,0.0,0.0,0.0,0.0,0.0,0.0,0.0,0.0,0.0,0.0,0.0,0.0,0.0,0.0,0.0,0.0,0.0,0.0,0.0,0.0,0.0,0.0,0.0,0.0,0.0,0.0,0.0,0.0,0.0,0.0,0.0,0.0,0.0,0.0,0.0,0.0,0.0,0.0,0.0,0.0,0.0,0.0,0.0,0.0,0.0,0.0,0.0,0.0,3.0538,3.0165,3.0404,0.0,0.0,0.0,0.0,0.0,0.0,0.0,0.0,0.0,0.0,0.0,0.0,0.0,0.0,0.0,0.0,0.0,0.0,0.0,0.0,0.0,0.0,0.0,0.0,0.0,0.0,0.0,0.0,0.0,0.0,0.0,0.0,0.0,0.0,0.0,0.0,0.0,0.0,0.0,0.0,0.0,0.0,0.0,0.0,0.0,0.0,0.0,0.0,0.0,0.0,0.0,0.0,0.0,0.0,0.0,0.0,0.0,0.0,0.0,0.0,0.0,0.0,0.0,0.0,0.0,0.0,0.0,0.0,0.0,0.0,0.0,0.0,0.0,0.0,0.0,0.0,0.0,0.0,0.0,0.0,0.0,0.0,0.0,0.0,0.0,0.0,0.0,0.0,0.0,0.0,0.0,0.0,0.0,0.0,0.0,0.0,0.0,0.0,0.0,0.0,0.0,0.0,0.0,0.0,0.0,0.0,0.0,0.0,0.0,0.0,3.0807,3.1481,3.1361,0.0,3.0294,0.0,0.0,0.0,0.0,0.0,0.0,0.0,0.0,0.0,0.0,0.0,0.0,0.0,0.0,0.0,0.0,0.0,0.0,0.0,0.0,0.0,0.0,0.0,0.0,0.0,0.0,0.0,0.0,0.0,0.0,0.0,0.0,0.0,0.0,0.0,0.0,0.0,0.0,0.0,0.0,0.0,0.0,0.0,0.0,0.0,0.0,0.0,0.0,0.0,0.0,0.0,0.0,0.0,0.0,0.0,0.0,0.0,0.0,0.0,0.0,0.0,0.0,0.0,0.0,0.0,0.0,0.0,0.0,0.0,0.0,0.0,0.0,0.0,0.0,0.0,0.0,0.0,0.0,0.0,0.0,0.0,0.0,0.0,0.0,0.0,0.0,0.0,0.0,0.0,0.0,0.0,0.0,0.0,0.0,0.0,0.0,0.0,0.0,0.0,0.0,0.0,0.0,0.0,0.0,0.0,0.0,0.0,0.0,0.0,0.0,0.0,3.1481,3.1039,3.042,0.0,0.0,0.0,0.0,0.0,0.0,0.0,0.0,0.0,0.0,0.0,0.0,0.0,0.0,0.0,0.0,0.0,0.0,0.0,0.0,0.0,0.0,0.0,0.0,0.0,0.0,0.0,0.0,0.0,0.0,0.0,0.0,0.0,0.0,0.0,0.0,0.0,0.0,0.0,0.0,0.0,0.0,0.0,0.0,0.0,0.0,0.0,0.0,0.0,0.0,0.0,0.0,0.0,0.0,0.0,0.0,0.0,0.0,0.0,0.0,0.0,0.0,0.0,0.0,0.0,0.0,0.0,0.0,0.0,0.0,0.0,0.0,0.0,0.0,0.0,0.0,0.0,0.0,0.0,0.0,0.0,0.0,0.0,0.0,0.0,0.0,0.0,0.0,0.0,0.0,0.0,0.0,0.0,0.0,0.0,0.0,0.0,0.0,0.0,0.0,0.0,0.0,0.0,0.0,0.0,0.0,0.0,0.0,0.0,0.0,3.0462,0.0,3.1918,3.1314,3.046,2.9372,0.0,0.0,0.0,0.0,0.0,0.0,0.0,0.0,0.0,0.0,0.0,0.0,0.0,0.0,0.0,0.0,0.0,0.0,0.0,0.0,0.0,0.0,0.0,0.0,0.0,0.0,0.0,0.0,0.0,0.0,0.0,0.0,0.0,0.0,0.0,0.0,0.0,0.0,0.0,0.0,0.0,0.0,0.0,0.0,0.0,0.0,0.0,0.0,0.0,0.0,0.0,0.0,0.0,0.0,0.0,0.0,0.0,0.0,0.0,0.0,0.0,0.0,0.0,0.0,0.0,0.0,0.0,0.0,0.0,0.0,0.0,0.0,0.0,0.0,0.0,0.0,0.0,0.0,0.0,0.0,0.0,0.0,0.0,0.0,0.0,0.0,0.0,0.0,0.0,0.0,0.0,0.0,0.0,0.0,0.0,0.0,0.0,0.0,0.0,0.0,0.0,0.0,0.0,0.0,0.0,0.0,0.0,0.0,0.0,3.1106,3.1387,3.3218,3.2863,3.1773,0.0,0.0,0.0,0.0,0.0,0.0,0.0,0.0,0.0,0.0,0.0,0.0,0.0,0.0,0.0,0.0,0.0,0.0,0.0,0.0,0.0,0.0,0.0,0.0,0.0,0.0,0.0,0.0,0.0,0.0,0.0,0.0,0.0,0.0,0.0,0.0,0.0,0.0,0.0,0.0,0.0,0.0,0.0,0.0,0.0,0.0,0.0,0.0,0.0,0.0,0.0,0.0,0.0,0.0,0.0,0.0,0.0,0.0,0.0,0.0,0.0,0.0,0.0,0.0,0.0,0.0,0.0,0.0,0.0,0.0,0.0,0.0,0.0,0.0,0.0,0.0,0.0,0.0,0.0,0.0,0.0,0.0,0.0,0.0,0.0,0.0,0.0,0.0,0.0,0.0,0.0,0.0,0.0,0.0,0.0,0.0,0.0,0.0,0.0,0.0,0.0,0.0,0.0,0.0,0.0,0.0,0.0,0.0,0.0,2.9338,2.9728,3.1248,3.3864,3.1699,3.0481,0.0,0.0,0.0,0.0,0.0,0.0,0.0,0.0,0.0,0.0,0.0,0.0,0.0,0.0,0.0,0.0,0.0,0.0,0.0,0.0,0.0,0.0,0.0,0.0,0.0,0.0,0.0,0.0,0.0,0.0,0.0,0.0,0.0,0.0,0.0,0.0,0.0,0.0,0.0,0.0,0.0,0.0,0.0,0.0,0.0,0.0,0.0,0.0,0.0,0.0,0.0,0.0,0.0,0.0,0.0,0.0,0.0,0.0,0.0,0.0,0.0,0.0,0.0,0.0,0.0,0.0,0.0,0.0,0.0,0.0,0.0,0.0,0.0,0.0,0.0,0.0,0.0,0.0,0.0,0.0,0.0,0.0,0.0,0.0,0.0,0.0,0.0,0.0,0.0,0.0,0.0,0.0,0.0,0.0,0.0,0.0,0.0,0.0,0.0,0.0,0.0,0.0,0.0,0.0,0.0,0.0,0.0,0.0,0.0,2.8889,0.0,3.1805,0.0,3.1526,3.0208,0.0,0.0,0.0,0.0,0.0,0.0,0.0,0.0,0.0,0.0,0.0,0.0,0.0,0.0,0.0,0.0,0.0,0.0,0.0,0.0,0.0,0.0,0.0,0.0,0.0,0.0,0.0,0.0,0.0,0.0,0.0,0.0,0.0,0.0,0.0,0.0,0.0,0.0,0.0,0.0,0.0,0.0,0.0,0.0,0.0,0.0,0.0,0.0,0.0,0.0,0.0,0.0,0.0,0.0,0.0,0.0,0.0,0.0,0.0,0.0,0.0,0.0,0.0,0.0,0.0,0.0,0.0,0.0,0.0,0.0,0.0,0.0,0.0,0.0,0.0,0.0,0.0,0.0,0.0,0.0,0.0,0.0,0.0,0.0,0.0,0.0,0.0,0.0,0.0,0.0,0.0,0.0,0.0,0.0,0.0,0.0,0.0,0.0,0.0,0.0,0.0,0.0,0.0,0.0,0.0,0.0,0.0,0.0,0.0,3.1361,3.2662,3.3049,3.2505,3.2519,3.1228,0.0,0.0,0.0,0.0,0.0,0.0,0.0,0.0,0.0,0.0,0.0,0.0,0.0,0.0,0.0,0.0,0.0,0.0,0.0,0.0,0.0,0.0,0.0,0.0,0.0,0.0,0.0,0.0,0.0,0.0,0.0,0.0,0.0,0.0,0.0,0.0,0.0,0.0,0.0,0.0,0.0,0.0,0.0,0.0,0.0,0.0,0.0,0.0,0.0,0.0,0.0,0.0,0.0,0.0,0.0,0.0,0.0,0.0,0.0,0.0,0.0,0.0,0.0,0.0,0.0,0.0,0.0,0.0,0.0,0.0,0.0,0.0,0.0,0.0,0.0,0.0,0.0,0.0,0.0,0.0,0.0,0.0,0.0,0.0,0.0,0.0,0.0,0.0,0.0,0.0,0.0,0.0,0.0,0.0,0.0,0.0,0.0,0.0,0.0,0.0,0.0,0.0,0.0,0.0,0.0,0.0,0.0,0.0,0.0,3.0807,3.1675,3.2916,3.4363,3.2222,3.117,0.0,0.0,0.0,0.0,0.0,0.0,0.0,0.0,0.0,0.0,0.0,0.0,0.0,0.0,0.0,0.0,0.0,0.0,0.0,0.0,0.0,0.0,0.0,0.0,0.0,0.0,0.0,0.0,0.0,0.0,0.0,0.0,0.0,0.0,0.0,0.0,0.0,0.0,0.0,0.0,0.0,0.0,0.0,0.0,0.0,0.0,0.0,0.0,0.0,0.0,0.0,0.0,0.0,0.0,0.0,0.0,0.0,0.0,0.0,0.0,0.0,0.0,0.0,0.0,0.0,0.0,0.0,0.0,0.0,0.0,0.0,0.0,0.0,0.0,0.0,0.0,0.0,0.0,0.0,0.0,0.0,0.0,0.0,0.0,0.0,0.0,0.0,0.0,0.0,0.0,0.0,0.0,0.0,0.0,0.0,0.0,0.0,0.0,0.0,0.0,0.0,0.0,0.0,0.0,0.0,0.0,0.0,0.0,0.0,3.2377,3.302,3.3918,3.5116,3.2973,3.1892,3.2038,0.0,0.0,0.0,0.0,0.0,0.0,0.0,0.0,0.0,0.0,0.0,0.0,0.0,0.0,0.0,0.0,0.0,0.0,0.0,0.0,0.0,0.0,0.0,0.0,0.0,0.0,0.0,0.0,0.0,0.0,0.0,0.0,0.0,0.0,0.0,0.0,0.0,0.0,0.0,0.0,0.0,0.0,0.0,0.0,0.0,0.0,0.0,0.0,0.0,0.0,0.0,0.0,0.0,0.0,0.0,0.0,0.0,0.0,0.0,0.0,0.0,0.0,0.0,0.0,0.0,0.0,0.0,0.0,0.0,0.0,0.0,0.0,0.0,0.0,0.0,0.0,0.0,0.0,0.0,0.0,0.0,0.0,0.0,0.0,0.0,0.0,0.0,0.0,0.0,0.0,0.0,0.0,0.0,0.0,0.0,0.0,0.0,0.0,0.0,0.0,0.0,0.0,0.0,0.0,0.0,0.0,0.0,0.0,3.5609,3.6327,3.6137,3.4958,3.468,3.3328,0.0,0.0,0.0,0.0,0.0,0.0,0.0,0.0,0.0,0.0,0.0,0.0,0.0,0.0,0.0,0.0,0.0,0.0,0.0,0.0,0.0,0.0,0.0,0.0,0.0,0.0,0.0,0.0,0.0,0.0,0.0,0.0,0.0,0.0,0.0,0.0,0.0,0.0,0.0,0.0,0.0,0.0,0.0,0.0,0.0,0.0,0.0,0.0,0.0,0.0,0.0,0.0,0.0,0.0,0.0,0.0,0.0,0.0,0.0,0.0,0.0,0.0,0.0,0.0,0.0,0.0,0.0,0.0,0.0,0.0,0.0,0.0,0.0,0.0,0.0,0.0,0.0,0.0,0.0,0.0,0.0,0.0,0.0,0.0,0.0,0.0,0.0,0.0,0.0,0.0,0.0,0.0,0.0,0.0,0.0,0.0,0.0,0.0,0.0,0.0,0.0,0.0,0.0,0.0,0.0,0.0,0.0,0.0,0.0,3.6849,3.8512,3.9285,3.9043,3.656,3.5336,0.0,0.0,0.0,0.0,0.0,0.0,0.0,0.0,0.0,0.0,0.0,0.0,0.0,0.0,0.0,0.0,0.0,0.0,0.0,0.0,0.0,0.0,0.0,0.0,0.0,0.0,0.0,0.0,0.0,0.0,0.0,0.0,0.0,0.0,0.0,0.0,0.0,0.0,0.0,0.0,0.0,0.0,0.0,0.0,0.0,0.0,0.0,0.0,0.0,0.0,0.0,0.0,0.0,0.0,0.0,0.0,0.0,0.0,0.0,0.0,0.0,0.0,0.0,0.0,0.0,0.0,0.0,0.0,0.0,0.0,0.0,0.0,0.0,0.0,0.0,0.0,0.0,0.0,0.0,0.0,0.0,0.0,0.0,0.0,0.0,0.0,0.0,0.0,0.0,0.0,0.0,0.0,0.0,0.0,0.0,0.0,0.0,0.0,0.0,0.0,0.0,0.0,0.0,0.0,0.0,0.0,0.0,0.0,3.7272,3.9195,4.1036,4.2031,4.2077,3.9217,3.7484,0.0,0.0,0.0,0.0,0.0,0.0,0.0,0.0,0.0,0.0,0.0,0.0,0.0,0.0,0.0,0.0,0.0,0.0,0.0,0.0,0.0,0.0,0.0,0.0,0.0,0.0,0.0,0.0,0.0,0.0,0.0,0.0,0.0,0.0,0.0,0.0,0.0,0.0,0.0,0.0,0.0,0.0,0.0,0.0,0.0,0.0,0.0,0.0,0.0,0.0,0.0,0.0,0.0,0.0,0.0,0.0,0.0,0.0,0.0,0.0,0.0,0.0,0.0,0.0,0.0,0.0,0.0,0.0,0.0,0.0,0.0,0.0,0.0,0.0,0.0,0.0,0.0,0.0,0.0,0.0,0.0,0.0,0.0,0.0,0.0,0.0,0.0,0.0,0.0,0.0,0.0,0.0,0.0,0.0,0.0,0.0,0.0,0.0,0.0,0.0,0.0,0.0,0.0,0.0,0.0,0.0,0.0,0.0,4.0005,4.1928,4.3546,4.4338,4.4193,4.1965,3.9589,0.0,0.0,0.0,0.0,0.0,0.0,0.0,0.0,0.0,0.0,0.0,0.0,0.0,0.0,0.0,0.0,0.0,0.0,0.0,0.0,0.0,0.0,0.0,0.0,0.0,0.0,0.0,0.0,0.0,0.0,0.0,0.0,0.0,0.0,0.0,0.0,0.0,0.0,0.0,0.0,0.0,0.0,0.0,0.0,0.0,0.0,0.0,0.0,0.0,0.0,0.0,0.0,0.0,0.0,0.0,0.0,0.0,0.0,0.0,0.0,0.0,0.0,0.0,0.0,0.0,0.0,0.0,0.0,0.0,0.0,0.0,0.0,0.0,0.0,0.0,0.0,0.0,0.0,0.0,0.0,0.0,0.0,0.0,0.0,0.0,0.0,0.0,0.0,0.0,0.0,0.0,0.0,0.0,0.0,0.0,0.0,0.0,0.0,0.0,0.0,0.0,0.0,0.0,0.0,0.0,0.0,0.0,0.0,4.1478,4.3619,4.5051,4.5831,4.5963,4.2727,4.0451,0.0,0.0,0.0,0.0,0.0,0.0,0.0,0.0,0.0,0.0,0.0,0.0,0.0,0.0,0.0,0.0,0.0,0.0,0.0,0.0,0.0,0.0,0.0,0.0,0.0,0.0,0.0,0.0,0.0,0.0,0.0,0.0,0.0,0.0,0.0,0.0,0.0,0.0,0.0,0.0,0.0,0.0,0.0,0.0,0.0,0.0,0.0,0.0,3.6479,0.0,0.0,0.0,0.0,0.0,0.0,0.0,0.0,0.0,0.0,0.0,0.0,0.0,0.0,0.0,0.0,0.0,0.0,0.0,0.0,0.0,0.0,0.0,0.0,0.0,0.0,0.0,0.0,0.0,0.0,0.0,0.0,0.0,0.0,0.0,0.0,0.0,0.0,0.0,0.0,0.0,0.0,0.0,0.0,0.0,0.0,0.0,0.0,0.0,0.0,0.0,0.0,0.0,0.0,0.0,0.0,0.0,0.0,0.0,4.4066,4.5056,4.6989,4.7539,4.6469,4.4348,4.237,0.0,0.0,0.0,0.0,0.0,0.0,0.0,0.0,0.0,0.0,0.0,0.0,0.0,0.0,0.0,0.0,0.0,0.0,0.0,0.0,0.0,0.0,0.0,0.0,0.0,0.0,0.0,0.0,0.0,0.0,0.0,0.0,0.0,0.0,0.0,0.0,0.0,0.0,0.0,0.0,0.0,0.0,0.0,0.0,0.0,0.0,0.0,0.0,0.0,0.0,0.0,0.0,0.0,0.0,0.0,0.0,0.0,0.0,0.0,0.0,0.0,0.0,0.0,0.0,0.0,0.0,0.0,0.0,0.0,0.0,0.0,0.0,0.0,0.0,0.0,0.0,0.0,0.0,0.0,0.0,0.0,0.0,0.0,0.0,0.0,0.0,0.0,0.0,0.0,0.0,0.0,0.0,0.0,0.0,0.0,0.0,0.0,0.0,0.0,0.0,0.0,0.0,0.0,0.0,0.0,0.0,0.0,4.4496,4.6438,4.6722,4.8893,4.9061,4.6959,4.6212,4.4437,4.1461,0.0,0.0,0.0,0.0,0.0,0.0,0.0,0.0,0.0,0.0,0.0,0.0,0.0,0.0,0.0,0.0,0.0,0.0,0.0,0.0,0.0,0.0,0.0,0.0,0.0,0.0,0.0,0.0,0.0,0.0,0.0,0.0,0.0,0.0,0.0,0.0,0.0,0.0,3.5047,3.6411,0.0,0.0,0.0,0.0,0.0,0.0,0.0,0.0,3.8667,0.0,0.0,0.0,0.0,0.0,0.0,0.0,0.0,0.0,0.0,0.0,0.0,0.0,0.0,0.0,0.0,0.0,0.0,0.0,0.0,0.0,0.0,0.0,0.0,0.0,0.0,0.0,0.0,0.0,0.0,0.0,0.0,0.0,0.0,0.0,0.0,0.0,0.0,0.0,0.0,0.0,0.0,0.0,0.0,0.0,0.0,0.0,0.0,0.0,0.0,0.0,0.0,0.0,0.0,0.0,0.0,4.6419,4.5342,4.6241,4.9351,4.9857,4.9598,4.8581,4.732,4.5196,4.2219,0.0,0.0,0.0,0.0,0.0,0.0,0.0,0.0,0.0,0.0,0.0,0.0,0.0,0.0,0.0,0.0,0.0,0.0,0.0,0.0,0.0,0.0,0.0,0.0,0.0,0.0,0.0,0.0,0.0,0.0,0.0,0.0,0.0,0.0,0.0,0.0,0.0,0.0,0.0,3.9017,3.9592,0.0,0.0,0.0,0.0,0.0,0.0,0.0,0.0,3.9174,0.0,0.0,0.0,0.0,0.0,0.0,0.0,0.0,0.0,0.0,0.0,0.0,0.0,0.0,0.0,0.0,0.0,0.0,0.0,0.0,0.0,0.0,0.0,0.0,0.0,0.0,0.0,0.0,0.0,0.0,0.0,0.0,0.0,0.0,0.0,0.0,0.0,0.0,0.0,0.0,0.0,0.0,0.0,0.0,0.0,0.0,0.0,0.0,0.0,0.0,0.0,0.0,0.0,0.0,0.0,4.5665,4.7192,4.853,4.9842,5.0401,5.0135,4.8984,4.6834,4.4601,0.0,0.0,0.0,0.0,0.0,0.0,0.0,0.0,0.0,0.0,0.0,0.0,0.0,0.0,0.0,0.0,0.0,0.0,0.0,0.0,0.0,0.0,0.0,0.0,0.0,0.0,0.0,0.0,0.0,0.0,0.0,0.0,0.0,0.0,0.0,0.0,0.0,0.0,0.0,0.0,4.0189,4.0811,4.1204,0.0,0.0,0.0,0.0,0.0,0.0,3.9817,3.9817,0.0,0.0,0.0,0.0,0.0,0.0,0.0,0.0,0.0,0.0,0.0,0.0,0.0,0.0,0.0,0.0,0.0,0.0,0.0,0.0,0.0,0.0,0.0,0.0,0.0,0.0,0.0,0.0,0.0,0.0,0.0,0.0,0.0,0.0,0.0,0.0,0.0,0.0,0.0,0.0,0.0,0.0,0.0,0.0,0.0,0.0,0.0,0.0,0.0,0.0,0.0,0.0,0.0,0.0,0.0,4.4659,4.8694,5.0609,5.027,5.0859,5.0558,4.9221,4.6496,4.4195,0.0,0.0,0.0,0.0,0.0,0.0,0.0,0.0,0.0,0.0,0.0,0.0,0.0,0.0,0.0,0.0,0.0,0.0,0.0,0.0,0.0,0.0,0.0,0.0,0.0,0.0,0.0,0.0,0.0,0.0,0.0,0.0,0.0,0.0,0.0,0.0,0.0,0.0,0.0,0.0,0.0,4.2219,4.2489,4.2016,0.0,0.0,0.0,0.0,4.1001,4.1238,0.0,0.0,0.0,0.0,0.0,0.0,0.0,0.0,0.0,0.0,0.0,0.0,0.0,0.0,0.0,0.0,0.0,0.0,0.0,0.0,0.0,0.0,0.0,0.0,0.0,0.0,0.0,0.0,0.0,0.0,0.0,0.0,0.0,0.0,0.0,0.0,0.0,0.0,0.0,0.0,0.0,0.0,0.0,0.0,0.0,0.0,0.0,0.0,0.0,0.0,0.0,0.0,0.0,0.0,0.0,0.0,4.6324,4.8292,5.0143,5.1882,5.1457,5.0811,4.9981,4.7748,4.521,0.0,0.0,0.0,0.0,0.0,0.0,0.0,0.0,0.0,0.0,0.0,0.0,0.0,0.0,0.0,0.0,0.0,0.0,0.0,0.0,0.0,0.0,0.0,0.0,0.0,0.0,0.0,0.0,0.0,0.0,0.0,0.0,0.0,0.0,0.0,0.0,0.0,0.0,0.0,0.0,0.0,4.4722,4.3457,4.3186,4.3335,0.0,0.0,4.4073,4.4107,4.5176,0.0,0.0,0.0,0.0,0.0,0.0,0.0,0.0,0.0,0.0,0.0,0.0,0.0,0.0,0.0,0.0,0.0,0.0,0.0,0.0,0.0,0.0,0.0,0.0,0.0,0.0,0.0,0.0,0.0,0.0,0.0,0.0,0.0,0.0,0.0,0.0,0.0,0.0,0.0,0.0,0.0,0.0,0.0,0.0,0.0,0.0,0.0,0.0,0.0,0.0,0.0,0.0,0.0,0.0,0.0,4.3246,4.6722,4.9512,5.1328,5.2249,5.1979,5.1285,5.015,4.7564,4.4756,0.0,0.0,0.0,0.0,0.0,0.0,0.0,0.0,0.0,0.0,0.0,0.0,0.0,0.0,0.0,0.0,0.0,0.0,0.0,0.0,0.0,0.0,0.0,0.0,0.0,0.0,0.0,0.0,0.0,0.0,0.0,0.0,0.0,0.0,0.0,0.0,0.0,0.0,0.0,0.0,0.0,0.0,4.4708,4.506,0.0,0.0,0.0,4.5819,4.5853,0.0,0.0,0.0,0.0,0.0,0.0,0.0,0.0,0.0,0.0,0.0,0.0,0.0,0.0,0.0,0.0,0.0,0.0,0.0,0.0,0.0,0.0,0.0,0.0,0.0,0.0,0.0,0.0,0.0,0.0,0.0,0.0,0.0,0.0,0.0,0.0,0.0,0.0,0.0,0.0,0.0,0.0,0.0,0.0,0.0,0.0,0.0,0.0,0.0,0.0,0.0,0.0,0.0,0.0,0.0,0.0,0.0,4.7361,5.0811,5.2706,5.2841,5.2503,5.1691,5.0371,4.7699,0.0,0.0,0.0,0.0,0.0,0.0,0.0,0.0,0.0,0.0,0.0,0.0,0.0,0.0,0.0,0.0,0.0,0.0,0.0,0.0,0.0,0.0,0.0,0.0,0.0,0.0,0.0,0.0,0.0,0.0,0.0,0.0,0.0,0.0,0.0,0.0,0.0,0.0,0.0,0.0,0.0,0.0,4.5413,4.6128,4.6887,4.7462,0.0,0.0,4.7767,4.7394,4.7192,4.623,0.0,0.0,0.0,0.0,0.0,0.0,0.0,0.0,0.0,0.0,0.0,0.0,0.0,0.0,0.0,0.0,0.0,0.0,0.0,0.0,0.0,0.0,0.0,0.0,0.0,0.0,0.0,0.0,0.0,0.0,0.0,0.0,0.0,0.0,0.0,0.0,0.0,0.0,0.0,0.0,0.0,0.0,0.0,0.0,0.0,0.0,0.0,0.0,0.0,0.0,0.0,0.0,0.0,0.0,0.0,4.8849,5.186,5.3754,5.438,5.3044,5.1928,5.1133,4.8935,4.6027,0.0,0.0,0.0,0.0,0.0,0.0,0.0,0.0,0.0,0.0,0.0,0.0,0.0,0.0,0.0,0.0,0.0,0.0,0.0,0.0,0.0,0.0,0.0,0.0,0.0,0.0,0.0,0.0,0.0,0.0,0.0,0.0,0.0,0.0,0.0,0.0,0.0,0.0,0.0,0.0,0.0,4.6921,4.765,4.8409,4.9357,0.0,0.0,5.0423,4.907,4.995,4.9172,4.4201,0.0,0.0,0.0,0.0,0.0,0.0,0.0,0.0,0.0,0.0,0.0,0.0,0.0,0.0,0.0,0.0,0.0,0.0,0.0,0.0,0.0,0.0,0.0,0.0,0.0,0.0,0.0,0.0,0.0,0.0,0.0,0.0,0.0,0.0,0.0,0.0,0.0,0.0,0.0,0.0,0.0,0.0,0.0,0.0,0.0,0.0,0.0,0.0,0.0,0.0,0.0,0.0,0.0,4.6955,4.9003,5.2858,5.4769,5.4566,5.3991,5.3112,5.1928,5.0168,4.7278,0.0,0.0,0.0,0.0,0.0,0.0,0.0,0.0,0.0,0.0,0.0,0.0,0.0,0.0,0.0,0.0,0.0,0.0,0.0,0.0,0.0,0.0,0.0,0.0,0.0,0.0,0.0,0.0,3.5159,3.5893,3.6896,0.0,0.0,0.0,0.0,0.0,0.0,0.0,0.0,0.0,0.0,4.7887,4.9086,4.9882,0.0,0.0,5.1201,5.1167,5.1048,4.9984,4.8496,4.65,4.4891,0.0,0.0,0.0,0.0,0.0,0.0,0.0,0.0,0.0,0.0,0.0,0.0,0.0,0.0,0.0,0.0,0.0,0.0,0.0,0.0,0.0,0.0,0.0,0.0,0.0,0.0,0.0,0.0,0.0,0.0,0.0,0.0,0.0,0.0,0.0,0.0,0.0,0.0,0.0,0.0,0.0,0.0,0.0,0.0,0.0,0.0,0.0,0.0,0.0,0.0,0.0,0.0,4.753,4.9661,5.345,5.5344,5.526,5.4837,5.3991,5.2672,5.098,4.8206,0.0,0.0,0.0,0.0,0.0,0.0,0.0,0.0,0.0,0.0,0.0,0.0,0.0,0.0,0.0,0.0,0.0,0.0,0.0,0.0,0.0,0.0,0.0,0.0,0.0,0.0,0.0,0.0,3.7202,3.7664,3.8159,0.0,0.0,0.0,0.0,0.0,0.0,0.0,0.0,0.0,0.0,4.9003,5.0236,5.0863,5.1269,5.1505,5.1336,5.1302,5.1589,5.0254,4.8766,4.7447,0.0,0.0,0.0,0.0,0.0,0.0,0.0,0.0,0.0,0.0,0.0,0.0,0.0,0.0,0.0,0.0,0.0,0.0,0.0,0.0,0.0,0.0,0.0,0.0,0.0,0.0,0.0,0.0,0.0,0.0,3.4254,0.0,0.0,0.0,0.0,0.0,0.0,0.0,0.0,0.0,0.0,0.0,0.0,0.0,0.0,0.0,0.0,0.0,0.0,0.0,0.0,0.0,0.0,0.0,5.11,5.3484,5.5344,5.663,5.5344,5.4228,5.345,5.1285,4.8729,4.5703,0.0,0.0,0.0,0.0,0.0,0.0,0.0,0.0,0.0,0.0,0.0,0.0,0.0,0.0,0.0,0.0,0.0,0.0,0.0,0.0,0.0,0.0,0.0,0.0,0.0,0.0,3.6863,3.8103,3.8949,0.0,0.0,0.0,0.0,0.0,0.0,0.0,0.0,0.0,0.0,4.9154,5.0338,5.11,5.1235,5.1539,5.2198,5.1674,5.0998,5.0405,5.1285,5.0744,0.0,0.0,0.0,0.0,0.0,0.0,0.0,0.0,0.0,0.0,0.0,0.0,0.0,0.0,0.0,0.0,0.0,0.0,0.0,0.0,0.0,0.0,0.0,0.0,0.0,0.0,0.0,3.7666,3.7877,0.0,0.0,0.0,0.0,0.0,0.0,0.0,0.0,0.0,0.0,0.0,4.3849,4.5115,0.0,0.0,0.0,0.0,0.0,0.0,0.0,0.0,0.0,0.0,0.0,0.0,4.8969,5.1235,5.4414,5.6325,5.6765,5.5852,5.4972,5.4228,5.2503,4.9492,4.5108,0.0,0.0,0.0,0.0,0.0,0.0,0.0,0.0,0.0,0.0,0.0,0.0,0.0,0.0,0.0,0.0,0.0,0.0,0.0,0.0,0.0,0.0,0.0,0.0,0.0,3.8442,0.0,0.0,0.0,0.0,0.0,0.0,0.0,0.0,0.0,0.0,0.0,4.7887,4.9848,5.0947,5.186,5.2604,5.3179,5.3382,0.0,0.0,0.0,0.0,0.0,0.0,0.0,0.0,0.0,0.0,0.0,0.0,0.0,0.0,5.4803,4.9898,4.8206,4.7597,4.7868,0.0,0.0,0.0,0.0,0.0,0.0,0.0,0.0,0.0,0.0,0.0,0.0,0.0,0.0,0.0,0.0,4.0472,0.0,0.0,0.0,0.0,0.0,0.0,0.0,0.0,4.6225,4.7545,4.8037,4.9273,4.9458,0.0,4.8748,4.6752,0.0,0.0,0.0,0.0,0.0,0.0,0.0,0.0,4.9984,5.2013,5.4905,5.6664,5.7103,5.5953,5.5209,5.4938,5.2739,4.9695,4.5872,4.3842,4.163,0.0,0.0,0.0,0.0,0.0,0.0,0.0,0.0,0.0,0.0,0.0,0.0,0.0,0.0,0.0,0.0,0.0,0.0,0.0,0.0,0.0,0.0,0.0,3.9952,0.0,0.0,0.0,0.0,0.0,0.0,0.0,0.0,0.0,4.6989,4.8597,5.0491,5.2164,5.301,5.3585,5.3856,0.0,0.0,0.0,0.0,0.0,0.0,0.0,5.2503,5.3687,5.3112,5.2773,5.3721,5.6359,5.8186,5.7679,0.0,0.0,5.3856,5.2232,5.1792,5.2029,5.3044,5.3704,5.3247,5.4938,5.6292,0.0,0.0,0.0,0.0,0.0,0.0,0.0,0.0,4.3644,4.3658,0.0,4.2861,0.0,0.0,0.0,0.0,0.0,4.4457,0.0,0.0,5.0608,5.2317,5.2367,5.3145,5.3145,5.2536,5.3822,5.301,5.0117,4.6699,0.0,0.0,0.0,0.0,0.0,0.0,5.0574,5.3433,5.5023,5.6443,5.7764,5.5802,5.4972,5.5462,5.2097,4.9526,4.8022,4.6534,4.4404,4.1474,4.0608,0.0,0.0,0.0,0.0,0.0,0.0,0.0,0.0,0.0,0.0,0.0,0.0,0.0,0.0,0.0,0.0,0.0,0.0,0.0,0.0,4.0844,0.0,0.0,0.0,0.0,0.0,0.0,0.0,0.0,0.0,0.0,4.9695,5.1792,5.3856,5.4566,0.0,0.0,0.0,0.0,5.5006,5.5699,5.5243,5.5074,5.5767,5.6934,5.7121,5.5193,0.0,0.0,5.7306,5.9471,6.0926,5.9453,6.1028,6.1994,6.0419,5.8287,5.7137,5.7764,5.7442,5.707,5.7137,5.8727,5.9979,4.8857,0.0,0.0,0.0,0.0,4.6729,4.7904,4.9626,4.8495,4.8115,4.8105,4.6853,0.0,0.0,0.0,0.0,0.0,0.0,4.9526,5.0777,5.2401,5.345,5.3957,5.4735,5.4955,5.4752,5.5192,5.4921,5.4076,5.3027,4.9984,4.5181,0.0,0.0,0.0,0.0,5.2334,5.4228,5.5716,5.6934,5.7866,5.6258,5.4955,5.416,5.2536,5.098,4.9526,4.8545,4.6921,4.4505,4.3166,0.0,0.0,0.0,0.0,0.0,0.0,0.0,0.0,0.0,0.0,0.0,0.0,0.0,0.0,0.0,0.0,0.0,0.0,0.0,4.1555,4.2354,4.322,0.0,0.0,0.0,0.0,0.0,0.0,0.0,0.0,0.0,5.5344,5.5615,5.5919,0.0,0.0,5.7002,5.6258,5.707,5.7796,5.8032,0.0,0.0,0.0,5.8287,5.8238,5.9201,6.0994,6.2226,6.2347,6.3091,6.3497,6.3024,6.3531,6.3802,6.3362,6.1975,6.0979,6.1081,6.1332,6.1549,6.1651,6.255,6.3226,5.5295,5.2939,4.9859,4.9116,5.0102,5.0381,5.1688,5.3516,5.2279,5.1984,5.2232,5.0761,4.9187,4.7646,4.7496,0.0,0.0,0.0,5.2672,5.4126,5.5209,5.6089,5.6799,5.7239,5.7442,5.7457,5.7442,5.7457,5.7424,5.7457,5.4955,5.0304,0.0,0.0,5.0015,5.2401,5.4397,5.5852,5.6494,5.7137,5.7866,5.6443,5.5124,5.3957,5.2875,5.186,5.098,5.027,4.8969,4.7075,4.5858,4.4234,0.0,0.0,0.0,0.0,0.0,0.0,0.0,0.0,0.0,0.0,0.0,3.807,0.0,0.0,0.0,0.0,4.1014,4.2909,4.4384,4.5466,0.0,0.0,0.0,0.0,0.0,0.0,0.0,5.57,5.7983,5.9505,5.9693,5.981,5.9438,5.8287,5.849,5.8626,5.8186,0.0,5.9674,6.025,6.0723,6.1197,6.1772,6.1129,6.1028,6.2381,6.3328,6.4174,6.4884,6.5256,6.5561,6.5865,6.617,6.6373,6.6373,6.5628,6.458,6.3551,6.3869,6.4275,6.3984,6.4749,6.5392,6.0283,5.973,5.3409,5.1561,5.2858,5.3558,5.4673,5.5969,5.5277,5.5344,5.5834,5.4397,5.3348,5.257,5.1233,0.0,5.2909,5.4296,5.5683,5.7103,5.8438,5.9419,6.008,6.008,6.0114,6.0182,6.025,6.0283,6.0283,6.0419,5.937,5.7273,5.5953,5.5141,5.4837,5.5564,5.6646,5.8017,5.734,5.7273,5.778,5.6477,5.5412,5.46,5.3213,5.2435,5.23,5.1641,5.0626,4.924,4.8428,4.6703,4.3916,0.0,0.0,0.0,0.0,0.0,0.0,0.0,0.0,0.0,0.0,0.0,0.0,0.0,0.0,0.0,4.4688,0.0,4.8124,4.9458,0.0,0.0,0.0,5.2824,5.3179,5.6208,5.8272,5.834,0.0,0.0,6.2651,0.0,6.3599,6.0825,6.0452,6.0452,6.0385,6.0452,6.096,6.2347,6.255,6.3024,6.4106,6.4343,6.441,6.4647,6.4816,6.5189,6.5797,6.6508,6.7218,6.7793,6.8571,6.9011,6.9045,6.8808,6.8267,6.5493,6.5527,6.5764,6.5324,6.6136,6.6812,6.1839,6.1651,5.9463,5.8432,5.8231,5.8399,5.8695,5.8979,5.8287,5.8051,5.8134,5.6664,5.5919,5.5716,5.5378,5.6003,5.7424,5.7796,5.8438,5.9302,5.9674,5.9945,6.008,6.008,6.0419,6.1028,6.1569,6.1839,6.1907,6.299,6.2685,6.1163,6.1264,5.9674,5.6461,5.7577,5.8641,5.9573,5.8863,5.7999,5.7103,5.6731,5.5919,5.4651,5.4228,5.3484,5.2367,5.2131,5.1623,5.0694,4.9442,4.8173,4.6872,4.3775,0.0,0.0,0.0,0.0,0.0,0.0,0.0,0.0,0.0,4.3673,4.0109,0.0,4.4708,0.0,4.7428,4.9661,5.1116,5.1589,0.0,0.0,5.5852,5.6867,5.9693,6.0791,6.1535,6.2091,6.3463,6.4275,6.4106,6.4377,6.4343,6.3632,6.3531,6.3328,6.2801,6.3193,6.3632,6.3971,6.4038,6.4208,6.4647,6.5087,6.5662,6.6183,6.6745,6.7184,6.7354,6.803,6.8639,6.8808,6.8944,6.9079,6.9147,6.9079,6.891,6.8199,6.8166,6.8233,6.8064,6.8301,6.847,6.3362,6.3294,6.2584,6.2009,6.1569,6.0926,6.0825,6.1061,6.0351,5.9994,5.9945,5.8795,5.8084,5.7814,5.778,5.822,5.8979,5.9317,5.9911,6.0655,6.096,6.1129,6.1129,6.1129,6.1535,6.2279,6.2347,6.257,6.2888,6.3396,6.3362,6.2888,6.2956,6.1941,5.9892,5.9945,6.0216,6.0622,5.9859,5.893,5.7814,5.7476,5.6427,5.4685,5.4617,5.3737,5.1894,5.2114,5.1641,5.0288,4.9458,4.8665,4.7921,4.5635,4.4127,0.0,0.0,0.0,0.0,0.0,0.0,0.0,0.0,0.0,0.0,0.0,4.7564,0.0,5.1352,0.0,5.5124,5.619,5.7645,5.9693,6.0419,6.1569,6.3632,6.4444,6.5121,6.5899,6.6373,6.6609,6.6609,6.6609,6.6609,6.6609,6.6609,6.5967,6.4356,6.4377,6.4715,6.5019,6.5358,6.5865,6.6474,6.6948,6.7354,6.776,6.8166,6.8436,6.847,6.9079,6.9586,6.9586,6.9857,7.0072,7.0094,7.0072,7.0072,7.0094,7.0094,6.9823,6.9248,6.9079,6.9079,6.4952,6.4952,6.4221,6.3849,6.37,6.2313,6.1975,6.2347,6.1738,6.14,6.1264,6.0554,5.9911,5.9302,5.9182,5.925,5.9453,6.0013,6.0689,6.1467,6.211,6.2415,6.2415,6.2415,6.2787,6.3443,6.2854,6.2888,6.3477,6.3024,6.3057,6.3477,6.2956,6.2956,6.3409,6.2144,6.14,6.1298,6.0588,5.9892,5.9148,5.8423,5.702,5.5006,5.4719,5.3551,5.1472,5.2063,5.1589,4.9729,4.9661,4.9375,4.8665,4.7834,4.7259,0.0,4.7173,0.0,0.0,0.0,0.0,0.0,0.0,0.0,0.0,5.0473,5.1217,5.3145,5.5953,5.8254,5.9742,6.167,6.2908,6.3145,6.4837,6.6021,6.6157,6.7286,6.8335,6.9011,6.9079,6.9079,6.8977,6.9079,6.9079,6.891,6.8842,6.7963,6.5831,6.5358,6.5628,6.6068,6.6677,6.7523,6.8538,6.8944,6.8977,6.9045,6.9147,6.9248,6.9214,6.9857,7.0331,7.0398,7.0804,7.1255,7.1391,7.1323,7.1323,7.1515,7.1458,7.1007,6.9857,6.9519,6.9417,6.6745,6.7218,6.6453,6.5831,6.5222,6.4343,6.3362,6.24,6.2265,6.1839,6.1298,6.1129,6.0994,6.0825,6.0182,6.0554,6.1704,6.1264,6.1467,6.2231,6.2313,6.2415,6.2415,6.2415,6.2787,6.3443,6.3362,6.3376,6.3545,6.4546,6.4546,6.3545,6.3937,6.3971,6.3477,0.0,0.0,0.0,6.1163,6.0689,5.9911,5.9167,5.8017,5.6427,5.5226,0.0,5.2232,5.2824,5.3112,5.2689,5.3213,0.0,0.0,0.0,0.0,0.0,0.0,0.0,0.0,0.0,0.0,0.0,5.5141,5.4025,5.3078,5.5987,5.8186,5.866,6.0825,6.2821,6.4275,6.4803,6.5561,6.6711,6.7218,6.7726,6.8368,6.8707,6.8944,6.9079,6.9113,6.9113,6.918,6.9079,6.9147,6.9248,6.9113,6.8876,6.8402,6.8166,6.8267,6.8436,6.8504,6.8741,6.9045,6.9147,6.9248,6.9147,6.962,6.9925,7.0082,7.0601,7.1109,7.1142,7.1244,7.1548,7.2056,7.1718,7.1718,7.2834,7.2597,7.1921,7.1075,7.0906,7.1075,6.7793,0.0,6.7265,6.6576,0.0,6.5459,6.4512,6.3429,6.2705,6.2178,6.1839,6.1839,6.1637,6.1298,6.0858,6.1129,6.1839,6.1467,6.1704,6.24,6.2415,6.2415,6.2415,6.2753,6.3328,6.4038,6.368,6.3869,6.4546,6.4613,6.4783,6.5134,6.5155,6.4952,6.4546,6.3125,6.2231,6.1839,6.1839,6.1467,6.0723,6.0351,5.9066,5.69,0.0,0.0,0.0,0.0,0.0,0.0,0.0,0.0,0.0,0.0,0.0,5.3906,5.4634,5.504,5.5141,5.7171,5.893,6.0032,6.1129,6.0486,5.7611,6.0723,6.3024,6.3396,6.4796,6.6136,6.7218,6.7354,6.7658,6.8402,6.8808,6.935,7.0026,7.0173,7.0331,7.0635,7.0398,7.0331,7.0669,7.0737,7.0906,7.121,7.1278,7.121,7.1109,6.9992,6.9214,6.9586,6.962,6.9789,7.0094,7.0195,7.0195,7.0241,7.05,7.0872,7.121,7.1582,7.1954,7.2293,7.2394,7.2529,7.28,7.2631,7.2631,7.324,7.3206,7.2868,7.2462,7.2394,7.2462,6.8808,6.918,6.7929,6.7231,6.6948,6.6203,6.5392,6.4512,0.0,0.0,0.0,6.2584,6.2178,6.1535,6.1637,6.1704,6.1704,6.1839,6.2212,6.2753,6.2787,6.2806,6.284,6.3409,6.4086,6.4749,6.4174,6.458,6.5818,6.4796,6.5134,6.6622,6.6305,6.5899,6.5392,6.3565,6.2536,6.2415,6.2415,6.2197,6.1704,6.1569,6.025,5.7645,5.7915,5.6833,5.4228,5.4769,5.4668,5.3585,5.3754,5.4465,5.57,5.5903,5.7002,5.9216,6.0351,6.0892,6.0926,6.3024,6.4072,6.3599,6.6068,6.6136,6.2719,6.4816,6.6609,6.7332,6.7963,6.8673,6.9586,6.9688,6.9755,6.9857,7.0398,7.1041,7.156,7.1582,7.1718,7.236,7.1921,7.1785,7.2428,7.2529,7.28,7.3331,7.3263,7.35,7.3229,7.1481,7.0331,7.0804,7.0973,7.1041,7.1515,7.1684,7.1718,7.1684,7.1695,7.1921,7.2394,7.2597,7.2834,7.3263,7.35,7.3534,7.3635,7.3534,7.3635,7.3838,7.3804,7.3747,7.3872,7.3906,7.3872,7.05,7.0048,6.9811,6.8965,6.7692,6.6948,6.5865,6.4613,6.4377,6.3937,6.3342,6.3342,6.2922,6.2299,6.2902,6.3173,6.324,6.3835,6.4208,0.0,6.4309,6.4275,6.4309,6.441,6.4816,6.5493,6.5446,6.5831,6.6588,6.7083,6.7151,6.6914,6.732,6.6643,6.4816,6.3835,6.3057,6.2434,6.2415,6.2651,6.3139,6.2584,6.1772,6.0689,5.9505,5.8084,5.6427,5.7088,5.7645,5.8066,5.9336,6.0148,6.0351,6.0926,6.1216,6.1095,6.2854,6.3971,6.4005,6.6034,6.7557,6.8166,6.97,6.962,6.7286,6.7996,6.891,6.962,6.9823,7.0454,7.1718,7.1887,7.2056,7.2665,7.2925,7.3094,7.3105,7.2597,7.2529,7.3263,7.2699,7.2529,7.3172,7.3364,7.3375,7.35,7.3737,7.3567,7.3567,7.3195,7.2925,7.3026,7.3026,7.3071,7.3003,7.3138,7.3037,7.3195,7.3071,7.3071,7.3308,7.3341,7.3432,7.3534,7.3669,7.3838,7.4289,7.3916,7.4119,7.4897,7.4796,7.4627,7.51,7.527,7.5134,7.0737,7.0737,7.0364,6.9811,6.9045,6.7895,6.7015,6.6373,6.5967,6.5134,6.412,6.4106,6.3903,6.3632,6.3937,6.4106,6.414,6.4444,6.4613,6.4613,6.4613,6.4816,6.5222,6.5574,6.6203,6.6846,6.688,6.7286,6.7996,6.7963,6.8132,6.8571,6.8166,6.7387,6.6373,6.4884,6.414,6.4194,6.3396,6.3159,6.3477,6.3565,6.3226,6.2496,6.1786,6.096,5.9877,6.0167,6.0689,6.1414,6.211,6.2854,6.3652,6.4025,6.4397,6.4884,6.5831,6.6745,6.759,6.9316,7.0669,7.1447,7.209,7.209,7.1007,7.1278,7.1447,7.1413,7.174,7.2248,7.2925,7.2969,7.3138,7.3466,7.35,7.3669,7.395,7.3443,7.3308,7.3883,7.3443,7.3274,7.4018,7.4086,7.4289,7.4559,7.4695,7.4661,7.4661,7.4684,7.438,7.3703,7.35,7.35,7.35,7.35,7.35,7.35,7.35,7.3669,7.395,7.4086,7.4255,7.4593,7.4661,7.4796,7.5168,7.4965,7.5067,7.5337,7.5473,7.5405,7.5642,7.6014,7.6048,7.0669,7.1007,7.0432,7.0094,6.9823,6.8673,6.8166,6.8098,6.7557,6.6576,6.5425,6.5019,6.4749,6.4613,6.4749,6.485,6.4884,6.5019,6.5121,6.5121,6.529,6.5662,6.6224,6.6981,6.7692,6.8335,6.8436,6.8842,6.9451,6.8977,6.9248,7.0161,6.891,6.8064,6.7861,6.5865,6.5121,6.5615,6.4749,6.4323,6.4492,6.5053,6.5087,6.4525,6.4492,6.414,6.3463,6.3396,6.3734,6.4444,6.4492,6.5121,6.6339,6.663,6.7218,6.8301,6.8741,6.9485,7.0838,7.1988,7.2891,7.3466,7.3669,7.3703,7.3534,7.3838,7.351,7.2665,7.2992,7.3432,7.35,7.3646,7.3815,7.3974,7.4007,7.4255,7.4695,7.4187,7.4018,7.4627,7.4221,7.4018,7.4661,7.4864,7.5033,7.5506,7.5676,7.5676,7.5676,7.5676,7.5168,7.4447,7.4007,7.4075,7.4007,7.4052,7.4075,7.4007,7.4052,7.4322,7.4728,7.4864,7.5033,7.5473,7.5608,7.5574,7.5642,7.5642,7.5642,7.5676,7.5642,7.5676,7.5709,7.6318,7.669,7.0838,7.0353,7.0285,6.9789,6.9282,6.9079,6.8977,6.8977,6.891,6.8402,6.7421,6.617,6.5256,6.4749,6.5344,6.5649,6.5662,6.6305,6.6588,6.6656,6.7286,6.7624,6.776,6.8504,6.9282,6.9879,6.9947,7.0263,7.0917,7.0917,7.0985,7.1041,6.9722,6.8639,6.7827,6.6406,6.5683,6.5751,6.6237,6.6791,6.7455,6.7557,6.7557,6.7523,6.7489,6.7151,6.6339,6.6406,6.6724,6.7421,6.7489,6.7895,6.8741,6.9383,6.9823,7.0048,7.121,7.236,7.3094,7.3331,7.3466,7.351,7.4153,7.4221,7.3669,7.4728,7.4593,7.3071,7.3071,7.3601,7.3534,7.4086,7.4728,7.5236,7.5337,7.5506,7.5439,7.4965,7.4772,7.5506,7.4897,7.4796,7.5371,7.5506,7.5574,7.5676,7.5676,7.5676,7.5676,7.5676,7.5676,7.5439,7.5439,7.5405,7.5337,7.5473,7.5303,7.5337,7.5439,7.5405,7.5439,7.5506,7.5642,7.5608,7.5676,7.5676,7.5676,7.5676,7.5676,7.5709,7.5709,7.5743,7.5811,7.642,7.6826,7.1142,7.0872,7.0838,7.0669,7.0342,6.9958,6.9777,6.9722,6.9282,6.891,6.8571,6.7963,6.7049,6.5946,6.6677,6.6981,6.7049,6.7793,6.8166,6.8166,6.8504,6.8842,6.9282,6.9553,7.0128,7.0804,7.0838,7.0985,7.1222,7.1289,7.1289,7.1188,7.0263,6.9608,6.918,6.8233,6.7916,6.8356,6.8673,6.918,6.9722,6.9045,6.8605,6.8605,6.8605,6.847,6.8267,6.8571,6.9147,6.9857,6.9925,7.0466,7.1616,7.1548,7.1684,7.2124,7.3105,7.3849,7.4119,7.4525,7.4796,7.482,7.5067,7.4931,7.4289,7.51,7.4931,7.3544,7.4119,7.4661,7.4289,7.4796,7.5371,7.5642,7.5676,7.5676,7.5676,7.5439,7.5405,7.5642,7.5439,7.5337,7.5608,7.5676,7.5676,7.5676,7.5676,7.5676,7.5676,7.5676,7.5676,7.5676,7.5676,7.5676,7.5676,7.5676,7.5676,7.5676,7.5676,7.5676,7.5676,7.5676,7.5676,7.5676,7.5676,7.5676,7.5676,7.5676,7.5676,7.5777,7.6149,7.6284,7.5811,7.669,7.7367,7.1921,7.1921,7.1887,7.1887,7.1853,7.1109,7.0826,7.0725,7.0026,6.962,6.9417,6.9383,6.8707,6.7624,6.7996,6.8233,6.8301,6.8842,6.9079,6.9113,6.9316,6.9789,7.0466,7.0737,7.1176,7.1785,7.1921,7.1819,7.1616,7.1357,7.1289,7.1188,7.0567,7.0217,7.0116,6.9451,6.9451,7.0116,7.0217,7.0534,7.1019,7.0263,6.9722,6.9722,6.9722,6.9688,6.9722,7.0398,7.0939,7.1289,7.1684,7.2293,7.3105,7.3037,7.3341,7.4018,7.4593,7.4897,7.4874,7.5405,7.5676,7.5676,7.5676,7.5473,7.5134,7.5405,7.51,7.4086,7.4965,7.5371,7.4796,7.51,7.5439,7.5642,7.5676,7.5676,7.5676,7.5676,7.5676,7.5676,7.5642,7.5676,7.5676,7.5676,7.5676,7.5676,7.5676,7.5676,7.5676,7.5676,7.5676,7.5676,7.5676,7.5676,7.5676,7.5676,7.5676,7.5676,7.5676,7.5676,7.5676,7.5676,7.5676,7.5676,7.5676,7.5676,7.5676,7.5676,7.5811,7.6082,7.6454,7.6724,7.6251,7.7096,7.7502,7.3398,7.3398,7.3398,7.3331,7.3331,7.2563,7.2293,7.2191,7.1481,7.0804,7.0229,7.0184,6.9722,6.9011,6.9113,6.9079,6.9045,6.918,6.9248,6.9316,6.9857,7.0534,7.1255,7.1954,7.2631,7.3172,7.3172,7.2935,7.2326,7.1684,7.1289,7.1255,7.0635,7.0251,7.0161,6.9586,6.9485,7.0195,7.0263,7.0567,7.121,7.1188,7.1086,7.1086,7.1154,7.1086,7.1188,7.1887,7.1988,7.1323,7.2597,7.3105,7.2699,7.3781,7.4796,7.5439,7.5574,7.5608,7.5608,7.5676,7.5676,7.5676,7.5676,7.5642,7.5473,7.5608,7.5303,7.4627,7.5134,7.5337,7.4806,7.483,7.51,7.5608,7.5676,7.5676,7.5743,7.5743,7.5709,7.5743,7.5743,7.5709,7.5676,7.5676,7.5676,7.5676,7.5676,7.5676,7.5676,7.5676,7.5676,7.5676,7.5676,7.5676,7.5676,7.5676,7.5676,7.5676,7.5676,7.5676,7.5676,7.5676,7.5676,7.5676,7.5676,7.5676,7.5676,7.5811,7.6048,7.6318,7.6758,7.686,7.6352,7.6724,7.7232,7.35,7.35,7.35,7.35,7.3466,7.3229,7.3105,7.3037,7.2326,7.1887,7.1548,7.1109,7.077,7.0534,7.0511,7.0263,6.9891,7.0297,7.0511,7.0511,7.0804,7.1312,7.1988,7.2293,7.2766,7.3398,7.35,7.3398,7.3037,7.236,7.2022,7.1887,7.1255,7.0906,7.0838,7.0669,7.0669,7.0872,7.0906,7.1075,7.1255,7.1289,7.1289,7.1289,7.1289,7.1289,7.1289,7.2022,7.2259,7.2022,7.2992,7.3578,7.3883,7.4762,7.5405,7.5642,7.5676,7.5676,7.5676,7.5676,7.5676,7.5676,7.5676,7.5506,7.5168,7.5405,7.5405,7.4864,7.4796,7.4999,7.5303,7.5303,7.5405,7.5642,7.5709,7.5879,7.6217,7.6048,7.5879,7.6251,7.6048,7.5676,7.5676,7.5676,7.5676,7.5676,7.5676,7.5676,7.5676,7.5676,7.5676,7.5676,7.5676,7.5676,7.5676,7.5676,7.5676,7.5676,7.5676,7.5676,7.5676,7.5676,7.5676,7.5676,7.5676,7.5676,7.5676,7.5709,7.598,7.6217,7.6657,7.686,7.6284,7.7029,7.7536,7.4187,7.421,7.421,7.4221,7.4187,7.395,7.3849,7.3781,7.3071,7.2732,7.2665,7.2225,7.2022,7.1954,7.1763,7.1582,7.13,7.1582,7.1785,7.1988,7.2022,7.2394,7.3003,7.3105,7.3477,7.4075,7.395,7.3849,7.3747,7.3105,7.2766,7.2699,7.2225,7.1887,7.1695,7.165,7.1582,7.1357,7.1289,7.1289,7.1289,7.1289,7.1289,7.1289,7.1289,7.1289,7.1345,7.2022,7.2394,7.2529,7.3308,7.4187,7.4931,7.5439,7.5676,7.5676,7.5676,7.5676,7.5676,7.5676,7.5676,7.5676,7.5676,7.5439,7.5043,7.5405,7.5371,7.51,7.4965,7.5202,7.554,7.5676,7.5676,7.5676,7.5676,7.5912,7.642,7.6014,7.598,7.6217,7.6014,7.5743,7.5676,7.5676,7.5676,7.5676,7.5676,7.5676,7.5676,7.5676,7.5676,7.5676,7.5676,7.5676,7.5676,7.5676,7.5676,7.5676,7.5676,7.5676,7.5676,7.5676,7.5676,7.5676,7.5676,7.5676,7.5676,7.5676,7.5811,7.6014,7.6521,7.6927,7.7063,7.757,7.7773,7.5642,7.5574,7.5676,7.554,7.5405,7.4864,7.4627,7.4492,7.3815,7.35,7.35,7.3409,7.324,7.324,7.2665,7.2732,7.3161,7.2766,7.28,7.324,7.3331,7.3713,7.439,7.439,7.4762,7.5405,7.4931,7.4603,7.4559,7.3883,7.35,7.3477,7.3398,7.2935,7.2394,7.236,7.209,7.165,7.1458,7.1357,7.1289,7.1323,7.1289,7.1289,7.1357,7.1391,7.1357,7.2022,7.2428,7.2631,7.3758,7.4931,7.5473,7.5676,7.5709,7.5777,7.5743,7.5743,7.5743,7.5845,7.5946,7.5845,7.5743,7.5811,7.5743,7.5777,7.5777,7.5743,7.5777,7.5845,7.5879,7.5946,7.5845,7.5676,7.5676,7.5743,7.5845,7.5777,7.5709,7.5777,7.5709,7.5676,7.5676,7.5676,7.5676,7.5676,7.5676,7.5676,7.5676,7.5676,7.5676,7.5676,7.5676,7.5676,7.5676,7.5676,7.5676,7.5676,7.5676,7.5676,7.5676,7.5676,7.5676,7.5676,7.5676,7.5676,7.5676,7.5709,7.5946,7.6183,7.669,7.6927,7.6995,7.7198,7.7604,7.5676,7.5676,7.5676,7.5676,7.5676,7.5439,7.5371,7.527,7.4559,7.4289,7.4187,7.3713,7.35,7.3466,7.3263,7.3544,7.4187,7.4018,7.3781,7.3567,7.3534,7.3916,7.4525,7.4603,7.4999,7.5574,7.5473,7.5337,7.5202,7.4593,7.4255,7.4187,7.3747,7.3398,7.3172,7.3138,7.2969,7.28,7.2326,7.2056,7.2022,7.1548,7.1289,7.1357,7.1785,7.2056,7.209,7.2293,7.2631,7.3138,7.4086,7.4931,7.554,7.5676,7.598,7.6454,7.6521,7.6521,7.6589,7.6961,7.7019,7.6657,7.6521,7.6521,7.6521,7.6521,7.6521,7.6589,7.6961,7.7266,7.7266,7.7266,7.685,7.5811,7.5676,7.5946,7.6352,7.6487,7.6251,7.5777,7.5676,7.5676,7.5709,7.5743,7.5777,7.5811,7.5743,7.5709,7.5709,7.5709,7.5676,7.5676,7.5676,7.5794,7.5926,7.6067,7.6103,7.6067,7.5973,7.5699,7.5676,7.5676,7.5676,7.5676,7.5676,7.5676,7.5676,7.5777,7.5946,7.6183,7.6487,7.6521,7.6386,7.686,7.7705,7.5676,7.5676,7.5676,7.5676,7.5676,7.5676,7.5676,7.5642,7.5236,7.4975,7.4897,7.4525,7.4322,7.4278,7.4052,7.4322,7.4908,7.4739,7.4492,7.4322,7.4322,7.4593,7.4999,7.4999,7.5236,7.5608,7.5676,7.5676,7.5676,7.527,7.4999,7.4897,7.4525,7.4187,7.395,7.3883,7.3815,7.35,7.3037,7.28,7.2699,7.236,7.2124,7.2191,7.2563,7.2935,7.3172,7.324,7.3443,7.395,7.4593,7.5236,7.5676,7.598,7.6386,7.6792,7.7164,7.7299,7.7333,7.7671,7.7831,7.7401,7.7299,7.7299,7.7299,7.7299,7.7299,7.7401,7.7696,7.801,7.7976,7.7976,7.7502,7.669,7.6318,7.6386,7.6826,7.6893,7.6893,7.6623,7.6623,7.6555,7.6555,7.6251,7.6318,7.642,7.6048,7.5912,7.5946,7.5879,7.5777,7.5733,7.5676,7.5902,7.6289,7.6439,7.6554,7.6462,7.6381,7.5949,7.5676,7.5676,7.5676,7.5676,7.5676,7.5676,7.5676,7.5676,7.5811,7.6082,7.6386,7.6555,7.6792,7.7874,7.8585,7.5743,7.5709,7.5676,7.5676,7.5676,7.5676,7.5676,7.5676,7.5642,7.5608,7.5608,7.5506,7.554,7.5473,7.4897,7.4999,7.5473,7.5067,7.5067,7.5405,7.5506,7.554,7.5574,7.554,7.5608,7.5676,7.5676,7.5676,7.5676,7.5608,7.5676,7.5574,7.5506,7.5337,7.4762,7.4637,7.4356,7.394,7.3646,7.3567,7.3567,7.3432,7.3398,7.3375,7.35,7.3815,7.4289,7.4468,7.4593,7.4739,7.5371,7.5811,7.5946,7.6521,7.6995,7.7198,7.7705,7.7976,7.8068,7.828,7.8271,7.8102,7.8044,7.8044,7.8044,7.8044,7.8044,7.8077,7.8237,7.828,7.828,7.8314,7.8204,7.7976,7.7367,7.7029,7.6961,7.7029,7.7232,7.7705,7.7967,7.7967,7.7739,7.7266,7.7333,7.7401,7.6758,7.6555,7.6454,7.6284,7.5892,7.5899,7.6114,7.6622,7.7182,7.7446,7.7555,7.7424,7.7128,7.6439,7.5936,7.5842,7.5676,7.5676,7.5676,7.5676,7.5676,7.5676,7.5845,7.6149,7.6487,7.6792,7.7468,7.845,7.8957,7.6251,7.5709,7.5676,7.5676,7.5676,7.5676,7.5709,7.5709,7.5709,7.5743,7.5676,7.5676,7.5676,7.5676,7.5506,7.554,7.5574,7.5473,7.5473,7.5642,7.5676,7.5676,7.5676,7.5676,7.5676,7.5676,7.5676,7.5676,7.5676,7.5676,7.5676,7.5676,7.5676,7.5608,7.5439,7.5371,7.5337,7.5067,7.4525,7.4322,7.4221,7.3781,7.35,7.3534,7.4018,7.439,7.4637,7.5134,7.5405,7.5473,7.6183,7.6589,7.6657,7.7299,7.7908,7.8382,7.8653,7.8822,7.8923,7.9261,7.9329,7.8889,7.8822,7.8788,7.8822,7.8822,7.8822,7.8923,7.9228,7.9566,7.9566,7.9566,7.9329,7.8822,7.8213,7.7739,7.7705,7.7705,7.7831,7.8,7.8044,7.8111,7.8077,7.7908,7.7807,7.7942,7.7701,7.7276,7.7202,7.7135,7.695,7.6861,7.7071,7.7628,7.8119,7.8411,7.8536,7.8453,7.7949,7.715,7.6611,7.616,7.5913,7.5676,7.5676,7.5676,7.5676,7.5676,7.598,7.6251,7.6589,7.6961,7.7705,7.8551,7.8991,7.6893,7.6217,7.6217,7.6217,7.6183,7.6217,7.6183,7.6217,7.6217,7.598,7.5743,7.5676,7.5676,7.5676,7.5676,7.5676,7.5676,7.5676,7.5676,7.5676,7.5676,7.5676,7.5676,7.5676,7.5676,7.5676,7.5676,7.5676,7.5676,7.5676,7.5676,7.5676,7.5676,7.5676,7.5676,7.5676,7.5676,7.5608,7.527,7.5067,7.5033,7.4661,7.4492,7.4492,7.4864,7.5067,7.5168,7.5811,7.6183,7.6284,7.6657,7.7029,7.7401,7.8044,7.8653,7.9101,7.9363,7.9566,7.9634,7.9972,7.9972,7.9667,7.9566,7.9566,7.9566,7.9541,7.9566,7.96,7.9972,8.0141,8.0209,8.0209,8.0006,7.96,7.9194,7.8788,7.8517,7.8483,7.8619,7.8788,7.8948,7.8948,7.8889,7.8653,7.8677,7.8835,7.8903,7.8511,7.8265,7.8167,7.8162,7.8167,7.8175,7.8638,7.9222,7.9556,7.9672,7.9595,7.8814,7.794,7.6828,7.632,7.6051,7.5777,7.5709,7.5743,7.5879,7.5946,7.6082,7.6386,7.6724,7.7401,7.8213,7.8754,7.9126,7.7671,7.7029,7.7029,7.6995,7.6995,7.7029,7.6995,7.6995,7.686,7.6487,7.598,7.5743,7.5676,7.5676,7.5676,7.5676,7.5676,7.5676,7.5676,7.5676,7.5676,7.5676,7.5676,7.5676,7.5676,7.5676,7.5676,7.5676,7.5676,7.5676,7.5676,7.5676,7.5676,7.5676,7.5676,7.5676,7.5676,7.5676,7.5608,7.554,7.554,7.5473,7.5405,7.5473,7.5709,7.5912,7.6149,7.6623,7.7063,7.713,7.713,7.7536,7.8145,7.8822,7.9194,7.9363,7.9803,8.0107,8.0141,8.0141,8.0209,8.0107,8.0107,8.0209,8.0107,8.0073,8.0073,8.004,8.0175,8.0209,8.0209,8.0209,8.0175,8.004,8.0073,7.9862,7.9546,7.9268,7.9464,8.0073,8.0141,8.0175,8.0065,7.986,7.9646,8.0223,8.029,8.0407,8.0054,7.9819,7.9691,7.9519,7.9554,7.9595,8.0182,8.0768,8.0804,8.0714,7.97,7.8624,7.6884,7.6215,7.6042,7.598,7.6352,7.6454,7.6386,7.642,7.6569,7.6995,7.7671,7.8247,7.8855,7.9194,7.9566,7.8416,7.7764,7.7764,7.7797,7.7773,7.7773,7.7773,7.7705,7.7164,7.6826,7.6521,7.598,7.5709,7.5676,7.5676,7.5676,7.5676,7.5676,7.5676,7.5676,7.5676,7.5709,7.5709,7.5709,7.5676,7.5676,7.5676,7.5709,7.5709,7.5777,7.5709,7.5743,7.5811,7.5676,7.5709,7.5676,7.5676,7.5676,7.5676,7.5676,7.5676,7.5709,7.5709,7.5811,7.6318,7.6927,7.7401,7.7671,7.8044,7.8483,7.8619,7.8653,7.8957,7.9532,7.9904,8.0006,8.0073,8.0242,8.0242,8.0344,8.0242,8.0344,8.0412,8.0209,8.0209,8.0242,8.0242,8.0209,8.0209,8.0209,8.0276,8.0209,8.031,8.0344,8.0302,8.0533,8.0944,8.0482,8.0173,8.0283,8.0376,8.0259,8.0351,8.1119,8.1244,8.1583,8.1964,8.2329,8.2001,8.1503,8.1394,8.1261,8.1086,8.1182,8.1545,8.1812,8.1509,8.1364,8.0532,7.974,7.7981,7.7193,7.7381,7.7326,7.7232,7.7237,7.725,7.7474,7.774,7.8181,7.8591,7.9056,7.9512,7.9768,7.9837,7.9194,7.8517,7.8517,7.8517,7.8517,7.8517,7.8517,7.8382,7.7739,7.7198,7.6758,7.6048,7.5709,7.5676,7.5676,7.5676,7.5676,7.5709,7.5912,7.6082,7.598,7.5912,7.6115,7.5879,7.5676,7.5709,7.5676,7.5845,7.6149,7.6251,7.6318,7.6251,7.6217,7.6048,7.5743,7.5676,7.5676,7.5676,7.5676,7.5676,7.5676,7.5709,7.5946,7.6318,7.6995,7.7638,7.7933,7.8348,7.8686,7.9092,7.9406,7.9634,7.9634,7.9972,8.031,8.0648,8.0716,8.0953,8.1122,8.1257,8.1291,8.1224,8.1224,8.1224,8.1088,8.0953,8.0741,8.0615,8.0479,8.031,8.0682,8.1122,8.1088,8.075,8.0767,8.1081,8.1625,8.1355,8.127,8.1593,8.1933,8.191,8.2106,8.2346,8.2549,8.276,8.3635,8.3987,8.3653,8.326,8.3354,8.3228,8.2845,8.2803,8.303,8.2857,8.2142,8.1825,8.1239,8.0668,7.9748,7.9332,7.9201,7.8747,7.8196,7.8358,7.8387,7.8692,7.906,7.9501,7.9864,8.0048,8.0078,8.0081,8.0073,7.9837,7.9261,7.9261,7.9236,7.9261,7.9295,7.9261,7.916,7.8483,7.7874,7.7198,7.6386,7.6183,7.5946,7.5946,7.5912,7.5879,7.5743,7.6048,7.6623,7.6014,7.6048,7.6284,7.6149,7.598,7.5879,7.5743,7.6115,7.6792,7.6826,7.6555,7.6758,7.6657,7.6217,7.5777,7.5676,7.5676,7.5676,7.5676,7.5676,7.5676,7.5709,7.6115,7.7029,7.7773,7.828,7.8585,7.8957,7.9295,7.927,7.987,8.0141,8.0209,8.0242,8.0547,8.1215,8.119,8.1359,8.1765,8.2137,8.2246,8.2382,8.2374,8.234,8.2171,8.185,8.1724,8.178,8.1741,8.1841,8.2008,8.2707,8.2735,8.2362,8.2116,8.2256,8.2628,8.2693,8.3138,8.3125,8.3038,8.2906,8.3234,8.35,8.3691,8.4006,8.4891,8.5437,8.5099,8.4828,8.4748,8.4503,8.3993,8.3664,8.3834,8.3297,8.2665,8.2471,8.1973,8.1652,8.1324,8.1321,8.0894,7.959,7.9132,7.9532,7.9879,8.0027,8.0432,8.087,8.0669,8.0399,8.0333,8.0335,8.0378,8.0141,8.0006,8.0006,8.004,8.0006,8.0006,7.9972,7.9904,7.9194,7.8855,7.8585,7.7908,7.7164,7.6826,7.669,7.669,7.6555,7.6217,7.6217,7.6724,7.6149,7.5912,7.6115,7.6487,7.6623,7.6487,7.6251,7.6589,7.7198,7.6623,7.6623,7.6724,7.6318,7.5879,7.5777,7.5709,7.5743,7.5845,7.5845,7.5845,7.5912,7.6082,7.6589,7.7739,7.8551,7.9126,7.96,7.987,8.004,8.004,8.0141,8.0209,8.0344,8.0344,8.0648,8.1224,8.1494,8.1723,8.1968,8.2238,8.2382,8.2382,8.2647,8.2613,8.2553,8.2479,8.2984,8.3621,8.4344,8.4904,8.5179,8.5168,8.5255,8.5147,8.5022,8.5296,8.5995,8.5724,8.491,8.4415,8.4044,8.386,8.435,8.4693,8.4872,8.5162,8.5768,8.6265,8.619,8.5875,8.5593,8.5312,8.4889,8.4632,8.4482,8.3664,8.3022,8.3123,8.2874,8.2699,8.262,8.2984,8.2475,8.1469,8.1292,8.1828,8.191,8.1685,8.1596,8.1825,8.1267,8.0567,8.0554,8.0581,8.0919,8.0513,8.0209,8.0209,8.0209,8.0209,8.0209,8.0209,8.0073,7.9431,7.9126,7.8889,7.8348,7.7831,7.7536,7.7468,7.7435,7.7266,7.669,7.6792,7.7096,7.6318,7.598,7.6251,7.6758,7.713,7.7266,7.713,7.7401,7.8348,7.7502,7.7096,7.7164,7.669,7.6115,7.5777,7.5676,7.598,7.6183,7.6318,7.6521,7.686,7.7164,7.7942,7.8483,7.9228,7.9837,8.0073,8.0209,8.0209,8.0175,8.0209,8.0615,8.0953,8.1072,8.1139,8.1782,8.2222,8.2603,8.2907,8.3362,8.3531,8.3637,8.402,8.4453,8.4533,8.4796,8.4888,8.5261,8.5905,8.659,8.648,8.6975,8.6922,8.6661,8.6655,8.7058,8.7344,8.6974,8.641,8.5827,8.5791,8.5761,8.5601,8.5899,8.6101,8.6428,8.6696,8.6873,8.7014,8.6701,8.6261,8.6114,8.582,8.571,8.5317,8.4446,8.3969,8.4,8.3819,8.3709,8.4044,8.4518,8.4354,8.3697,8.3863,8.3607,8.3621,8.326,8.3028,8.2571,8.1793,8.1131,8.09,8.0885,8.1257,8.0716,8.0209,8.0209,8.0209,8.0209,8.0209,8.0209,8.0073,7.96,7.9363,7.9228,7.8754,7.844,7.8204,7.8102,7.8034,7.8136,7.7468,7.7468,7.7561,7.6657,7.6352,7.6724,7.7164,7.7536,7.8145,7.8179,7.8551,7.8686,7.7942,7.7807,7.7671,7.7232,7.6758,7.6318,7.642,7.6657,7.6893,7.713,7.7468,7.8044,7.8686,7.9126,7.9194,7.9803,8.0175,8.0209,8.0209,8.0209,8.0209,8.031,8.075,8.185,8.1979,8.2208,8.2922,8.3534,8.4146,8.4564,8.5301,8.5444,8.552,8.6222,8.6589,8.6881,8.6996,8.742,8.7066,8.7678,8.8254,8.8473,8.8628,8.8649,8.8406,8.8261,8.8186,8.8468,8.8424,8.8342,8.7961,8.7769,8.7259,8.6791,8.6518,8.6571,8.6589,8.6891,8.6891,8.7014,8.7014,8.6775,8.6831,8.6757,8.6757,8.6313,8.5482,8.5262,8.5428,8.5075,8.4799,8.5438,8.612,8.5622,8.4921,8.4525,8.4309,8.4553,8.4273,8.3372,8.2594,8.2083,8.1723,8.1528,8.1528,8.1799,8.0276,8.0209,8.0209,8.0209,8.0209,8.0209,8.0209,8.0175,8.0073,8.0073,7.9972,7.9904,7.9464,7.8991,7.8348,7.845,7.8585,7.8247,7.7874,7.7865,7.7164,7.6792,7.6995,7.7628,7.8179,7.8788,7.8923,7.8991,7.8797,7.7807,7.7468,7.7705,7.7435,7.7096,7.7401,7.7367,7.7773,7.7865,7.7899,7.8,7.8213,7.8822,7.9126,7.9363,7.9803,8.0209,8.0209,8.0209,8.0209,8.0209,8.0209,8.0615,8.1529,8.31,8.4091,8.4706,8.5086,8.5155,8.5579,8.6551,8.7305,8.7316,8.7815,8.7952,8.8375,8.9007,8.9482,8.9647,9.038,9.0748,9.0654,9.1082,9.1213,9.0952,9.0579,9.0731,9.0832,8.953,8.9459,8.9312,8.8905,8.8078,8.7369,8.7165,8.6997,8.7014,8.7014,8.7088,8.7124,8.7234,8.7014,8.7014,8.7014,8.7014,8.6925,8.6156,8.6119,8.6482,8.6192,8.5787,8.6247,8.6589,8.6138,8.5508,8.5104,8.433,8.3755,8.335,8.3016,8.2531,8.1892,8.1933,8.213,8.2272,8.2408,8.119,8.0784,8.0378,8.0209,8.0209,8.0209,8.0209,8.0209,8.0209,8.0209,8.0209,8.0209,8.0006,7.9634,7.9329,7.9431,7.9498,7.8957,7.8348,7.8077,7.7638,7.7333,7.7266,7.8044,7.8889,7.9126,7.9431,7.9397,7.8923,7.8179,7.7764,7.7874,7.7705,7.7662,7.8136,7.801,7.8247,7.8585,7.8991,7.9228,7.9329,7.9532,7.9701,7.9701,8.004,8.0175,8.0209,8.0209,8.0209,8.0209,8.0209,8.117,8.255,8.3866,8.4875,8.6895,8.7661,8.7638,8.7267,8.7879,8.8233,8.8468,8.8841,8.9516,9.0123,9.0598,9.0965,9.0986,9.1454,9.1785,9.1803,9.1803,9.1803,9.1803,9.1803,9.1803,9.162,9.1033,9.0318,9.0207,8.995,8.9106,8.8372,8.8078,8.7675,8.7234,8.7455,8.7748,8.7802,8.7802,8.7472,8.7014,8.7014,8.7014,8.6943,8.6643,8.6608,8.6803,8.6767,8.6518,8.6696,8.6731,8.6119,8.5712,8.5201,8.4253,8.3103,8.2676,8.2578,8.2138,8.163,8.1961,8.2374,8.2915,8.3152,8.2069,8.152,8.0784,8.0378,8.0209,8.0209,8.0209,8.0209,8.0209,8.0209,8.0209,8.0209,8.0209,8.0175,8.0107,8.0073,8.0107,7.9634,7.8957,7.8483,7.8213,7.7976,7.801,7.8662,7.9194,7.9338,7.9566,7.9532,7.9092,7.8585,7.828,7.8247,7.8314,7.845,7.8576,7.8745,7.8957,7.9363,7.9803,8.004,8.0107,8.0107,8.0141,8.0175,8.0209,8.0209,8.0209,8.0209,8.0209,8.0513,8.0547,8.1737,8.3859,8.4971,8.6272,8.8281,8.9692,9.031,8.9711,8.9569,8.9171,8.9369,8.9724,9.0735,9.1398,9.1803,9.1803,9.1657,9.1712,9.1803,9.1803,9.1803,9.1803,9.1803,9.1803,9.1803,9.173,9.1289,9.1033,9.0996,9.0702,9.0262,8.9601,8.9124,8.8536,8.7729,8.7839,8.839,8.85,8.85,8.828,8.7858,8.7858,8.7748,8.74,8.731,8.7234,8.7051,8.7051,8.6943,8.6908,8.6446,8.575,8.5374,8.4872,8.3436,8.177,8.2001,8.2185,8.1855,8.168,8.2157,8.2611,8.3253,8.3761,8.2408,8.2272,8.1494,8.0809,8.0209,8.0209,8.0209,8.0209,8.0209,8.0209,8.0209,8.0209,8.0209,8.0209,8.0209,8.0209,8.0175,8.0141,7.9566,7.916,7.8991,7.8889,7.8864,7.9034,7.9464,7.9837,7.9803,7.9431,7.9194,7.9194,7.9025,7.9034,7.9025,7.9464,7.9667,7.9667,7.9735,7.9972,8.0175,8.0175,8.0209,8.0209,8.0209,8.0209,8.0209,8.0209,8.0209,8.0209,8.0749,8.1317,8.135,8.2825,8.5158,8.6245,8.7785,8.9842,9.1482,9.212,9.2041,9.1676,9.1507,9.1564,9.1509,9.1491,9.1748,9.1803,9.1803,9.1803,9.1803,9.1803,9.1803,9.1803,9.1803,9.1803,9.1803,9.1803,9.1803,9.1767,9.1546,9.1657,9.14,9.0922,9.0702,9.0225,8.929,8.8482,8.8793,8.9307,8.929,8.9307,8.9216,8.9033,8.9069,8.8812,8.8243,8.7986,8.7692,8.7362,8.7178,8.6964,8.6803,8.6119,8.5429,8.4109,8.3329,8.1898,8.0995,8.1571,8.1865,8.1689,8.1824,8.2374,8.3084,8.3828,8.4174,8.2543,8.1723,8.1418,8.0911,8.0209,8.0209,8.0209,8.0209,8.0209,8.0209,8.0209,8.0209,8.0209,8.0209,8.0209,8.0209,8.0209,8.0209,7.9735,7.9532,7.9464,7.9464,7.9406,7.9541,7.9938,8.0107,7.987,7.9769,7.9803,7.9701,7.9769,7.9769,7.9701,7.9904,8.0141,8.0209,8.0209,8.0209,8.0209,8.0209,8.0209,8.0209,8.0209,8.0209,8.0209,8.0479,8.0716,8.0378,8.139,8.2389,8.2561,8.4507,8.6767,8.7828,8.9374,9.1375,9.2773,9.3326,9.3749,9.3455,9.3161,9.2501,9.2152,9.1803,9.184,9.1803,9.1803,9.1803,9.1803,9.1803,9.1803,9.1803,9.1803,9.1803,9.1803,9.1803,9.1803,9.1803,9.1803,9.173,9.173,9.1546,9.1436,9.1326,9.0262,8.9326,8.9767,9.0134,9.0134,9.0097,9.0024,8.9877,8.984,8.962,8.905,8.8573,8.8133,8.7692,8.7271,8.6824,8.6446,8.588,8.5026,8.3479,8.2256,8.1448,8.1117,8.1471,8.1664,8.1868,8.2238,8.278,8.3531,8.4309,8.4478,8.2441,8.1351,8.1317,8.0911,8.0242,8.0209,8.0209,8.0209,8.0209,8.0209,8.0209,8.0209,8.0209,8.0209,8.0209,8.0209,8.0209,8.0175,7.987,7.9803,7.9837,7.9837,7.9769,7.9837,8.0107,8.0209,8.0209,8.0175,8.0107,8.0175,8.0141,8.0141,8.0209,8.0175,8.0175,8.0209,8.0209,8.0209,8.0209,8.0209,8.0209,8.0209,8.0209,8.0209,8.0209,8.0344,8.0885,8.1093,8.2237,8.3499,8.4565,8.6109,8.8031,8.9738,9.0897,9.2366,9.3602,9.4079,9.4446,9.4336,9.3932,9.3051,9.2611,9.217,9.1877,9.1803,9.1803,9.1803,9.1803,9.1803,9.1803,9.1803,9.1803,9.1803,9.1803,9.1803,9.1803,9.1803,9.1803,9.1767,9.1767,9.1767,9.173,9.162,9.1216,9.0298,9.0207,9.0647,9.0959,9.0922,9.0812,9.0665,9.0482,9.0188,8.9803,8.9216,8.861,8.7912,8.7404,8.6465,8.5972,8.5353,8.437,8.2839,8.1815,8.1214,8.1208,8.1468,8.1868,8.2264,8.2855,8.3531,8.3836,8.4512,8.4512,8.1968,8.1351,8.1283,8.0851,8.0209,8.0209,8.0209,8.0209,8.0209,8.0209,8.0209,8.0209,8.0209,8.0209,8.0209,8.0209,8.0209,8.0209,8.0107,8.0107,8.0107,8.0141,8.0141,8.0175,8.0209,8.0209,8.0209,8.0209,8.0209,8.0209,8.0209,8.0209,8.0209,8.0209,8.0209,8.0209,8.0209,8.0209,8.0209,8.031,8.0209,8.0302,8.0403,8.0696,8.0721,8.0907,8.1919,8.2628,8.3821,8.5135,8.6249,8.7807,8.9706,9.0775,9.1848,9.305,9.4538,9.5235,9.5418,9.474,9.4153,9.3418,9.3015,9.2537,9.1987,9.1803,9.1803,9.1803,9.1803,9.1803,9.1803,9.1803,9.1803,9.195,9.1987,9.195,9.1987,9.1803,9.1803,9.1803,9.1803,9.1803,9.1803,9.1767,9.1767,9.1363,9.0922,9.1069,9.1473,9.151,9.1326,9.1253,9.1033,9.0702,9.028,8.9693,8.9069,8.8353,8.7301,8.6135,8.5104,8.4232,8.3212,8.2037,8.1579,8.1186,8.1249,8.1418,8.2103,8.2847,8.3734,8.4343,8.4546,8.458,8.458,8.1494,8.1283,8.0784,8.0412,8.0209,8.0209,8.0209,8.0209,8.0209,8.0209,8.0209,8.0209,8.0209,8.0209,8.0209,8.0209,8.0209,8.0209,8.0209,8.0209,8.0209,8.0209,8.0209,8.0209,8.0209,8.0209,8.0209,8.0209,8.0209,8.0209,8.0209,8.0209,8.0209,8.0209,8.0209,8.0209,8.0209,8.031,8.0547,8.0716,8.0335,8.0707,8.1347,8.2029,8.2078,8.2792,8.4089,8.4803,8.5777,8.7177,8.8332,8.9208,9.0868,9.1899,9.2804,9.3785,9.5034,9.5768,9.6098,9.5914,9.5254,9.4263,9.3382,9.2794,9.195,9.1803,9.1803,9.1803,9.1803,9.1803,9.1803,9.1803,9.1913,9.2391,9.2501,9.2427,9.2317,9.195,9.1803,9.1803,9.1803,9.1803,9.1803,9.1803,9.1803,9.1803,9.1363,9.1326,9.1657,9.173,9.162,9.1657,9.151,9.1179,9.0721,8.995,8.9253,8.8519,8.7012,8.5345,8.433,8.3556,8.2348,8.1355,8.1279,8.1257,8.1731,8.2205,8.278,8.349,8.4174,8.458,8.458,8.458,8.458,8.0945,8.0877,8.0378,8.0209,8.0209,8.0209,8.0209,8.0209,8.0209,8.0209,8.0209,8.0209,8.0209,8.0209,8.0209,8.0209,8.0209,8.0209,8.0209,8.0209,8.0209,8.0209,8.0209,8.0209,8.0209,8.0209,8.0209,8.0209,8.0209,8.0209,8.0209,8.0209,8.0259,8.0517,8.0567,8.0591,8.0209,8.0428,8.0823,8.1293,8.1312,8.1902,8.2937,8.3543,8.4073,8.4826,8.621,8.713,8.7759,8.9208,8.9995,9.0401,9.1712,9.2611,9.3308,9.3969,9.496,9.5804,9.6428,9.6208,9.5364,9.4336,9.3786,9.2978,9.2134,9.1803,9.1803,9.1803,9.1803,9.2024,9.2134,9.2097,9.2317,9.2794,9.2684,9.2611,9.2648,9.2317,9.195,9.195,9.206,9.1987,9.1803,9.1803,9.1803,9.1803,9.1767,9.1803,9.1803,9.1803,9.1803,9.1803,9.1693,9.1326,9.0739,8.995,8.929,8.8702,8.7101,8.5359,8.4265,8.3613,8.2136,8.1018,8.1521,8.2011,8.2569,8.305,8.3422,8.3795,8.4275,8.4546,8.458,8.4647,8.4715,8.0209,8.0209,8.0209,8.0209,8.0209,8.0209,8.0209,8.0209,8.0209,8.0209,8.0209,8.0209,8.0209,8.0209,8.0209,8.0209,8.0209,8.0209,8.0209,8.0209,8.0209,8.0209,8.0209,8.0209,8.0209,8.0209,8.0209,8.0209,8.0209,8.0209,8.0209,8.0401,8.0567,8.1077,8.1355,8.1307,8.0917,8.1242,8.1845,8.2187,8.2303,8.3626,8.4503,8.5157,8.5777,8.6468,8.7476,8.8352,8.8911,8.9855,9.0716,9.14,9.206,9.2648,9.2941,9.3602,9.4777,9.5584,9.6061,9.5658,9.5107,9.4189,9.4189,9.3272,9.2354,9.1803,9.1803,9.1877,9.1987,9.2464,9.2794,9.2758,9.2758,9.2794,9.2648,9.2721,9.2941,9.2721,9.2354,9.2281,9.2464,9.2391,9.1913,9.1803,9.1803,9.1803,9.1803,9.1803,9.1803,9.1803,9.1803,9.1803,9.1657,9.14,9.0758,9.0042,8.9185,8.8564,8.7623,8.6073,8.4961,8.3839,8.2935,8.2324,8.2378,8.2869,8.385,8.4044,8.3828,8.4208,8.4478,8.4546,8.458,8.4877,8.4945,8.0209,8.0209,8.0209,8.0209,8.0209,8.0209,8.0209,8.0209,8.0209,8.0209,8.0209,8.0209,8.0209,8.0209,8.0209,8.0209,8.0209,8.0209,8.0209,8.0209,8.0209,8.0209,8.0209,8.0209,8.0209,8.0209,8.0209,8.0209,8.0234,8.0234,8.0829,8.1307,8.1355,8.2083,8.2616,8.2773,8.2639,8.2744,8.3402,8.3389,8.3719,8.4903,8.5903,8.6839,8.7654,8.8458,8.9688,9.0232,9.0754,9.1124,9.1455,9.1803,9.184,9.2611,9.3235,9.3932,9.4446,9.474,9.4887,9.4777,9.441,9.3969,9.4006,9.3345,9.2391,9.1913,9.195,9.2097,9.2501,9.3051,9.3345,9.3345,9.3529,9.3602,9.3308,9.2978,9.3125,9.2941,9.2574,9.2354,9.2537,9.2281,9.184,9.1803,9.1803,9.1803,9.1803,9.1803,9.1803,9.1803,9.1803,9.1803,9.1693,9.1436,9.096,9.0263,8.9274,8.8367,8.748,8.6537,8.5239,8.4275,8.3792,8.3571,8.354,8.4401,8.5549,8.525,8.4261,8.4343,8.458,8.458,8.4647,8.4877,8.5215,8.0209,8.0209,8.0209,8.0209,8.0209,8.0209,8.0209,8.0209,8.0209,8.0209,8.0209,8.0209,8.0209,8.0209,8.0209,8.0209,8.0209,8.0209,8.0209,8.0209,8.0209,8.0209,8.0209,8.0209,8.0209,8.0209,8.0209,8.0209,8.0326,8.0804,8.1355,8.1816,8.2186,8.322,8.3881,8.4248,8.4553,8.4696,8.4931,8.485,8.537,8.6281,8.7723,8.865,8.9497,9.0681,9.1547,9.1767,9.1803,9.1803,9.1803,9.1803,9.1803,9.2354,9.2978,9.3529,9.3786,9.4079,9.4336,9.441,9.4006,9.3822,9.3969,9.3492,9.3125,9.2758,9.2611,9.2611,9.3198,9.3675,9.3822,9.3969,9.4336,9.4666,9.4006,9.3308,9.3198,9.3088,9.2794,9.2427,9.217,9.195,9.1803,9.1803,9.1803,9.1803,9.1803,9.1803,9.1803,9.1803,9.1803,9.1803,9.1693,9.151,9.1015,9.0448,8.9505,8.8521,8.7633,8.6587,8.5437,8.5182,8.5159,8.4927,8.4667,8.5336,8.5777,8.5206,8.4512,8.458,8.458,8.458,8.4614,8.4749,8.5148,8.0209,8.0209,8.0209,8.0209,8.0209,8.0209,8.0209,8.0209,8.0209,8.0209,8.0209,8.0209,8.0209,8.0209,8.0209,8.0209,8.0209,8.0209,8.0209,8.0209,8.0209,8.0209,8.0209,8.0209,8.0209,8.0209,8.025,8.0351,8.0681,8.1187,8.1816,8.2152,8.3177,8.438,8.5528,8.5682,8.613,8.681,8.6513,8.6208,8.6817,8.8161,8.9767,9.0282,9.1015,9.1767,9.1767,9.1803,9.1803,9.1803,9.1803,9.1803,9.184,9.1877,9.2427,9.2684,9.2978,9.3235,9.3529,9.3675,9.3896,9.3932,9.4189,9.3859,9.3565,9.3529,9.3418,9.2978,9.3345,9.4079,9.4373,9.4666,9.5034,9.5034,9.4556,9.4042,9.3786,9.3492,9.2941,9.2537,9.206,9.184,9.1803,9.1803,9.1803,9.1803,9.1803,9.1803,9.1803,9.1803,9.1803,9.1803,9.173,9.1565,9.118,9.0556,8.9691,8.8741,8.8076,8.7433,8.6826,8.6713,8.67,8.6312,8.5849,8.5249,8.5188,8.4838,8.466,8.458,8.458,8.458,8.4647,8.4715,8.5114,8.0209,8.0209,8.0209,8.0209,8.0209,8.0209,8.0209,8.0209,8.0209,8.0209,8.0209,8.0209,8.0209,8.0209,8.0209,8.0209,8.0209,8.0209,8.0209,8.0209,8.0209,8.0209,8.0209,8.0209,8.0209,8.0209,8.0301,8.0755,8.1498,8.2037,8.2892,8.4232,8.4944,8.5757,8.7104,8.7267,8.7776,8.841,8.8233,8.7468,8.7376,8.8362,8.9583,9.017,9.0849,9.1693,9.1803,9.1803,9.1803,9.1803,9.1803,9.1803,9.1803,9.1803,9.1877,9.206,9.2207,9.2427,9.2574,9.2831,9.3088,9.3602,9.3859,9.4042,9.4153,9.4263,9.4079,9.3529,9.3565,9.4336,9.4887,9.5217,9.5401,9.5217,9.4997,9.463,9.4263,9.3749,9.3125,9.2537,9.1987,9.184,9.1803,9.1803,9.1803,9.1803,9.1803,9.1803,9.1803,9.1803,9.1803,9.1803,9.1803,9.162,9.129,9.0791,8.9975,8.9933,8.9601,8.8939,8.8201,8.7741,8.741,8.7279,8.6951,8.5877,8.5092,8.4969,8.4819,8.466,8.458,8.458,8.458,8.4647,8.5114,8.0209,8.0209,8.0209,8.0209,8.0209,8.0209,8.0209,8.0209,8.0209,8.0209,8.0209,8.0209,8.0209,8.0209,8.0209,8.0209,8.0209,8.0209,8.0209,8.0209,8.0209,8.0209,8.0209,8.0209,8.0209,8.0225,8.0868,8.1545,8.2527,8.3372,8.4375,8.5425,8.5985,8.7049,8.828,8.8536,8.8959,8.9363,8.9473,8.8923,8.8115,8.9143,8.9877,9.0391,9.0959,9.1693,9.1803,9.1803,9.1803,9.1803,9.1803,9.1803,9.1803,9.1803,9.1803,9.184,9.184,9.1803,9.1877,9.2134,9.2501,9.3161,9.4226,9.4703,9.4373,9.4483,9.4887,9.4483,9.4556,9.5217,9.4794,9.4941,9.4777,9.4556,9.4189,9.3786,9.3859,9.3786,9.2978,9.2134,9.184,9.184,9.1803,9.1803,9.1803,9.1803,9.1803,9.1803,9.1803,9.1803,9.1803,9.1803,9.1803,9.1803,9.1602,9.1046,9.0298,9.0486,9.0813,9.0371,8.9601,8.8683,8.8088,8.7573,8.683,8.5659,8.504,8.489,8.4792,8.4633,8.458,8.458,8.458,8.458,8.4911,8.0209,8.0209,8.0209,8.0209,8.0209,8.0209,8.0209,8.0209,8.0209,8.0209,8.0209,8.0209,8.0209,8.0209,8.0209,8.0209,8.0209,8.0209,8.0209,8.0209,8.0209,8.0209,8.0209,8.0209,8.0376,8.0917,8.1652,8.2706,8.3811,8.4492,8.5117,8.5873,8.7031,8.8316,8.8647,8.9124,8.9693,8.995,9.0024,8.9767,8.9877,9.0207,9.0391,9.0812,9.1326,9.173,9.1803,9.1803,9.1803,9.1803,9.1803,9.1803,9.1803,9.1803,9.1803,9.1803,9.1803,9.1803,9.1913,9.2317,9.2721,9.3382,9.463,9.496,9.4483,9.4666,9.507,9.5217,9.529,9.5144,9.4721,9.4464,9.4226,9.4263,9.3822,9.3382,9.3639,9.3749,9.2831,9.1913,9.1803,9.1803,9.1803,9.1803,9.1803,9.1803,9.1803,9.1803,9.1803,9.1803,9.1803,9.1803,9.1803,9.1785,9.173,9.1398,9.0735,9.083,9.1079,9.1154,9.0754,8.9242,8.8065,8.7375,8.6536,8.5318,8.4864,8.4713,8.4606,8.458,8.458,8.458,8.458,8.458,8.458,8.0209,8.0209,8.0209,8.0209,8.0209,8.0209,8.0209,8.0209,8.0209,8.0209,8.0209,8.0209,8.0209,8.0209,8.0209,8.0209,8.0209,8.0209,8.0209,8.0209,8.0209,8.0209,8.0276,8.0467,8.0853,8.1746,8.2861,8.386,8.4848,8.5295,8.6132,8.7375,8.763,8.8793,9.0005,9.0354,9.0592,9.0812,9.0959,9.0886,9.0427,9.0574,9.0555,9.0922,9.1363,9.1657,9.1803,9.1803,9.1803,9.1803,9.1803,9.1803,9.1803,9.1803,9.1803,9.1803,9.1803,9.1803,9.1987,9.2097,9.2391,9.2905,9.3822,9.4079,9.3932,9.4226,9.4483,9.4556,9.4556,9.4446,9.4153,9.4116,9.3969,9.452,9.4501,9.4079,9.3969,9.3529,9.2794,9.217,9.1803,9.1803,9.1803,9.1803,9.1803,9.1803,9.1803,9.1803,9.1803,9.1803,9.1803,9.1803,9.1803,9.1803,9.1803,9.1803,9.1398,9.1398,9.1249,9.1135,9.0463,8.9121,8.8088,8.7222,8.6103,8.489,8.4606,8.458,8.458,8.458,8.458,8.458,8.458,8.458,8.458]}]]